     2              OBSERVATION DATA    GPS                 RINEX VERSION / TYPE
ASRINEXO V2.4.4 UX USGS 23-APR-96 11:18                     PGM / RUN BY / DATE
                                                            COMMENT
Original Marker Name: sanh Sand_Hill_1939_1981_USC&GS       COMMENT
Campaign Name: usgs.coach.monit                             COMMENT
4-Character Station Name: SANH                              COMMENT
6-Character Antenna Code: ASHGD3                            COMMENT
Vertical Measurement Point: EGP                             COMMENT
Vertical Offset to Rinex Ref. Point: 0.0594                 COMMENT
Radial Measurement Point: EGP                               COMMENT
Radial Offset to Rinex Ref. Point: 0.1837                   COMMENT
Antenna Height from Field Measurement: 1.4500 m             COMMENT
Additional Antenna Identification Info.:                    COMMENT
The Whopper                                                 COMMENT
Original XYZ: -2396178.1800 -4763661.7700 3490160.4400      COMMENT
New XYZ position is based on association with SCEC monument COMMENT
E1F2G8K4+0012. Position of that monument is believed to be  COMMENT
valid to within 1 m horizontally; vertical accuracy         COMMENT
should be no worse than 3-times this value.                 COMMENT
                                                            COMMENT
Revised Rinex header created by UCSD GPS archive for        COMMENT
GSAC on 12-Nov-1999 (1999:316) 18:14:40 GMT                 COMMENT
For assistance contact dagnew@ucsd.edu or hjohnson@ucsd.edu COMMENT
                                                            COMMENT
SANH SAND_HILL_1939_1981_USC&GS                             MARKER NAME
JMS US GEOLOGICAL SURVEY                                    OBSERVER / AGENCY
707 ASHTECH Z-XII3 1F00                                     REC # / TYPE / VERS
404 ASHTECH GEODETIC III                                    ANT # / TYPE
 -2336820.0000 -4732587.0000  3570330.0000                  APPROX POSITION XYZ
        1.3789        0.0000        0.0000                  ANTENNA: DELTA H/E/N
     1     1     0                                          WAVELENGTH FACT L1/2
     5    C1    L1    L2    P1    P2                        # / TYPES OF OBSERV
    30                                                      INTERVAL
  1996     4    17    15    34   30.000000                  TIME OF FIRST OBS
  1996     4    17    22    30   30.000000                  TIME OF LAST OBS
                                                            END OF HEADER
 96  4 17 15 34 30.0000000  0  1  3
  17423926.632        9489.10019
 96  4 17 15 35  0.0000000  0  8 19  3 31 29 28 27  2 18
  14864037.275      -30403.50819    -19604.62259                  14864043.6984
  17428517.640       33615.01859     19967.17259  17428518.5314   17428524.0144
  15917794.260      -40772.37619    -24957.16559                  15917799.9044
  16624623.396       87367.91919     54246.81759                  16624629.0804
  18095543.461       43057.73619
  16675473.195      -78250.32319    -49165.26059                  16675478.9654
  17887115.067      -96199.61819    -60172.26559                  17887122.0944
  14461005.890       25746.43019
 96  4 17 15 35 30.0000000  0  1  3
  23429035.356       58151.38349     39086.38249  23429036.7584   23429041.8434
 96  4 17 15 36  0.0000000  0  8 19  3 31 29 28 27  2 18
  20849001.514      -87605.03559    -64177.24049  20849002.8354   20849007.6744
  23433795.072       83149.96859     58565.79659  23433793.9404   23433799.2694
  21900007.885     -112426.96859    -80791.90549  21900009.1194   21900013.5754
  22650781.545      246644.97459    178358.76449  22650783.6904   22650787.1324
  24107714.684      128801.08619     95754.47119  24107712.759    24107717.331
  22643931.866     -222193.10659   -161328.44849  22643931.9594   22643937.0194
  23849520.272     -271945.98659   -197117.44649  23849521.6814   23849527.8974
  20466287.220       75311.630 9
 96  4 17 15 36 30.0000000  0  9 19 16  3 31 29 28 27  2 18
  20843574.777     -116123.70559    -86399.58059  20843575.8354   20843580.7964
  24763497.351     -199395.44719   -141065.26159                  24763505.6534
  23438637.517      108601.34849     78398.05949  23438638.2264   23438641.6094
  21893324.422     -147551.46959   -108161.64259  21893324.5174   21893329.5144
  22666007.077      326657.23159    240705.95459  22666008.6994   22666013.3994
  24115984.790      172282.43019    129636.01619  24115987.270    24115991.293
  22630213.312     -294273.26559   -217494.79959  22630215.7004   22630220.7584
  23832822.513     -359699.88559   -265497.07859  23832822.4314   23832828.6094
  20471126.288      100742.504 9     16063.54659                  20471132.2174
 96  4 17 15 37  0.0000000  0  9 19 16  3 31 29 28 27  2 18
  20838167.033     -144542.67149   -108544.23049  20838168.2564   20838173.2224
  24751660.770     -261632.45159   -189561.60449  24751657.1374   24751662.8954
  23443565.788      134506.18549     98583.61449  23443567.6064   23443571.5114
  21886732.671     -182191.77049   -135154.07949  21886733.0734   21886738.2504
  22681277.770      406903.17049    303235.23649  22681279.1424   22681283.0654
  24124338.892      216171.989 9    163835.659 9  24124338.834    24124343.579
  22616492.918     -366385.40549   -273686.07049  22616493.0174   22616497.6844
  23816144.414     -447339.08449   -333787.34149  23816145.6624   23816151.7404
  20476052.600      126628.18759     36234.19949  20476053.1634   20476057.9564
 96  4 17 15 37 30.0000000  0  9 19 16  3 31 29 28 27  2 18
  20832794.208     -172776.59749   -130544.68949  20832795.5664   20832800.2444
  24739896.544     -323435.65449   -237719.94659  24739896.9374   24739903.4274
  23448592.832      160927.59849    119171.71249  23448595.5104   23448599.4324
  21880247.742     -216270.72349   -161709.10949  21880248.3404   21880252.8904
  22696602.235      487431.98149    365984.94449  22696603.2704   22696608.0404
  24132780.918      260541.332 9    198409.141 9  24132782.260    24132786.705
  22602778.696     -438451.66049   -329841.58549  22602779.1674   22602784.2394
  23799504.624     -534785.02249   -401927.01549  23799504.7654   23799511.3884
  20481079.486      153042.90549     56817.07949  20481079.6414   20481084.4134
 96  4 17 15 38  0.0000000  0  9 19 16  3 31 29 28 27  2 18
  20827471.452     -200748.92849   -152341.31249  20827472.6554   20827477.1434
  24728232.338     -384731.96459   -285483.28149  24728232.9654   24728239.6054
  23453731.618      187924.72449    140208.42949  23453732.9804   23453737.0294
  21873882.126     -249722.45949   -187775.40049  21873882.5984   21873887.2694
  22711990.352      568298.68349    428997.93849  22711991.7324   22711996.6164
  24141327.732      305452.075 9    233404.508 9  24141328.540    24141332.649
  22589085.814     -510408.84249   -385912.10649  22589086.6634   22589091.3174
  23782914.573     -621964.85649   -469859.32549  23782915.1324   23782921.7034
  20486217.482      180044.14849     77856.99249  20486218.0464   20486222.5264
 96  4 17 15 38 30.0000000  0  9 19 16  3 31 29 28 27  2 18
  20822213.401     -228380.94749   -173872.75349  20822214.3724   20822219.2364
  24716680.595     -445434.97049   -332784.33949  24716680.8094   24716688.9004
  23458992.106      215569.86149    161750.06249  23458993.6804   23458997.9104
  21867652.695     -282458.27249   -213283.82449  21867653.3134   21867658.1574
  22727458.127      649583.50249    492336.73249  22727459.2974   22727464.6304
  24149992.811      350984.506 9    268884.300 9  24149993.093    24149997.899
  22575431.770     -582160.52749   -441822.50349  22575432.9254   22575437.7954
  23766393.797     -708783.78749   -537510.41549  23766394.3784   23766400.2154
  20491479.909      207700.23649     99407.17949  20491480.9314   20491485.3914
 96  4 17 15 39  0.0000000  0  9 19 16  3 31 29 28 27  2 18
  20817030.165     -255618.82549   -195097.07449  20817031.1344   20817036.0674
  24705255.845     -505474.99249   -379568.77449  24705256.7354   24705261.7564
  23464389.127      243930.34149    183849.13449  23464389.4984   23464394.8604
  21861570.506     -314418.73649   -238188.08249  21861571.5514   21861575.5104
  22743021.244      731363.99749    556061.77249  22743021.5634   22743026.3264
  24158786.128      397198.169 9    304894.922 9  24158787.373    24158791.435
  22561832.415     -653625.02349   -497509.11449  22561833.3474   22561838.1474
  23749953.842     -795173.73949   -604827.24849  23749954.6044   23749960.7364
  20496876.629      236059.36049    121505.18149  20496877.3434   20496882.4404
 96  4 17 15 39 30.0000000  0  9 19 16  3 31 29 28 27  2 18
  20811929.444     -282422.79549   -215983.28649  20811930.4834   20811935.3674
  24693966.267     -564802.88549   -425798.30549  24693966.5834   24693973.0454
  23469931.378      273052.93149    206542.03049  23469931.9594   23469936.7564
  21855644.234     -345563.54349   -262456.75649  21855644.9664   21855649.0604
  22758687.752      813692.08749    620213.50849  22758688.9804   22758694.1764
  24167718.779      444136.114 9    341469.921 9  24167719.543    24167723.854
  22548294.816     -724766.52549   -552944.03949  22548295.3674   22548300.6794
  23733604.248     -881092.39249   -671776.82149  23733605.2624   23733610.8844
  20502412.642      265150.56149    144173.64149  20502413.5264   20502418.1044
 96  4 17 15 40  0.0000000  0  9 19 16  3 31 29 28 27  2 18
  20806912.218     -308789.26449   -236528.58549  20806913.1834   20806918.1144
  24682810.602     -623428.31649   -471480.46549  24682810.0764   24682816.8624
  23475620.589      302948.53449    229837.29449  23475621.0114   23475625.5464
  21849870.830     -375900.05949   -286095.59049  21849871.9524   21849876.1444
  22774459.419      896575.39449    684797.88249  22774460.2014   22774466.0454
  24176790.018      491802.376 9    378612.441 9  24176789.927    24176794.516
  22534820.925     -795572.71149   -608117.68449  22534821.9634   22534826.6694
  23717345.500     -966536.87049   -738356.91249  23717345.2044   23717352.2584
  20508089.639      294984.93649    167421.19149  20508090.2774   20508095.3084
 96  4 17 15 40 30.0000000  0  9 19 16  3 31 29 28 27  2 18
  20801974.106     -334738.51849   -256748.78749  20801975.1804   20801979.9294
  24671784.103     -681365.07349   -516625.99649  24671785.9144   24671791.4454
  23481453.030      333602.88249    253723.78349  23481454.5444   23481458.6354
  21844246.782     -405457.55249   -309127.39449  21844247.5104   21844251.4094
  22790333.754      979994.21549    749799.53649  22790334.6944   22790339.5264
  24185996.284      540181.916 9    416310.748 9  24185996.389    24186000.901
  22521412.229     -866036.63749   -663024.63449  22521412.9744   22521417.5854
  23701172.261    -1051526.66049   -804582.70349  23701172.1874   23701178.0124
  20513905.933      325548.18649    191236.70249  20513906.4864   20513911.0994
 96  4 17 15 41  0.0000000  0  9 19 16  3 31 29 28 27  2 18
  20797107.471     -360315.21249   -276678.66849  20797108.1994   20797112.9584
  24660881.850     -738666.24549   -561276.28949  24660882.2394   24660887.8674
  23487423.297      364976.03749    278170.37349  23487423.7594   23487429.9004
  21838759.654     -434291.33449   -331595.28549  21838760.4694   21838764.7914
  22806298.689     1063889.30449    815172.33549  22806300.5444   22806304.3314
  24195328.593      589226.293 9    454527.133 9  24195329.034    24195333.506
  22508057.286     -936217.43949   -717710.98149  22508058.4574   22508063.6894
  23685075.073    -1136116.90149   -870497.08649  23685075.3584   23685081.1904
  20519852.225      356796.98549    215586.39349  20519853.2414   20519857.6484
 96  4 17 15 41 30.0000000  0  9 19 16  3 31 29 28 27  2 18
  20792302.522     -385565.15949   -296353.96149  20792303.4334   20792308.1384
  24650087.472     -795387.05049   -605474.30749  24650087.8194   24650094.2014
  23493522.855      397026.77049    303144.95749  23493523.7774   23493528.3464
  21833405.531     -462428.17849   -353520.07549  21833406.2974   21833410.6994
  22822342.973     1148200.84449    880869.60049  22822343.9554   22822348.6864
  24204780.056      638890.462 9    493226.435 9  24204779.887    24204784.547
  22494744.139    -1006178.21349   -772225.84849  22494744.7344   22494750.3134
  23669044.478    -1220358.63749   -936140.04349  23669044.6274   23669051.1304
  20525925.135      388709.58749    240453.36149  20525925.8264   20525930.7184
 96  4 17 15 42  0.0000000  0  9 19 16  3 31 29 28 27  2 18
  20787551.496     -410533.05249   -315809.46049  20787552.2794   20787557.0154
  24639399.542     -851552.40249   -649239.53249  24639400.1704   24639406.6824
  23499744.324      429724.74949    328623.88449  23499745.9944   23499750.5514
  21828180.616     -489887.21149   -374916.71849  21828180.9584   21828185.3234
  22838458.814     1232890.48649    946861.50349  22838459.9644   22838465.1594
  24214341.555      689139.076 9    532381.168 9  24214341.833    24214346.766
  22481466.220    -1075954.25449   -826596.77749  22481466.9414   22481471.9464
  23653075.096    -1304278.33749  -1001531.99549  23653075.7844   23653081.4614
  20532120.948      421270.77149    265825.70449  20532122.0164   20532126.6074
 96  4 17 15 42 30.0000000  0  9 19 16  3 31 29 28 27  2 18
  20782845.731     -435260.68549   -335077.75049  20782846.5314   20782851.5804
  24628811.827     -907188.59449   -692592.40749  24628812.5884   24628819.4144
  23506082.921      463028.52149    354574.85249  23506083.6574   23506087.7494
  21823080.499     -516687.69749   -395800.20249  21823081.0214   21823085.3074
  22854640.014     1317920.85649   1013118.91549  22854640.1464   22854645.3404
  24224006.127      739926.963 9    571956.110 9  24224006.751    24224011.367
  22468212.593    -1145603.19649   -880868.67449  22468213.1864   22468218.1164
  23637158.187    -1387921.23849  -1066708.26549  23637158.6144   23637165.2084
  20538431.789      454431.68349    291665.36949  20538432.3624   20538437.4584
 96  4 17 15 43  0.0000000  0  9 19 16  3 31 29 28 27  2 18
  20778184.136     -459758.27349   -354166.78149  20778185.2224   20778190.0824
  24618322.373     -962314.06149   -735547.31949  24618322.5304   24618329.2074
  23512532.929      496927.28049    380989.45249  23512534.3354   23512538.5284
  21818106.275     -542826.36149   -416167.98649  21818107.1514   21818111.5384
  22870883.737     1403285.09249   1079636.47249  22870885.2304   22870890.1994
  24233769.730      791232.851 9    611934.699 9  24233769.774    24233774.322
  22454976.734    -1215158.04149   -935067.24549  22454976.8644   22454982.6304
  23621293.422    -1471294.56249  -1131674.47149  23621294.0764   23621299.2154
  20544852.630      488175.01649    317958.86749  20544853.4454   20544858.4434
 96  4 17 15 43 30.0000000  0  9 19 16  3 31 29 28 27  2 18
  20773562.163     -484046.84049   -373092.93749  20773562.8924   20773567.7224
  24607925.142    -1016950.90549   -778121.48149  24607925.3714   24607932.2554
  23519089.777      531384.86649    407839.49449  23519091.5674   23519095.7894
  21813252.435     -568333.98649   -436044.05549  21813252.9914   21813257.1324
  22887190.044     1488973.66749   1146406.76649  22887190.7684   22887196.0784
  24243624.353      843023.823 9    652291.270 9  24243625.357    24243630.288
  22441756.810    -1284627.70549   -989199.44349  22441757.7264   22441763.0154
  23605473.356    -1554424.88549  -1196451.32949  23605474.4474   23605479.9934
  20551376.648      522457.26749    344672.30449  20551377.2454   20551382.2024
 96  4 17 15 44  0.0000000  0  9 19 16  3 31 29 28 27  2 18
  20768982.733     -508110.15049   -391843.56749  20768983.8424   20768988.7544
  24597625.218    -1071074.60049   -820295.79249  24597626.2934   24597632.9994
  23525753.109      566397.00149    435121.66749  23525754.0684   23525759.0504
  21808516.448     -593224.03949   -455438.90449  21808516.3934   21808521.1724
  22903561.898     1575006.28249   1213445.13649  22903562.7534   22903567.6254
  24253574.536      895309.167 9    693033.064 9  24253574.923    24253579.699
  22428558.931    -1353985.40449  -1043244.40049  22428559.5754   22428564.6774
  23589705.173    -1637289.80649  -1261021.37749  23589705.5594   23589710.6304
  20558000.120      557263.84049    371794.29649  20558000.6194   20558005.8034
 96  4 17 15 44 30.0000000  0  9 19 16  3 31 29 28 27  2 18
  20764453.321     -531914.57149   -410392.47049  20764454.0634   20764458.8814
  24587425.957    -1124670.46449   -862058.81249  24587427.5554   24587433.6544
  23532519.499      601959.10149    462832.38349  23532520.9384   23532526.1944
  21803897.821     -617491.55549   -474348.65649  21803898.7764   21803903.3384
  22920000.139     1661393.60349   1280759.90649  22920002.2494   22920006.1174
  24263622.016      948106.281 9    734173.640 9  24263621.905    24263626.216
  22415385.583    -1423210.22749  -1097185.81249  22415386.0684   22415391.0544
  23573990.392    -1719871.70149  -1325370.88149  23573990.9844   23573996.2044
  20564724.226      592600.31649    399329.20349  20564725.0134   20564729.9874
 96  4 17 15 45  0.0000000  0  9 19 16  3 31 29 28 27  2 18
  20759965.837     -555494.59849   -428766.51449  20759967.0864   20759971.8854
  24577324.083    -1177761.03649   -903428.09649  24577324.8454   24577330.5114
  23539385.581      638036.76749    490944.82949  23539386.4654   23539391.1544
  21799393.752     -641163.23349   -492794.11749  21799394.3444   21799398.8624
  22936501.885     1748109.17949   1348330.44449  22936503.5374   22936508.6474
  24273761.290     1001394.276 9    775696.721 9  24273762.545    24273767.097
  22402238.051    -1492302.58249  -1151024.00949  22402238.6474   22402243.3984
  23558326.434    -1802186.33349  -1389512.13449  23558326.7714   23558331.7804
  20571544.922      628442.24349    427257.96149  20571545.8804   20571550.5524
 96  4 17 15 45 30.0000000  0  9 19 16  3 31 29 28 27  2 18
  20755517.789     -578870.27149   -446981.32849  20755519.0024   20755523.7764
  24567317.653    -1230343.91349   -944401.76749  24567318.1534   24567325.2104
  23546345.187      674607.97549    519441.85949  23546346.1524   23546350.5974
  21795002.043     -664241.84449   -510777.44849  21795002.2144   21795007.0894
  22953061.406     1835126.32649   1416135.98549  22953061.6334   22953067.4964
  24283994.080     1055162.963 9    817594.363 9  24283994.083    24283999.039
  22389112.721    -1561275.44549  -1204769.09249  22389113.4664   22389118.2384
  23542710.208    -1884248.04649  -1453456.30549  23542710.7154   23542716.0564
  20578461.195      664786.01749    455577.76949  20578461.8684   20578466.3634
 96  4 17 15 46  0.0000000  0  9 19 16  3 31 29 28 27  2 18
  20751107.314     -602046.75949   -465040.92849  20751108.5244   20751113.6704
  24557409.818    -1282407.53449   -984970.81749  24557411.6444   24557417.4044
  23553398.607      711677.44049    548327.13549  23553400.3174   23553404.4484
  21790727.406     -686705.08349   -528281.27049  21790727.7224   21790732.1324
  22969673.444     1922424.92149   1484160.82749  22969674.6934   22969679.7064
  24294318.023     1109416.258 9    859869.613 9  24294318.362    24294323.040
  22376005.696    -1630153.16049  -1258440.03549  22376006.5764   22376011.7934
  23527143.108    -1966053.71249  -1517200.97149  23527144.0534   23527148.7854
  20585476.682      701650.66649    484303.45349  20585477.1074   20585481.5264
 96  4 17 15 46 30.0000000  0  9 19 16  3 31 29 28 27  2 18
  20746731.920     -625040.53049   -482958.15649  20746732.7784   20746737.5884
  24547600.243    -1333959.71249  -1025141.35949  24547601.4134   24547607.2314
  23560547.552      749243.39049    577599.29149  23560548.9994   23560552.5984
  21786571.040     -708547.99549   -545301.71649  21786571.5754   21786575.6094
  22986335.368     2009983.26549   1552388.08649  22986337.0024   22986341.6734
  24304730.601     1164135.444 9    902507.916 9  24304731.196    24304735.770
  22362913.614    -1698952.45249  -1312049.87349  22362914.6274   22362919.2824
  23511618.199    -2047638.55949  -1580773.56149  23511618.6264   23511624.0524
  20592588.407      739025.52749    513426.70449  20592589.2814   20592593.7814
 96  4 17 15 47  0.0000000  0  9 19 16  3 31 29 28 27  2 18
  20742392.175     -647846.54249   -500729.08149  20742393.3224   20742398.0304
  24537888.399    -1384991.57649  -1064906.44649  24537890.0014   24537896.2464
  23567797.535      787344.64449    607288.55649  23567798.5944   23567803.5614
  21782535.747     -729752.72449   -561824.88449  21782536.1714   21782540.7254
  23003047.003     2097806.15849   1620821.48149  23003048.6614   23003053.6084
  24315232.698     1219323.769 9    945511.768 9  24315233.290    24315237.691
  22349837.625    -1767666.97849  -1365593.65449  22349838.5204   22349843.0034
  23496134.838    -2129004.42149  -1644175.51949  23496134.9894   23496140.3564
  20599800.695      776926.79449    542960.14749  20599801.4884   20599806.1124
 96  4 17 15 47 30.0000000  0  9 19 16  3 31 29 28 27  2 18
  20738094.996     -670429.43049   -518326.13749  20738095.7674   20738100.5684
  24528277.298    -1435502.09749  -1104265.30649  24528276.6194   24528284.2604
  23575157.164      826013.66149    637420.24149  23575157.6964   23575162.0864
  21778622.205     -750316.81149   -577848.84249  21778622.8694   21778627.9524
  23019809.845     2185896.92049   1689463.60649  23019811.9364   23019816.6764
  24325825.358     1274988.721 9    988887.022 9  24325825.990    24325830.503
  22336777.133    -1836299.13449  -1419073.24849  22336778.1654   22336782.9194
  23480693.293    -2210147.19549  -1707403.63649  23480693.8444   23480700.1984
  20607116.509      815372.94649    572918.17149  20607117.4014   20607122.3464
 96  4 17 15 48  0.0000000  0  9 19 16  3 31 29 28 27  2 18
  20733836.453     -692807.25049   -535763.39849  20733837.4834   20733842.4124
  24518757.037    -1485533.55449  -1143250.85949  24518757.7734   24518763.8894
  23582618.762      865231.34249    667979.45549  23582619.9854   23582625.0664
  21774822.383     -770284.24049   -593407.88249  21774823.5034   21774827.6854
  23036619.616     2274233.88049   1758297.56749  23036620.7184   23036626.7274
  24336503.184     1331099.465 9   1032609.644 9  24336503.541    24336507.727
  22323729.435    -1904865.26349  -1472501.39049  22323730.6214   22323734.9314
  23465288.777    -2291099.97149  -1770483.69849  23465289.4434   23465295.3854
  20614527.873      854318.70549    603265.50049  20614528.4754   20614533.3864
 96  4 17 15 48 30.0000000  0  9 19 16  3 31 29 28 27  2 18
  20729615.566     -714987.45849   -553046.68449  20729616.4884   20729621.2914
  24509322.513    -1535110.41249  -1181882.17849  24509323.6624   24509329.2104
  23590184.274      904983.09449    698954.83149  23590184.4534   23590190.2774
  21771134.112     -789667.97249   -608512.09349  21771134.6294   21771139.2874
  23053477.315     2362818.47949   1827324.49449  23053478.4964   23053483.1014
  24347264.706     1387648.227 9   1076673.580 9  24347264.537    24347268.859
  22310695.432    -1973361.59349  -1525875.15049  22310695.9074   22310701.1214
  23449922.315    -2371852.71549  -1833407.90449  23449922.8434   23449928.5374
  20622031.781      893756.10549    633995.92749  20622033.0234   20622037.8514
 96  4 17 15 49  0.0000000  0  9 19 16  3 31 29 28 27  2 18
  20725430.155     -736984.43149   -570187.18149  20725430.9544   20725435.8104
  24499969.991    -1584259.06249  -1220179.83449  24499971.1744   24499976.3944
  23597845.408      945246.91249    730329.21149  23597846.0724   23597851.7724
  21767553.838     -808482.01949   -623172.38749  21767554.4124   21767558.9324
  23070379.333     2451642.07349   1896537.67149  23070380.9734   23070387.0364
  24358106.675     1444628.880 9   1121074.050 9  24358107.500    24358112.349
  22297671.515    -2041801.39849  -1579204.86449  22297672.4544   22297677.2124
  23434596.832    -2452384.41049  -1896159.86449  23434598.1974   23434604.1214
  20629629.199      933677.12449    665103.19949  20629629.9634   20629635.3364
 96  4 17 15 49 30.0000000  0  9 19 16  3 31 29 28 27  2 18
  20721278.959     -758796.14949   -587183.33249  20721280.2914   20721285.0514
  24490703.814    -1632955.21749  -1258124.88649  24490704.6664   24490710.8894
  23605602.598      986013.38049    762095.26449  23605604.4374   23605608.7024
  21764084.398     -826712.82749   -637378.21949  21764085.2684   21764089.9674
  23087331.106     2540723.25549   1965951.54649  23087332.3044   23087338.2024
  24369035.182     1502053.921 9   1165820.800 9  24369035.344    24369039.629
  22284660.371    -2110174.39349  -1632482.52249  22284661.4294   22284666.0304
  23419321.327    -2532664.16349  -1958715.49649  23419321.6504   23419327.4654
  20637316.404      974073.93149    696581.21749  20637317.4294   20637322.3754
 96  4 17 15 50  0.0000000  0  9 19 16  3 31 29 28 27  2 18
  20717159.957     -780442.32449   -604050.48649  20717161.3944   20717166.0304
  24481523.469    -1681192.17149  -1295712.11149  24481525.7094   24481530.0954
  23613452.419     1027260.47349    794235.83449  23613453.8774   23613458.6884
  21760726.969     -844357.43149   -651127.25749  21760727.8044   21760732.1134
  23104332.816     2630066.97949   2035569.99349  23104334.2114   23104339.1614
  24380045.873     1559922.853 9   1210913.440 9  24380047.400    24380051.986
  22271661.832    -2178482.55449  -1685709.66049  22271663.0504   22271667.8034
  23404095.260    -2612675.12849  -2021061.70249  23404095.8494   23404101.0814
  20645092.216     1014936.73849    728422.35349  20645093.2304   20645097.9304
 96  4 17 15 50 30.0000000  0  9 19 16  3 31 29 28 27  2 18
  20713065.306     -801959.15149   -620816.85549  20713066.3194   20713071.2504
  24472429.739    -1728980.22249  -1332949.56949  24472431.0544   24472438.2214
  23621386.838     1068959.37649    826728.46649  23621388.4294   23621393.1064
  21757477.136     -861435.48549   -664434.83049  21757477.8174   21757482.1494
  23121378.202     2719648.09049   2105373.43649  23121379.3744   23121386.1964
  24391137.472     1618206.221 9   1256329.022 9  24391138.335    24391142.891
  22258670.843    -2246749.50849  -1738904.68449  22258671.9284   22258676.9174
  23388917.077    -2692435.96449  -2083212.97849  23388918.0384   23388923.0964
  20652953.923     1056251.11349    760615.35949  20652955.0844   20652960.0294
 96  4 17 15 51  0.0000000  0  9 19 16  3 31 29 28 27  2 18
  20709010.323     -823266.15149   -637419.70949  20709011.8914   20709016.8754
  24463438.699    -1776231.99049  -1369769.13449  24463439.7604   24463445.4584
  23629423.783     1111193.48549    859638.13749  23629425.8934   23629430.7134
  21754348.387     -877877.36349   -677246.68449  21754349.3624   21754353.2434
  23138484.611     2809535.69049   2175415.69549  23138485.9434   23138489.8424
  24402319.358     1676967.309 9   1302116.841 9  24402320.360    24402324.814
  22245702.718    -2314897.18449  -1792006.76549  22245703.9674   22245708.8124
  23373795.492    -2771900.42549  -2145133.32349  23373796.5604   23373801.7784
  20660914.597     1098083.80749    793212.26049  20660915.6534   20660920.6004
 96  4 17 15 51 30.0000000  0  9 19 16  3 31 29 28 27  2 18
  20705001.108     -844333.98249   -653836.20049  20705002.6434   20705007.7964
  24454554.127    -1822919.38949  -1406148.92149  24454555.1494   24454561.5124
  23637567.789     1153984.87349    892982.06149  23637567.6214   23637573.6124
  21751344.186     -893663.05849   -689547.22549  21751345.3254   21751349.4774
  23155651.477     2899749.41249   2245712.07849  23155653.2244   23155657.1634
  24413594.868     1736215.617 9   1348284.318 9  24413594.919    24413599.880
  22232761.730    -2382902.44649  -1844997.86849  22232763.1684   22232767.9944
  23358728.982    -2851077.38349  -2206829.64049  23358729.3984   23358735.0404
  20668978.237     1140460.00349    826232.66549  20668979.3244   20668984.2534
 96  4 17 15 52  0.0000000  0  9 19 16  3 31 29 28 27  2 18
  20701032.591     -865189.59549   -670087.32649  20701034.2294   20701039.1394
  24445768.734    -1869087.67549  -1442124.20949  24445769.9884   24445776.2154
  23645808.315     1197296.08349    926731.04649  23645810.4214   23645815.8664
  21748456.112     -908837.78449   -701371.68149  21748457.1784   21748461.4674
  23172873.077     2990249.50849   2316231.61849  23172874.6964   23172879.0574
  24424952.847     1795906.970 9   1394797.016 9  24424953.737    24424958.744
  22219841.203    -2450799.22449  -1897904.44849  22219842.7764   22219847.7024
  23343705.394    -2930023.35349  -2268345.96249  23343706.6024   23343711.9914
  20677143.160     1183365.11349    859665.20949  20677144.0964   20677149.1224
 96  4 17 15 52 30.0000000  0  9 19 16  3 31 29 28 27  2 18
  20697105.985     -885825.14449   -686166.96749  20697107.3034   20697112.3224
  24437080.702    -1914744.64349  -1477701.06549  24437081.6304   24437088.2094
  23654148.851     1241121.36349    960880.59149  23654150.1954   23654154.9034
  21745684.580     -923402.15449   -712720.54149  21745685.7464   21745690.0434
  23190146.262     3081018.81249   2386960.91149  23190147.0614   23190152.9484
  24436393.684     1856029.556 9   1441645.745 9  24436394.858    24436399.890
  22206940.680    -2518592.45949  -1950730.34249  22206941.9934   22206946.9694
  23328721.349    -3008766.17549  -2329703.98449  23328722.5424   23328728.2794
  20685408.113     1226800.21749    893510.74049  20685409.5594   20685414.5244
 96  4 17 15 53  0.0000000  0  9 19 16  3 31 29 28 27  2 18
  20693223.259     -906230.35949   -702067.13449  20693224.6274   20693229.3894
  24428488.689    -1959895.85749  -1512883.82649  24428489.8594   24428495.0574
  23662585.688     1285458.05949    995428.65049  23662586.9984   23662592.9714
  21743030.102     -937352.14749   -723590.66449  21743030.6864   21743035.6754
  23207467.501     3172042.90249   2457888.74949  23207468.8024   23207473.1774
  24447918.912     1916591.747 9   1488837.029 9  24447919.195    24447924.288
  22194059.995    -2586282.27149  -2003475.64149  22194060.9024   22194066.1394
  23313777.158    -3087300.10849  -2390899.24849  23313777.3694   23313783.6644
  20693774.796     1270765.82449    927769.64449  20693776.1054   20693780.9774
 96  4 17 15 53 30.0000000  0  9 19 16  3 31 29 28 27  2 18
  20689379.932     -926426.85149   -717804.66249  20689381.2484   20689386.1784
  24419990.556    -2004552.94749  -1547681.55749  24419991.8764   24419997.4904
  23671115.476     1330283.99649   1030357.93149  23671116.5544   23671122.5294
  21740489.155     -950707.72249   -733997.60549  21740489.4914   21740494.2054
  23224834.225     3263306.21549   2529003.00249  23224835.3084   23224839.7234
  24459524.765     1977585.291 9   1536364.424 9  24459525.723    24459531.130
  22181196.613    -2653879.50249  -2056148.80449  22181197.8004   22181202.7044
  23298873.616    -3165617.26549  -2451925.58349  23298874.5674   23298880.4984
  20702236.779     1315233.92049    962420.09449  20702237.9104   20702242.8084
 96  4 17 15 54  0.0000000  0  9 19 16  3 31 29 28 27  2 18
  20685574.711     -946424.45449   -733387.21149  20685575.9704   20685580.9104
  24411585.775    -2048719.54749  -1582097.09249  24411586.6854   24411593.7094
  23679738.930     1375600.55349   1065669.50649  23679740.1394   23679745.6704
  21738060.878     -963466.23749   -743939.29849  21738061.7014   21738066.5254
  23242242.584     3354790.33749   2600289.29349  23242243.7434   23242248.7384
  24471214.888     2039011.865 9   1584229.243 9  24471215.159    24471220.318
  22168351.428    -2721379.33749  -2108746.07249  22168353.1414   22168357.8504
  23284014.823    -3243698.74549  -2512768.28049  23284015.9854   23284022.2354
  20710791.680     1360189.62349    997450.50049  20710793.1594   20710797.7884
 96  4 17 15 54 30.0000000  0  9 19 16  3 31 29 28 27  2 18
  20681804.347     -966235.95349   -748824.74449  20681805.9754   20681810.6454
  24403272.706    -2092405.42649  -1616138.03649  24403274.0984   24403279.6784
  23688455.836     1421404.17149   1101360.62249  23688455.8304   23688462.3124
  21735747.117     -975625.45349   -753414.00349  21735748.2854   21735752.9584
  23259692.109     3446485.52149   2671740.06949  23259694.0364   23259698.9084
  24482985.088     2100867.944 9   1632428.753 9  24482985.589    24482990.955
  22155526.616    -2788776.01049  -2161262.95949  22155527.8554   22155532.8744
  23269204.495    -3321530.84549  -2573416.64849  23269205.1924   23269211.0734
  20719434.239     1405607.27749   1032840.86849  20719435.5704   20719440.4984
 96  4 17 15 55  0.0000000  0  9 19 16  3 31 29 28 27  2 18
  20678069.007     -985865.78249   -764120.71349  20678070.5994   20678075.5024
  24395050.024    -2135615.37549  -1649808.12949  24395051.8064   24395058.3124
  23697262.531     1467688.34149   1137426.18149  23697265.4354   23697269.1044
  21733546.017     -987193.65149   -762428.18449  21733546.7804   21733551.5014
  23277183.451     3538402.28349   2743363.48449  23277185.2044   23277190.3544
  24494836.971     2163144.950 9   1680956.254 9  24494836.322    24494841.904
  22142720.050    -2856075.38249  -2213704.02249  22142721.4534   22142726.0944
  23254442.175    -3399105.08449  -2633864.09549  23254443.5864   23254449.2854
  20728161.457     1451469.57349   1068577.70449  20728162.9334   20728167.7284
 96  4 17 15 55 30.0000000  0  9 19 16  3 31 29 28 27  2 18
  20674370.403    -1005303.07649   -779266.65449  20674371.6114   20674376.6434
  24386918.284    -2178349.13349  -1683107.17349  24386919.0944   24386925.3374
  23706164.260     1514465.17949   1173875.64649  23706166.4414   23706171.2264
  21731459.088     -998160.57649   -770973.84249  21731460.1514   21731464.4114
  23294720.188     3630559.51049   2815174.29449  23294722.0004   23294726.5404
  24506767.196     2225841.296 9   1729810.496 9  24506767.639    24506772.681
  22129932.444    -2923274.31549  -2266066.82549  22129933.8074   22129938.7204
  23239728.730    -3476423.50549  -2694112.19649  23239729.4584   23239735.7164
  20736975.454     1497786.00749   1104668.41549  20736976.6114   20736981.5814
 96  4 17 15 56  0.0000000  0  9 19 16  3 31 29 28 27  2 18
  20670711.462    -1024530.08549   -794248.73949  20670712.9664   20670717.8024
  24378876.544    -2220610.31949  -1716037.96549  24378877.1674   24378883.3534
  23715160.447     1561740.37349   1210713.43149  23715161.9264   23715167.1274
  21729491.368    -1008502.24849   -779032.28449  21729492.1684   21729496.6594
  23312304.998     3722967.10449   2887180.17549  23312306.4014   23312311.6834
  24518776.677     2288959.558 9   1778993.521 9  24518778.476    24518783.013
  22117163.702    -2990373.91749  -2318352.22649  22117165.1534   22117169.8804
  23225063.200    -3553492.20349  -2754165.71449  23225063.9104   23225069.8504
  20745881.019     1544585.47349   1141135.51849  20745882.4414   20745887.2994
 96  4 17 15 56 30.0000000  0  9 19 16  3 31 29 28 27  2 18
  20667093.039    -1043544.22549   -809064.94949  20667094.7194   20667099.5624
  24370924.282    -2262401.10449  -1748602.22049  24370924.6194   24370931.1734
  23724248.420     1609499.09249   1247927.99549  23724250.2034   23724254.9594
  21727640.653    -1018226.37649   -786609.52649  21727641.6824   21727646.1284
  23329938.627     3815635.08849   2959388.95049  23329940.3984   23329945.8054
  24530868.308     2352491.890 9   1828499.221 9  24530868.329    24530873.514
  22104409.695    -3057397.60449  -2370578.47349  22104410.9194   22104415.7614
  23210440.518    -3630333.59449  -2814042.10949  23210441.2284   23210447.3174
  20754879.887     1591875.62049   1177984.96349  20754881.3734   20754886.1874
 96  4 17 15 57  0.0000000  0  9 19 16  3 31 29 28 27  2 18
  20663515.993    -1062344.29149   -823714.35149  20663517.0624   20663521.9154
  24363063.892    -2303707.67849  -1780789.15849  24363063.9384   24363070.8144
  23733430.591     1657748.20849   1285524.68849  23733431.4204   23733436.2304
  21725908.462    -1027327.41449   -793701.24349  21725909.2704   21725914.3044
  23347622.822     3908562.45849   3031799.84849  23347624.6544   23347628.8464
  24543037.249     2416444.135 9   1878332.093 9  24543038.056    24543042.938
  22091667.159    -3124359.57349  -2422756.63249  22091668.5924   22091673.6764
  23195860.192    -3706955.69849  -2873747.62749  23195861.3304   23195866.8424
  20763977.413     1639683.40249   1215237.76949  20763978.7764   20763983.8934
 96  4 17 15 57 30.0000000  0  9 19 16  3 31 29 28 27  2 18
  20659975.348    -1080948.50349   -838211.14249  20659976.7424   20659981.7224
  24355297.051    -2344522.79449  -1812593.15649  24355298.4604   24355303.4564
  23742704.130     1706484.82049   1323501.23849  23742705.8404   23742710.1544
  21724294.567    -1035808.64849   -800309.99849  21724295.6024   21724300.5004
  23365350.275     4001724.48749   3104393.60749  23365351.6874   23365356.8904
  24555286.794     2480813.837 9   1928490.271 9  24555287.703    24555292.349
  22078937.107    -3191256.41449  -2474884.03749  22078938.3124   22078943.0724
  23181321.154    -3783358.50749  -2933282.26749  23181322.3774   23181327.7744
  20773174.509     1688014.88249   1252898.64849  20773176.0274   20773181.0884
 96  4 17 15 58  0.0000000  0  9 19 16  3 31 29 28 27  2 18
  20656466.422    -1099388.34749   -852579.85149  20656467.5414   20656472.7384
  24347622.352    -2384846.36849  -1844014.13049  24347624.8024   24347630.8494
  23752062.278     1755668.96449   1361826.52249  23752064.7534   23752070.0014
  21722794.221    -1043692.64249   -806453.37649  21722795.3194   21722800.3634
  23383117.465     4095091.26249   3177146.90249  23383119.3964   23383124.1324
  24567610.473     2545577.519 9   1978955.456 9  24567611.405    24567616.448
  22066216.530    -3258103.35049  -2526972.55449  22066218.0474   22066223.2194
  23166820.806    -3859558.89749  -2992659.17749  23166821.8794   23166827.2914
  20782466.347     1736842.76649   1290946.33849  20782467.4574   20782472.7794
 96  4 17 15 58 30.0000000  0  9 19 16  3 31 29 28 27  2 18
  20652987.727    -1117667.67649   -866823.48949  20652989.2104   20652994.2714
  24340047.262    -2424660.82149  -1875038.38749  24340047.8774   24340055.5994
  23761509.655     1805300.22849   1400500.21449  23761510.2784   23761514.6584
  21721405.835    -1050987.41049   -812137.61249  21721407.2314   21721412.1204
  23400920.791     4188647.54249   3250047.84649  23400923.7344   23400927.2984
  24580009.054     2610734.615 9   2029727.181 9  24580010.574    24580015.428
  22053507.919    -3324888.86949  -2579013.21749  22053509.3794   22053514.3034
  23152361.776    -3935540.42349  -3051865.54649  23152362.8244   23152368.0684
  20791850.444     1786158.95149   1329374.51949  20791852.3214   20791857.2254
 96  4 17 15 59  0.0000000  0  9 19 16  3 31 29 28 27  2 18
  20649544.476    -1135762.19149   -880923.11249  20649545.9844   20649551.0134
  24332573.026    -2463934.79549  -1905641.48149  24332574.3764   24332580.3894
  23771041.815     1855401.43049   1439540.08749  23771044.4404   23771048.6304
  21720134.463    -1057670.07049   -817344.88249  21720135.3674   21720140.0374
  23418762.792     4282408.68149   3323108.42149  23418764.2994   23418769.8854
  24592487.274     2676303.855 9   2080820.061 9  24592488.081    24592493.016
  22040818.674    -3391569.70049  -2630972.30649  22040820.4324   22040825.0464
  23137953.795    -4011256.72849  -3110865.25249  23137954.9274   23137959.9904
  20801329.879     1835971.16849   1368189.21749  20801331.2714   20801336.0564
 96  4 17 15 59 30.0000000  0  9 19 16  3 31 29 28 27  2 18
  20646141.086    -1153647.18049   -894859.46749  20646142.4504   20646147.4444
  24325204.514    -2502657.39949  -1935814.95849  24325206.7274   24325211.8664
  23780665.356     1905971.04249   1478944.94749  23780666.4914   23780671.2194
  21718981.378    -1063730.90849   -822067.61349  21718982.3664   21718986.8424
  23436648.850     4376397.85449   3396346.70349  23436651.0644   23436655.5574
  24605041.743     2742288.603 9   2132236.714 9  24605044.493    24605049.456
  22028155.233    -3458117.53849  -2682827.76149  22028156.5324   22028161.6954
  23123597.496    -4086697.88649  -3169650.54849  23123598.7774   23123604.3734
  20810899.838     1886261.32349   1407376.33249  20810901.1284   20810905.9894
 96  4 17 16  0  0.0000000  0  9 19 16  3 31 29 28 27  2 18
  20642779.033    -1171315.74949   -908627.18949  20642780.4974   20642785.4994
  24317937.457    -2540842.44149  -1965569.53349  24317939.9324   24317945.1964
  23790377.462     1957008.06549   1518714.02649  23790378.5174   23790383.5094
  21717945.227    -1069175.86349   -826310.43949  21717946.4654   21717950.5594
  23454580.520     4470631.84449   3469775.76049  23454582.2984   23454586.9934
  24617677.724     2808682.105 9   2183971.861 9  24617678.890    24617684.185
  22015515.785    -3524537.63149  -2734583.67649  22015517.2144   22015521.7474
  23109291.279    -4161875.38549  -3228230.41249  23109292.5134   23109298.4454
  20820558.972     1937021.03049   1446929.32849  20820560.3064   20820565.2734
 96  4 17 16  0 30.0000000  0  9 19 16  3 31 29 28 27  2 18
  20639460.776    -1188752.08249   -922213.94649  20639462.4284   20639467.2364
  24310772.779    -2578495.92049  -1994909.91749  24310774.2444   24310779.9714
  23800183.643     2008539.25349   1558868.16449  23800185.1004   23800189.6324
  21717026.318    -1074005.27449   -830073.61249  21717027.4004   21717031.5864
  23472562.062     4565123.00049   3543405.17449  23472563.9004   23472568.2614
  24630390.174     2875488.348 9   2236028.624 9  24630391.887    24630396.731
  22002900.112    -3590833.21849  -2786242.57249  22002901.5654   22002906.1024
  23095036.834    -4236784.74449  -3286601.32949  23095037.7374   23095043.8144
  20830308.691     1988255.57349   1486852.32349  20830310.1264   20830314.9724
 96  4 17 16  1  0.0000000  0  9 19 16  3 31 29 28 27  2 18
  20636185.669    -1205963.49549   -935625.44449  20636187.0914   20636192.0774
  24303706.517    -2615632.21249  -2023847.29549  24303706.9724   24303713.0464
  23810084.056     2060565.76949   1599408.27049  23810084.9464   23810089.9994
  21716224.202    -1078220.05749   -833357.85549  21716225.5324   21716229.5624
  23490596.435     4659890.10949   3617249.65049  23490597.5094   23490602.2844
  24643182.040     2942707.147 9   2288406.883 9  24643183.093    24643188.092
  21990307.180    -3657010.02249  -2837808.91349  21990308.6244   21990313.6354
  23080830.620    -4311438.67549  -3344773.21249  23080831.8454   23080838.0374
  20840148.427     2039963.89749   1527144.51249  20840149.5854   20840154.7214
 96  4 17 16  1 30.0000000  0  9 19 16  3 31 29 28 27  2 18
  20632949.357    -1222971.45849   -948878.41449  20632950.7954   20632955.3334
  24296733.421    -2652273.32649  -2052398.81949  24296734.6894   24296741.4274
  23820077.742     2113083.95849   1640331.49849  23820079.0354   23820084.1704
  21715536.397    -1081835.79949   -836175.31649  21715537.3814   21715541.1734
  23508676.408     4754906.95149   3691288.70349  23508679.2174   23508683.4744
  24656049.341     3010323.100 9   2341094.601 9  24656050.128    24656055.218
  21977731.906    -3723092.86549  -2889302.03849  21977733.4154   21977738.0924
  23066666.838    -4385870.67749  -3402772.15949  23066667.5414   23066673.8034
  20850078.096     2092142.62949   1567803.24649  20850079.4824   20850083.8824
 96  4 17 16  2  0.0000000  0  9 19 16  3 31 29 28 27  2 18
  20629753.523    -1239765.72449   -961964.86449  20629755.0014   20629759.4614
  24289856.942    -2688406.76349  -2080554.75249  24289858.4124   24289865.1884
  23830169.899     2166119.79449   1681658.08349  23830171.8974   23830176.4944
  21714966.493    -1084828.91649   -838507.61549  21714967.6874   21714971.8364
  23526804.170     4850165.32149   3765515.95349  23526806.2524   23526810.4164
  24668994.411     3078351.597 9   2394103.786 9  24668995.535    24669000.514
  21965177.431    -3789069.09249  -2940712.08449  21965178.4314   21965183.2534
  23052549.769    -4460056.35349  -3460579.16849  23052550.8724   23052556.7904
  20860101.894     2144820.07249   1608850.58649  20860103.2604   20860108.3574
 96  4 17 16  2 30.0000000  0  9 19 16  3 31 29 28 27  2 18
  20626598.588    -1256345.33249   -974884.04449  20626599.8074   20626604.5714
  24283079.429    -2724027.62749  -2108311.28049  24283079.9434   24283086.1594
  23840358.115     2219662.53649   1723379.66549  23840360.5714   23840365.4514
  21714517.206    -1087189.35549   -840346.91749  21714518.5764   21714522.4694
  23544973.593     4945642.95449   3839914.07549  23544975.3274   23544978.6114
  24682018.210     3146792.202 9   2447434.083 9  24682019.476    24682024.365
  21952641.861    -3854942.92749  -2992042.34749  21952643.0684   21952647.8374
  23038480.067    -4533993.53349  -3518192.54849  23038480.9024   23038486.8474
  20870219.498     2197988.25949   1650280.32649  20870220.9464   20870225.9364
 96  4 17 16  3  0.0000000  0  9 19 16  3 31 29 28 27  2 18
  20623483.990    -1272711.84649   -987637.17849  20623485.5524   20623490.1584
  24276399.827    -2759126.82049  -2135661.30149  24276401.0504   24276408.0224
  23850641.369     2273696.14449   1765483.74549  23850642.6964   23850648.2904
  21714192.986    -1088894.67249   -841675.73849  21714194.1704   21714198.2024
  23563182.668     5041333.10749   3914477.81049  23563184.1314   23563188.4864
  24695120.535     3215647.982 9   2501087.891 9  24695122.355    24695126.775
  21940127.814    -3920705.13249  -3043285.62749  21940128.9424   21940133.9204
  23024460.150    -4607667.10149  -3575600.51649  23024461.1314   23024467.1034
  20880430.113     2251644.08749   1692090.04449  20880431.3634   20880436.2584
 96  4 17 16  3 30.0000000  0  9 19 16  3 31 29 28 27  2 18
  20620411.367    -1288858.78949  -1000219.21649  20620413.0364   20620417.7474
  24269820.701    -2793703.16749  -2162603.91949  24269821.7484   24269827.5824
  23861013.953     2328205.81949   1807958.78149  23861015.5014   23861020.5494
  21713993.254    -1089944.93849   -842494.13049  21713994.1254   21713998.4554
  23581428.135     5137212.09949   3989188.69049  23581429.1984   23581433.3624
  24708299.295     3284902.705 9   2555052.581 9  24708301.041    24708306.108
  21927631.629    -3986369.24449  -3094452.46249  21927633.6974   21927638.4364
  23010490.163    -4681081.57149  -3632806.58949  23010491.0274   23010496.8774
  20890728.259     2305761.76949   1734259.64949  20890729.5194   20890734.4874
 96  4 17 16  4  0.0000000  0  9 19 16  3 31 29 28 27  2 18
  20617382.120    -1304779.10149  -1012624.66249  20617383.6274   20617388.0374
  24263340.627    -2827755.60349  -2189138.29249  24263342.6824   24263347.6544
  23871474.386     2383170.44249   1850788.32549  23871475.3404   23871481.4304
  21713917.847    -1090340.75549   -842802.56849  21713918.5704   21713922.9534
  23599710.654     5233292.43549   4064056.43149  23599712.5864   23599717.1364
  24721553.853     3354550.513 9   2609323.555 9  24721554.622    24721559.607
  21915152.892    -4051946.84449  -3145551.89349  21915154.7954   21915159.5614
  22996570.089    -4754231.55349  -3689806.56149  22996571.1824   22996576.8254
  20901112.826     2360331.51549   1776781.51249  20901113.7964   20901118.8914
 96  4 17 16  4 30.0000000  0  9 19 16  3 31 29 28 27  2 18
  20614398.516    -1320458.00549  -1024841.99349  20614399.7944   20614404.6954
  24256963.808    -2861260.39749  -2215245.93149  24256966.3984   24256972.0094
  23882020.116     2438593.14649   1893974.81349  23882021.9514   23882027.8384
  21713967.344    -1090080.67249   -842599.90949  21713968.3224   21713972.7654
  23618039.314     5329605.28049   4139105.34849  23618041.5824   23618045.3094
  24734885.574     3424605.700 9   2663911.959 9  24734885.861    24734890.785
  21902693.545    -4117421.98149  -3196571.48249  21902695.1084   21902700.2934
  22982701.812    -4827109.73449  -3746594.74949  22982702.7664   22982708.2884
  20911585.307     2415366.69849   1819666.05249  20911586.6514   20911592.0274
 96  4 17 16  5  0.0000000  0  9 19 16  3 31 29 28 27  2 18
  20611461.754    -1335890.04449  -1036866.95849  20611463.2984   20611468.2014
  24250692.490    -2894224.86349  -2240932.54249  24250693.1274   24250698.7174
  23892656.174     2494481.48049   1937524.12149  23892657.2714   23892662.2864
  21714139.211    -1089176.52449   -841895.38449  21714140.1234   21714144.7784
  23636413.966     5426165.18449   4214346.81549  23636416.0304   23636419.3734
  24748292.479     3495062.664 9   2718813.456 9  24748293.998    24748298.281
  21890256.597    -4182780.14049  -3247499.91449  21890257.8004   21890262.7714
  22968885.679    -4899715.88849  -3803170.96549  22968886.5384   22968892.1934
  20922149.103     2470878.61249   1862922.07349  20922150.6414   20922155.6854
 96  4 17 16  5 30.0000000  0  9 19 16  3 31 29 28 27  2 18
  20608573.239    -1351069.76649  -1048695.32049  20608574.6434   20608579.2694
  24244520.352    -2926653.48849  -2266201.61349  24244521.8114   24244527.7144
  23903380.549     2550842.73049   1981441.95249  23903382.8284   23903387.7924
  21714431.312    -1087641.56749   -840699.32149  21714432.5574   21714436.4854
  23654836.893     5522980.54349   4289787.30249  23654838.5104   23654842.8934
  24761775.466     3565919.622 9   2774026.632 9  24761776.956    24761782.031
  21877844.032    -4248008.59749  -3298327.28449  21877845.3504   21877850.3924
  22955119.036    -4972059.07349  -3859542.27149  22955119.9994   22955125.3434
  20932806.758     2526884.24849   1906562.80949  20932808.0654   20932813.2574
 96  4 17 16  6  0.0000000  0  9 19 16  3 31 29 28 27  2 18
  20605731.415    -1366004.23349  -1060332.56449  20605732.8104   20605737.6984
  24238452.672    -2958547.65049  -2291054.22549  24238452.6154   24238459.5984
  23914195.349     2607673.73049   2025725.81949  23914197.7274   23914202.2084
  21714842.724    -1085481.20749   -839015.93149  21714843.4914   21714848.0724
  23673309.198     5620051.20649   4365426.72449  23673311.5194   23673314.7114
  24775336.644     3637182.369 9   2829555.996 9  24775338.034    24775343.064
  21865460.734    -4313081.54949  -3349033.47649  21865462.3214   21865467.4084
  22941403.823    -5044133.01549  -3915703.77249  22941404.8464   22941410.5444
  20943562.583     2583406.78749   1950606.33449  20943563.5144   20943568.9544
 96  4 17 16  6 30.0000000  0  9 19 16  3 31 29 28 27  2 18
  20602929.391    -1380727.70049  -1071805.39349  20602930.8784   20602935.9884
  24232478.931    -2989937.28649  -2315513.68049  24232479.0164   24232485.8764
  23925094.217     2664950.56249   2070357.08449  23925096.2074   23925101.3664
  21715367.688    -1082721.23349   -836865.30549  21715368.7394   21715373.3614
  23691822.286     5717336.16049   4441233.15349  23691824.0634   23691827.4324
  24788969.967     3708823.547 9   2885380.238 9  24788970.767    24788975.835
  21853105.159    -4378010.06849  -3399627.12649  21853106.5854   21853111.7584
  22927737.274    -5115950.49049  -3971665.43449  22927738.7694   22927743.9544
  20954412.687     2640423.21949   1995034.70549  20954414.1504   20954418.6944
 96  4 17 16  7  0.0000000  0  9 19 16  3 31 29 28 27  2 18
  20600175.557    -1395199.66249  -1083082.24849  20600177.1564   20600181.8704
  24226608.573    -3020786.63849  -2339552.15549  24226609.1414   24226614.7924
  23936087.623     2722714.05149   2115367.57549  23936088.1204   23936093.7614
  21716016.051    -1079317.12049   -834212.75549  21716016.9144   21716021.2764
  23710379.420     5814857.05949   4517223.40749  23710381.2304   23710386.3934
  24802679.904     3780874.303 9   2941523.644 9  24802682.039    24802686.499
  21840782.674    -4442766.76149  -3450086.89049  21840783.9984   21840789.0944
  22914130.177    -5187455.88449  -4027383.91649  22914131.5624   22914136.8654
  20965362.596     2697967.13549   2039874.10049  20965363.9004   20965369.1594
 96  4 17 16  7 30.0000000  0  8 19 16  3 31 29 27  2 18
  20597466.184    -1409438.47549  -1094177.42449  20597467.3514   20597472.2614
  24220842.441    -3051085.90049  -2363161.96749  24220843.4884   24220848.4094
  23947168.826     2780952.66949   2160748.28849  23947171.6484   23947176.4264
  21716785.408    -1075271.78249   -831060.54749  21716786.1434   21716791.2574
  23728976.116     5912583.04149   4593373.46849  23728977.9604   23728982.6954
  21828488.004    -4507373.64449  -3500429.91149  21828489.6464   21828494.5494
  22900582.033    -5258653.53549  -4082862.59249  22900583.0684   22900588.8934
  20976410.200     2756023.42549   2085112.74649  20976411.8174   20976416.9004
 96  4 17 16  8  0.0000000  0  8 19 16  3 31 29 27  2 18
  20594800.502    -1423445.30449  -1105091.84349  20594802.0444   20594806.9504
  24215183.520    -3080825.54949  -2386335.72749  24215185.1374   24215189.3514
  23958341.564     2839662.59149   2206496.24849  23958343.3154   23958347.5444
  21717677.133    -1070585.90249   -827409.20949  21717678.1394   21717682.6864
  23747609.680     6010501.28449   4669673.33849  23747611.6954   23747615.8434
  21816218.234    -4571853.05249  -3550673.60749  21816219.5884   21816224.3564
  22887091.226      -40152.81319    -15215.53359                  22887097.9484
  20987552.576     2814575.15649   2130737.45349  20987554.0884   20987559.1314
 96  4 17 16  8 30.0000000  0  8 19 16  3 31 29 27  2 18
  20592180.685    -1437212.57449  -1115819.58649  20592182.3124   20592187.0594
  24209628.610    -3110013.24049  -2409079.39449  24209630.0254   24209635.3184
  23969606.473     2898859.29249   2252623.52649  23969607.9954   23969612.4894
  21718692.366    -1065250.68149   -823251.89549  21718693.4014   21718698.1004
  23766279.256     6108607.44549   4746119.64349  23766280.0694   23766283.6834
  21803969.379    -4636222.03249  -3600831.24849  21803970.6784   21803975.7914
  22873657.663     -110744.66159    -70222.15949  22873659.7624   22873664.9364
  20998786.278     2873610.03949   2176738.64349  20998787.6664   20998792.8404
 96  4 17 16  9  0.0000000  0  8 19 16  3 31 29 27  2 18
  20589605.246    -1450746.49749  -1126365.50649  20589606.6984   20589611.7944
  24204177.123    -3138659.66349  -2431401.28649  24204178.7194   24204185.3484
  23980964.291     2958544.76349   2299131.65249  23980965.6524   23980970.2314
  21719829.129    -1059276.17149   -818596.43449  21719830.2344   21719834.7834
  23784981.000     6206888.65349   4822702.35449  23784982.8274   23784986.9094
  21791739.107    -4700491.81949  -3650911.59849  21791740.7694   21791745.3284
  22860274.866     -181074.27749   -125024.44449  22860276.4604   22860281.7244
  21010110.422     2933117.02849   2223107.70749  21010111.5074   21010116.7314
 96  4 17 16  9 30.0000000  0  8 19 16  3 31 29 27  2 18
  20587075.571    -1464040.73749  -1136724.65949  20587077.0064   20587081.9104
  24198829.655    -3166762.46849  -2453299.58449  24198831.1084   24198836.6934
  23992416.185     3018726.34549   2346026.35849  23992416.9064   23992422.6054
  21721089.904    -1052651.09649   -813434.04449  21721091.0424   21721095.3484
  23803720.046     6305364.43949   4899436.69749  23803722.4454   23803725.8724
  21779531.696    -4764642.09449  -3700898.83149  21779533.4774   21779538.2884
  22846939.392     -251154.10859   -179632.09259  22846940.4934   22846946.0614
  21021523.965     2993097.73649   2269845.89949  21021525.5174   21021530.7314
 96  4 17 16 10  0.0000000  0  8 19 16  3 31 29 27  2 18
  20584595.803    -1477071.74549  -1146878.69449  20584597.4574   20584602.0504
  24193584.716    -3194327.56949  -2474778.88949  24193585.4644   24193592.5004
  24003965.213     3079415.57049   2393316.64049  24003966.6644   24003970.7304
  21722478.085    -1045357.97349   -807751.08849  21722479.0434   21722483.2194
  23822502.701     6404065.37849   4976346.49049  23822504.4584   23822508.8924
  21767352.166    -4828646.24449  -3750772.18949  21767353.5684   21767358.4314
  22833655.993     -320959.58549   -234025.95649  22833657.0954   22833662.6104
  21033030.096     3053561.32549   2316960.37049  21033031.3544   21033036.5014
 96  4 17 16 10 30.0000000  0  8 19 16  3 31 29 27  2 18
  20582161.358    -1489865.98249  -1156848.23449  20582163.0134   20582167.4364
  24188436.613    -3221377.68349  -2495856.90549  24188437.4274   24188444.2694
  24015605.297     3140586.13349   2440981.97949  24015606.9204   24015611.7794
  21723987.873    -1037419.82149   -801565.52049  21723989.0814   21723993.4704
  23841323.965     6502972.55349   5053416.95749  23841326.0944   23841330.3424
  21755198.630    -4892513.22149  -3800538.66449  21755200.1294   21755205.0824
  22820421.100      -38407.82519    -14922.38559                  22820428.1384
  21044624.884     3114493.02249   2364439.59849  21044626.5754   21044631.4724
 96  4 17 16 11  0.0000000  0  8 19 16  3 31 29 27  2 18
  20579771.879    -1502421.55649  -1166631.80649  20579773.3074   20579778.2024
  24183391.410    -3247893.31149  -2516518.44849  24183392.6334   24183398.2304
  24027332.182     3202211.08249   2489001.38349  24027332.8644   24027339.6804
  21725620.777    -1028842.05549   -794881.55449  21725621.6224   21725626.2194
  23860187.448     6602100.96349   5130659.81049  23860189.4284   23860194.1884
  21743073.140    -4956235.17249  -3850192.13149  21743074.5224   21743079.6394
  22807237.742     -107687.52759    -68906.55049  22807238.9244   22807244.5914
  21056309.759     3175897.63149   2412287.32849  21056311.2734   21056316.7594
 96  4 17 16 11 30.0000000  0  8 19 16  3 31 29 27  2 18
  20577430.845    -1514724.18649  -1176218.27849  20577432.4744   20577436.9664
  24178450.150    -3273858.50849  -2536751.08149  24178451.7484   24178457.8474
  24039146.008     3264290.04149   2537374.55349  24039148.1644   24039152.7234
  21727377.478    -1019608.34349   -787686.46649  21727378.7244   21727382.8374
  23879099.467     6701480.60949   5208098.42949  23879100.8214   23879104.9124
  21730978.550    -5019792.06549  -3899716.97949  21730979.8534   21730984.7684
  22794112.048     -176669.43249   -122658.66849  22794111.9094   22794117.6864
  21068087.069     3237788.34549   2460513.83749  21068088.4074   21068093.6774
 96  4 17 16 12  0.0000000  0  8 19 16  3 31 29 27  2 18
  20575140.151    -1526761.93849  -1185598.35349  20575141.7334   20575146.4144
  24173615.615    -3299262.55249  -2556546.44749  24173616.8994   24173623.1384
  24051043.170     3326810.51349   2586091.76649  24051045.5334   24051049.8144
  21729259.051    -1009720.61349   -779981.74649  21729260.3004   21729264.9504
  23898059.056     6801114.88349   5285735.49249  23898060.4224   23898065.1184
  21718914.853    -5083186.89649  -3949115.54249  21718916.1124   21718920.9794
  22781043.152     -245345.47859   -176172.45759  22781043.5114   22781048.7524
  21079959.824     3300180.91449   2509131.40549  21079961.6614   21079966.9824
 96  4 17 16 12 30.0000000  0  8 19 16  3 31 29 27  2 18
  20572901.184    -1538527.18449  -1194766.08449  20572902.9354   20572907.6034
  24168891.455    -3324091.01849  -2575893.31449  24168892.0784   24168898.2424
  24063025.488     3389777.92549   2635157.24249  24063026.1974   24063032.0494
  21731266.260     -999173.73349   -771763.40949  21731267.5444   21731271.7214
  23917065.727     6900999.22749   5363567.42249  23917067.6954   23917071.2484
  21706883.374    -5146411.11349  -3998381.16949  21706885.0924   21706889.9834
  22768029.194     -313731.47049   -229460.23449  22768030.1274   22768035.4294
  21091930.169     3363082.98149   2558145.98249  21091931.3154   21091936.6864
 96  4 17 16 13  0.0000000  0  8 19 16  3 31 29 27  2 18
  20570713.935    -1550022.27949  -1203723.30649  20570715.3874   20570719.7424
  24164273.352    -3348363.55549  -2594806.99049  24164273.0474   24164278.7694
  24075090.954     3453188.87949   2684568.28849  24075092.6404   24075098.4904
  21733396.947     -987978.05049   -763039.51049  21733397.9584   21733402.5934
  23936118.355     7001120.59249   5441584.03349  23936121.2534   23936122.7694
  21694884.165    -5209466.96249  -4047515.59249  21694885.8124   21694890.8234
  22755070.335     -381828.47249   -282522.82249  22755071.8184   22755077.0664
  21103993.988     3426480.43549   2607546.58149  21103995.7454   21104000.8194
 96  4 17 16 13 30.0000000  0  8 19 16  3 31 29 27  2 18
  20568574.013    -1561267.79549  -1212486.05049  20568575.5174   20568580.2214
  24159755.829    -3372098.46749  -2613301.74549  24159756.3464   24159762.9004
  24087242.770     3517039.75549   2734322.24349  24087244.5694   24087249.2874
  21735648.463     -976146.12749   -753819.83949  21735649.3634   21735653.6584
  23955212.266     7101458.11449   5519769.06449  23955213.5314   23955217.8064
  21682914.954    -5272368.97749  -4096530.14749  21682916.0764   21682920.8304
  22742163.332     -449655.63949   -335375.14949  22742164.7064   22742169.9624
  21116147.750     3490347.78349   2657313.32249  21116149.1764   21116154.2514
 96  4 17 16 14  0.0000000  0  8 19 16  3 31 29 27  2 18
  20566480.296    -1572271.08949  -1221060.04649  20566481.6484   20566486.4274
  24155342.439    -3395289.23449  -2631372.47149  24155343.6754   24155349.6674
  24099477.095     3581333.71449   2784421.38149  24099478.6944   24099483.5434
  21738022.161     -963670.97149   -744098.94449  21738023.2994   21738027.5534
  23974343.180     7201988.28849   5598104.19849  23974345.2274   23974348.1034
  21670972.293    -5335126.69149  -4145432.25649  21670973.6624   21670978.2604
  22729308.514     -517209.87249   -388014.80349  22729309.3994   22729314.9404
  21128390.607     3554683.50749   2707445.03849  21128391.7414   21128396.5244
 96  4 17 16 14 30.0000000  0  8 19 16  3 31 29 27  2 18
  20564429.664    -1583047.27849  -1229457.08149  20564430.9434   20564435.4224
  24151034.040    -3417934.93449  -2649018.49349  24151034.2524   24151040.9124
  24111799.778     3646092.41449   2834882.65049  24111801.2324   24111806.7684
  21740519.109     -950549.92049   -733874.75549  21740520.3454   21740524.8924
  23993507.796     7302699.27749   5676580.27149  23993509.1764   23993512.0104
  21659058.583    -5397733.22049  -4194216.56349  21659059.9764   21659065.0064
  22716507.496     -584479.88149   -440432.97849  22716508.2144   22716513.8194
  21140719.799     3619475.40649   2757932.21849  21140721.4774   21140726.1544
 96  4 17 16 15  0.0000000  0  8 19 16  3 31 29 27  2 18
  20562420.314    -1593605.99249  -1237684.65949  20562421.6944   20562426.2144
  24146829.894    -3440030.30949  -2666235.68149  24146830.6204   24146836.1674
  24124210.281     3711303.07549   2885696.11149  24124210.9234   24124216.4624
  21743138.904     -936783.72549   -723147.85549  21743139.8454   21743144.3894
  24012709.166     7403601.68149   5755205.45649  24012708.5524   24012713.2604
  21647170.308    -5460206.75849  -4242897.24549  21647171.7354   21647176.5114
  22703760.715     -651462.94849   -492627.56749  22703761.8454   22703767.2724
  21153134.073     3684713.54749   2808767.11949  21153135.5604   21153140.4594
 96  4 17 16 15 30.0000000  0  8 19 16  3 31 29 27  2 18
  20560455.002    -1603934.33749  -1245732.72049  20560456.4684   20560461.0454
  24142732.963    -3461553.94049  -2683007.35149  24142734.0044   24142740.8204
  24136706.653     3776973.00749   2936867.45349  24136708.6434   24136712.1794
  21745884.333     -922356.13349   -711905.58449  21745885.2604   21745889.4404
  24031948.411     7504706.35749   5833988.27449  24031950.4684   24031951.9404
  21635307.383    -5522547.08649  -4291474.11949  21635308.6044   21635313.2174
  22691066.886     -718171.24249   -544608.04749  22691067.6294   22691073.3464
  21165634.069     3750400.73849   2859951.93049  21165635.5474   21165640.2894
 96  4 17 16 16  0.0000000  0  8 19 16  3 31 29 27  2 18
  20558537.013    -1614013.12149  -1253586.32149  20558538.4674   20558543.1404
  24138745.760    -3482504.26849  -2699332.28649  24138747.5604   24138753.5494
  24149293.481     3843120.37849   2988410.80249  24149294.6754   24149298.9434
  21748754.497     -907273.72349   -700153.06149  21748755.2224   21748759.5214
  24051225.639     7606004.96749   5912922.20949  24051228.1984   24051232.0214
  21623471.136    -5584747.40149  -4339941.89749  21623472.6774   21623477.1644
  22678427.681     -784590.42349   -596363.24749  22678428.7404   22678434.4134
  21178222.430     3816552.79949   2911498.97749  21178223.7594   21178229.0654
 96  4 17 16 16 30.0000000  0  8 19 16  3 31 29 27  2 18
  20556657.646    -1623888.46249  -1261281.39149  20556659.3774   20556663.7564
  24134854.785    -3502949.58049  -2715263.71649  24134856.3564   24134863.8114
  24161957.847     3909671.80249   3040269.08949  24161959.8874   24161963.4394
  21751733.558     -891616.75349   -687952.82249  21751735.1144   21751739.1864
  24070526.973     7707442.86349   5991964.68549  24070530.3504   24070532.6444
  21611650.056    -5646866.66849  -4388346.52249  21611651.5424   21611656.1514
  22665831.180     -850784.49049   -647943.02949  22665832.2724   22665838.0504
  21190885.662     3883096.64549   2963351.30649  21190886.7884   21190891.8144
 96  4 17 16 17  0.0000000  0  8 19 16  3 31 29 27  2 18
  20554832.995    -1633476.85549  -1268752.87049  20554834.7284   20554839.3474
  24131074.891    -3522824.14549  -2730750.39749  24131075.1104   24131080.9214
  24174711.291     3976689.28849   3092490.43049  24174713.6844   24174717.2264
  21754834.414     -875322.97649   -675256.38149  21754835.4644   21754839.4494
  24089871.031     7809090.99749   6071170.96249  24089872.2804   24089875.8324
  21599858.061    -5708833.28649  -4436632.20149  21599859.9454   21599864.5094
  22653290.365     -916686.04049   -699294.88049  22653291.4914   22653297.5434
  21203637.494     3950111.00149   3015570.26349  21203638.9864   21203644.0514
 96  4 17 16 17 30.0000000  0  8 19 16  3 31 29 27  2 18
  20553064.621    -1642770.72149  -1275994.84949  20553066.2734   20553070.8894
  24127398.422    -3542140.04049  -2745801.75449  24127399.5544   24127405.4124
  24187555.226     4044185.03849   3145084.49549  24187556.8284   24187561.4834
  21758054.926     -858399.38349   -662069.17249  21758055.9884   21758060.0944
  24109251.196     7910932.18349   6150527.67449  24109252.4644   24109255.8914
  21588098.634    -5770631.32149  -4484786.51249  21588099.7054   21588104.3214
  22640808.993     -982276.32849   -750404.17949  22640810.3404   22640815.9154
  21216482.253     4017607.88949   3068165.22649  21216483.5444   21216488.7804
 96  4 17 16 18  0.0000000  0  8 19 16  3 31 29 27  2 18
  20551352.193    -1651770.59849  -1283007.74549  20551353.6464   20551358.1024
  24123825.861    -3560915.59849  -2760432.06649  24123826.4114   24123832.7464
  24200487.795     4112148.41749   3198042.92249  24200488.7044   24200493.9184
  21761395.745     -840843.67149   -648389.40249  21761396.8454   21761400.8634
  24128665.160     8012958.55249   6230028.68649  24128667.8154   24128670.7544
  21576371.479    -5832256.78449  -4532806.35549  21576373.0014   21576377.8104
  22628390.977    -1047532.90749   -801253.45349  22628392.0294   22628397.9434
  21229418.038     4085587.58149   3121136.39649  21229419.6794   21229424.8064
 96  4 17 16 18 30.0000000  0  8 19 16  3 31 29 27  2 18
  20549694.567    -1660480.36249  -1289794.57349  20549695.9664   20549700.6874
  24120355.034    -3579153.93349  -2774643.76749  24120355.9794   24120362.5704
  24213507.113     4180569.03249   3251357.64449  24213509.5824   24213513.8594
  21764860.982     -822632.69549   -634199.04049  21764862.1594   21764866.2504
  24148118.039     8115181.43649   6309682.81749  24148119.4264   24148124.1274
  21564678.254    -5893706.01249  -4580688.87149  21564679.5654   21564684.4964
  22616037.230    -1112453.15749   -851840.65249  22616038.0994   22616044.0374
  21242445.385     4154044.47949   3174479.41349  21242446.5154   21242451.7704
 96  4 17 16 19  0.0000000  0  8 19 16  3 31 29 27  2 18
  20548090.631    -1668907.55649  -1296361.22249  20548092.3814   20548097.0084
  24116984.209    -3596863.13249  -2788443.15549  24116986.7344   24116991.9194
  24226615.176     4249445.47349   3305027.56149  24226616.4554   24226622.3184
  21768454.134     -803750.99549   -619486.03749  21768455.1014   21768459.3764
  24167606.948     8217596.53849   6389486.73149  24167608.4374   24167613.0684
  21553019.146    -5954975.67549  -4628431.47349  21553020.4114   21553025.3574
  22603745.928    -1177044.84149   -902171.82649  22603747.1874   22603752.6684
  21255564.111     4222983.51849   3228198.12149  21255565.3234   21255570.5784
 96  4 17 16 19 30.0000000  0  8 19 16  3 31 29 27  2 18
  20546538.268    -1677066.10749  -1302718.54249  20546539.3574   20546544.5334
  24113712.837    -3614056.67049  -2801840.71549  24113713.7884   24113719.9604
  24239801.492     4318745.92149   3359027.86849  24239803.3404   24239809.5964
  21772174.059     -784200.26649   -604251.70849  21772175.6604   21772179.6374
  24187127.755     8320177.69549   6469420.05549  24187128.9354   24187134.0814
  21541389.803    -6016086.10449  -4676049.99549  21541391.4544   21541396.0964
  22591512.503    -1241332.11949   -952265.80149  22591513.5634   22591518.9854
  21268769.781     4292380.82949   3282273.92749  21268771.2134   21268776.7484
 96  4 17 16 20  0.0000000  0  8 19 16  3 31 29 27  2 18
  20545033.339    -1684976.51949  -1308882.50849  20545034.6014   20545039.2054
  24110537.077    -3630743.64249  -2814843.55749  24110538.5884   24110545.2484
  24253065.473     4388441.35149   3413335.96049  24253066.6084   24253071.8344
  21776019.667     -763994.84249   -588507.23549  21776020.6334   21776024.6934
  24206675.305     8422900.36549   6549463.62549  24206676.1484   24206680.8954
  21529787.545    -6077056.99049  -4723559.77549  21529788.9304   21529793.8984
  22579329.850    -1305350.81249  -1002150.49049  22579330.9964   22579336.4254
  21282058.438     4362212.98549   3336688.57649  21282059.7764   21282065.1364
 96  4 17 16 20 30.0000000  0  8 19 16  3 31 29 27  2 18
  20543574.672    -1692641.28249  -1314855.05849  20543575.9964   20543580.7224
  24107462.619    -3646900.52149  -2827433.35049  24107464.5344   24107470.3814
  24266400.518     4458522.27249   3467944.42449  24266402.2324   24266408.2354
  21779988.930     -743134.58449   -572252.50049  21779990.3084   21779994.4464
  24226249.999     8525767.29649   6629619.62649  24226251.7924   24226255.7394
  21518211.878    -6137886.76449  -4770959.59849  21518213.2214   21518218.3294
  22567195.364    -1369118.43449  -1051839.53949  22567196.5084   22567201.9324
  21295430.649     4432485.46549   3391446.33649  21295432.2384   21295437.8114
 96  4 17 16 21  0.0000000  0  8 19 16  3 31 29 27  2 18
  20542162.621    -1700060.32749  -1320636.14149  20542164.1824   20542168.8784
  24104490.982    -3662518.17749  -2839602.96049  24104491.5884   24104498.3584
  24279806.452     4528972.59449   3522840.72549  24279808.7134   24279814.4274
  21784079.628     -721637.18149   -555501.28749  21784080.8294   21784085.2804
  24245848.608     8628762.81249   6709875.78749  24245851.5534   24245855.6294
  21506663.640    -6198574.16849  -4818248.48749  21506665.0324   21506669.6934
  22555104.794    -1432654.90549  -1101348.46949  22555106.2274   22555111.3854
  21308887.486     4503201.68749   3446549.86549  21308889.1744   21308894.7024
 96  4 17 16 21 30.0000000  0  8 19 16  3 31 29 27  2 18
  20540801.521    -1707213.64449  -1326210.16049  20540803.0534   20540807.6974
  24101628.523    -3677560.66849  -2851324.39749  24101629.0034   24101635.7114
  24293286.409     4599809.85949   3578038.54549  24293289.1694   24293294.7174
  21788291.715     -699504.20049   -538254.81649  21788293.0754   21788297.0574
  24265474.871     8731898.48849   6790241.17549  24265478.0674   24265480.8054
  21495146.757    -6259094.93449  -4865407.52649  21495148.1434   21495152.8734
  22543061.976    -1495941.37549  -1150662.59149  22543062.8454   22543068.2624
  21322431.686     4574377.31649   3502011.37449  21322433.2894   21322438.8914
 96  4 17 16 22  0.0000000  0  8 19 16  3 31 29 27  2 18
  20539486.330    -1714123.62349  -1331594.56649  20539488.0934   20539492.7244
  24098871.651    -3692044.93049  -2862610.84849  24098873.5184   24098878.8984
  24306839.181     4671027.12949   3633532.48149  24306840.7094   24306846.8744
  21792619.805     -676758.66649   -520531.03449  21792621.0474   21792624.9254
  24285128.913     8835177.20549   6870718.01549  24285129.8114   24285135.6334
  21483660.585    -6319454.09849  -4912440.63949  21483662.1894   21483666.9534
  22531066.944    -1558974.62649  -1199779.40149  22531068.2124   22531073.5784
  21336060.626     4645996.85149   3557818.78649  21336062.0144   21336067.6424
 96  4 17 16 22 30.0000000  0  8 19 16  3 31 29 27  2 18
  20538215.233    -1720804.59049  -1336800.51949  20538216.6444   20538221.4124
  24096220.591    -3705979.16649  -2873468.71249  24096221.4874   24096227.8004
  24320463.188     4742621.10949   3689319.93749  24320464.6634   24320470.3624
  21797062.335     -653412.64049   -502339.33049  21797063.8884   21797068.0044
  24304809.968     8938606.34149   6951312.08549  24304812.3864   24304815.9444
  21472205.950    -6379648.71249  -4959345.53149  21472207.5134   21472212.5124
  22519121.877    -1621746.00249  -1248692.15249  22519122.9674   22519128.1904
  21349772.415     4718054.17349   3613967.32849  21349774.2534   21349779.6494
 96  4 17 16 23  0.0000000  0  8 19 16  3 31 29 27  2 18
  20536987.970    -1727254.05849  -1341826.08249  20536989.5704   20536994.0314
  24093674.760    -3719361.09849  -2883896.19849  24093675.9414   24093681.5224
  24334165.184     4814626.75749   3745428.18349  24334166.6954   24334172.4924
  21801618.665     -629471.59649   -483683.98249  21801619.5034   21801623.7514
  24324522.842     9042196.39949   7032031.50949  24324524.7974   24324528.2504
  21460786.196    -6439662.49749  -5006109.51949  21460787.5874   21460792.4094
  22507233.213    -1684221.17249  -1297374.09349  22507234.1444   22507239.7734
  21363569.396     4790557.85749   3670463.68649  21363570.9154   21363576.4974
 96  4 17 16 23 30.0000000  0  8 19 16  3 31 29 27  2 18
  20535801.107    -1733490.21849  -1346685.43349  20535802.7614   20535807.1994
  24091231.219    -3732197.91349  -2893898.91949  24091232.8424   24091238.8214
  24347948.576     4887049.34749   3801861.32349  24347948.3714   24347955.1874
  21806288.385     -604932.05549   -464562.26849  21806289.4294   21806293.3334
  24344268.406     9145960.13149   7112886.31549  24344271.2934   24344274.1204
  21449396.938    -6499509.58049  -5052743.60549  21449398.8014   21449403.8444
  22495403.629    -1746387.42149  -1345815.31649  22495404.3964   22495410.0874
  21377448.441     4863491.59949   3727295.15549  21377449.9394   21377455.4364
 96  4 17 16 24  0.0000000  0  8 19 16  3 31 29 27  2 18
  20534655.538    -1739510.44849  -1351376.52249  20534657.1754   20534661.6034
  24088890.644    -3744494.44049  -2903480.64349  24088893.0184   24088898.9034
  24361808.031     4959891.81549   3858621.63649  24361810.2344   24361815.4404
  21811074.298     -579780.51349   -444963.67449  21811075.4914   21811079.4734
  24364048.357     9249904.20349   7193881.67149  24364050.6464   24364054.6654
  21438039.362    -6559197.46749  -5099253.64649  21438040.7654   21438045.3494
  22483634.507    -1808233.57349  -1394007.11749  22483635.9314   22483641.1034
  21391409.665     4936857.47449   3784463.34849  21391410.9424   21391416.5694
 96  4 17 16 24 30.0000000  0  8 19 16  3 31 29 27  2 18
  20533553.954    -1745300.05949  -1355887.91649  20533555.3924   20533560.2814
  24086656.949    -3756239.96649  -2912633.00749  24086657.2004   24086663.8724
  24375748.313     5033149.21349   3915705.28349  24375750.5674   24375756.6914
  21815975.581     -554024.75149   -424894.25749  21815976.5614   21815980.9194
  24383857.803     9354001.69649   7274996.50949  24383860.0164   24383861.2174
  21426707.858    -6618744.14649  -5145653.65249  21426709.3184   21426713.9884
  22471923.081    -1869777.60649  -1441963.49649  22471923.9504   22471929.4654
  21405450.622     5010643.81949   3841959.17749  21405452.0984   21405457.5184
 96  4 17 16 25  0.0000000  0  8 19 16  3 31 29 27  2 18
  20532503.684    -1750818.52849  -1360188.02749  20532505.4404   20532509.8904
  24084528.385    -3767427.36749  -2921350.48049  24084529.2374   24084534.9034
  24389769.600     5106829.83149   3973118.70049  24389771.1454   24389776.8004
  21820995.242     -527644.84949   -404338.49449  21820996.6494   21821000.6594
  24403696.826     9458257.67849   7356234.87949  24403699.1894   24403704.1574
  21415403.641    -6678148.18449  -5191942.50849  21415405.1824   21415409.9824
  22460269.759    -1931017.32349  -1489682.74849  22460270.9024   22460276.4294
  21419572.146     5084851.51149   3899783.32849  21419573.3504   21419578.7294
 96  4 17 16 25 30.0000000  0  8 19 16  3 31 29 27  2 18
  20531507.594    -1756052.93449  -1364266.78549  20531509.0354   20531514.0364
  24082498.102    -3778086.71549  -2929656.46749  24082500.6224   24082506.1894
  24403862.750     5180894.06449   4030831.05649  24403865.2664   24403871.8134
  21826132.064     -500650.73549   -383304.12449  21826133.2944   21826137.3084
  24423561.578     9562644.22549   7437574.93949  24423563.2814   24423568.2574
  21404122.421    -6737431.15649  -5238137.03249  21404123.8794   21404128.9524
  22448666.559    -1991990.85749  -1537194.58449  22448667.7784   22448673.2554
  21433768.461     5159454.04849   3957915.14949  21433770.1224   21433775.2314
 96  4 17 16 26  0.0000000  0  8 19 16  3 31 29 27  2 18
  20530571.455    -1760974.65649  -1368101.89949  20530572.5804   20530577.3264
  24080569.592    -3788227.69649  -2937558.54749  24080570.8504   24080576.0174
  24418033.646     5255348.96149   4088847.79949  24418034.2934   24418039.4384
  21831385.185     -473045.72649   -361793.73349  21831386.4344   21831390.6294
  24443446.723     9667145.35749   7519004.31249  24443450.3024   24443453.5324
  21392868.142    -6796574.59849  -5284222.82749  21392869.2804   21392874.2624
  22437113.344    -2052704.44449  -1584503.86849  22437114.5004   22437120.0024
  21448040.872     5234456.24249   4016358.39349  21448042.2334   21448047.5544
 96  4 17 16 26 30.0000000  0  8 19 16  3 31 29 27  2 18
  20529690.040    -1765604.52249  -1371709.58249  20529691.6014   20529696.4184
  24078732.831    -3797879.06149  -2945079.10549  24078734.1244   24078739.5894
  24432272.332     5330183.89949   4147160.70849  24432274.3904   24432279.8454
  21836752.136     -444842.73249   -339817.38349  21836753.1864   21836757.5894
  24463354.879     9771757.59349   7600520.28349  24463357.1464   24463361.8824
  21381640.121    -6855576.15049  -5330198.05549  21381641.7414   21381646.3444
  22425604.958    -2113180.57949  -1631628.12449  22425606.2734   22425611.7754
  21462386.862     5309844.33349   4075102.34249  21462388.2724   21462393.7134
 96  4 17 16 27  0.0000000  0  8 19 16  3 31 29 27  2 18
  20528861.930    -1769956.97449  -1375101.10749  20528863.3994   20528868.2394
  24076985.580    -3807058.61449  -2952232.00449  24076987.2034   24076994.1694
  24446585.275     5405394.76349   4205766.53049  24446586.6314   24446592.1144
  21842234.299     -416034.38649   -317369.33049  21842235.0654   21842239.5564
  24483286.010     9876493.55449   7682132.64949  24483287.3514   24483291.9994
  21370443.695    -6914414.65849  -5376046.24049  21370445.1984   21370449.7764
  22414143.161    -2173413.41949  -1678562.79649  22414144.2184   22414149.7284
  21476807.185     5385624.22549   4134151.58049  21476808.5984   21476814.1224
 96  4 17 16 27 30.0000000  0  8 19 16  3 31 29 27  2 18
  20528084.665    -1774041.85449  -1378284.13349  20528086.0894   20528090.7804
  24075334.074    -3815741.21649  -2958997.68949  24075334.4994   24075340.6704
  24460972.330     5480995.09649   4264675.84449  24460974.1744   24460978.2174
  21847833.202     -386611.17749   -294442.16549  21847834.3614   21847838.8964
  24503243.163     9981369.28249   7763853.93449  24503244.2484   24503249.2134
  21359282.415    -6973068.86649  -5421750.81249  21359283.6854   21359288.3904
  22402730.550    -2233386.33849  -1725294.93349  22402731.7594   22402737.1634
  21491303.383     5461802.57049   4193511.30749  21491305.0384   21491310.2034
 96  4 17 16 28  0.0000000  0  8 19 16  3 31 29 27  2 18
  20527352.391    -1777891.03749  -1381283.49649  20527353.6294   20527358.2324
  24073777.431    -3823917.88949  -2965369.13749  24073778.8044   24073783.9904
  24475428.171     5556969.53549   4323876.67449  24475431.2564   24475434.8864
  21853548.379     -356577.02849   -271038.94749  21853549.4794   21853554.0184
  24523224.500    10086376.52749   7845677.69649  24523226.7454   24523232.0104
  21348153.848    -7031547.91349  -5467318.89749  21348155.6074   21348160.1744
  22391367.993    -2293098.81749  -1771824.13049  22391368.8334   22391374.1564
  21505873.377     5538369.39049   4253173.73949  21505874.9684   21505880.1924
 96  4 17 16 28 30.0000000  0  8 19 16  3 31 29 27  2 18
  20526662.563    -1781515.23749  -1384107.55649  20526663.9334   20526668.7994
  24072322.002    -3831562.53849  -2971326.01649  24072324.0554   24072330.8484
  24489954.712     5633300.09849   4383354.99949  24489956.0564   24489961.1874
  21859380.009     -325933.08649   -247160.56049  21859381.0134   21859385.6044
  24543231.008    10191511.55449   7927601.02149  24543233.2114   24543239.0664
  21337057.910    -7089859.42449  -5512756.43549  21337059.1474   21337063.9354
  22380055.879    -2352543.15849  -1818144.38649  22380057.1094   22380062.5974
  21520517.587     5615323.04349   4313137.60549  21520518.9524   21520524.1944
 96  4 17 16 29  0.0000000  0  8 19 16  3 31 29 27  2 18
  20526018.034    -1784902.61349  -1386747.08049  20526019.4794   20526023.8994
  24070972.248    -3838662.48549  -2976858.45949  24070973.0694   24070979.6114
  24504543.659     5709968.67649   4443096.71249  24504544.8634   24504549.7754
  21865325.798     -294687.39149   -222813.27649  21865326.8644   21865331.4684
  24563257.456    10296749.67749   8009604.64449  24563259.2634   24563265.0544
  21325988.795    -7148025.00749  -5558080.26349  21325990.4214   21325995.2124
  22368793.994    -2411724.31249  -1864259.56249  22368795.1154   22368800.7104
  21535232.570     5692649.66949   4373392.09449  21535233.5034   21535238.9304
 96  4 17 16 29 30.0000000  0  8 19 16  3 31 29 27  2 18
  20525425.511    -1788016.17849  -1389173.23449  20525427.1634   20525431.5664
  24069730.835    -3845184.57249  -2981940.61749  24069731.9074   24069737.6474
  24519200.341     5786997.78949   4503119.35749  24519202.9374   24519209.1154
  21871391.064     -262812.30549   -197975.56049  21871392.5204   21871397.1784
  24583307.581    10402113.84549   8091706.50149  24583309.8384   24583316.0204
  21314952.029    -7206027.28349  -5603276.84049  21314953.1274   21314957.9644
  22357586.104    -2470620.01749  -1910152.31549  22357587.6344   22357593.3654
  21550025.143     5770387.01049   4433966.61649  21550026.6374   21550032.2074
 96  4 17 16 30  0.0000000  0  8 19 16  3 31 29 27  2 18
  20524879.340    -1790886.76749  -1391410.06049  20524880.7574   20524885.0804
  24068590.265    -3851171.53049  -2986605.80049  24068593.1064   24068598.1094
  24533922.958     5864355.52949   4563398.06549  24533924.1524   24533930.4144
  21877572.777     -230329.38049   -172664.20149  21877573.7474   21877578.6734
  24603373.596    10507561.99549   8173873.80949  24603375.9454   24603381.2404
  21303939.917    -7263892.77449  -5648366.82749  21303941.8094   21303946.2974
  22346427.869    -2529257.17149  -1955843.59449  22346429.4214   22346435.0214
  21564895.303     5848528.44049   4494856.01949  21564896.4294   21564901.8574
 96  4 17 16 30 30.0000000  0  8 19 16  3 31 29 27  2 18
  20524378.895    -1793515.20449  -1393458.19849  20524380.3694   20524384.9874
  24067549.596    -3856645.86049  -2990871.52749  24067551.3644   24067557.5584
  24548707.367     5942054.19049   4623942.42749  24548709.6244   24548714.7784
  21883868.092     -197247.84249   -146886.39249  21883869.1184   21883873.3024
  24623458.001    10613099.08449   8256110.39949  24623458.0364   24623465.1254
  21292955.455    -7321617.39749  -5693347.05349  21292957.2684   21292961.8514
  22335318.361    -2587639.57849  -2001336.36849  22335319.8994   22335325.3524
  21579842.433     5927076.80749   4556062.50949  21579843.7994   21579849.3724
 96  4 17 16 31  0.0000000  0  8 19 16  3 31 29 27  2 18
  20523923.260    -1795909.91349  -1395324.21249  20523924.8154   20523929.2584
  24066601.313    -3861633.31949  -2994757.86749  24066601.7554   24066608.1554
  24563560.114     6020101.51849   4684758.49049  24563561.7034   24563567.2404
  21890278.289     -163561.28249   -120637.14049  21890279.2124   21890284.0934
  24643559.342    10718739.16449   8338427.22749  24643561.9524   24643567.4694
  21281998.190    -7379198.64049  -5738215.55349  21281999.7184   21282004.4104
  22324258.872    -2645757.68349  -2046623.19449  22324260.0094   22324265.7214
  21594867.782     6006034.47849   4617587.93349  21594868.9984   21594874.5654
 96  4 17 16 31 30.0000000  0  8 19 16  3 31 29 27  2 18
  20523511.423    -1798074.20849  -1397010.68349  20523512.9944   20523517.6664
  24065746.609    -3866128.53149  -2998260.64349  24065746.3964   24065753.0844
  24578480.724     6098514.31749   4745859.32849  24578483.2674   24578488.0424
  21896805.919     -129258.59349    -93907.78449  21896806.8794   21896811.5164
  24663685.588    10824497.25849   8420836.04849  24663687.4284   24663692.0304
  21271072.827    -7436611.91849  -5782953.16849  21271074.4124   21271078.9134
  22313254.166    -2703587.93749  -2091685.72249  22313255.3944   22313261.1734
  21609972.847     6085412.76349   4679441.11749  21609974.4164   21609979.5314
 96  4 17 16 32  0.0000000  0  8 19 16  3 31 29 27  2 18
  20523139.372    -1800031.58749  -1398535.92749  20523140.5114   20523144.8634
  24064978.941    -3870157.01749  -3001399.73949  24064979.9794   24064986.1224
  24593470.070     6177273.36149   4807229.96649  24593471.6154   24593475.9324
  21903444.046      -94373.90649    -66724.92449  21903445.2064   21903449.5284
  24683828.102    10930356.93049   8503324.00149  24683830.6654   24683838.1964
  21260174.829    -7493879.98349  -5827577.63649  21260176.3904   21260181.2544
  22302301.413    -2761145.76549  -2136535.97349  22302302.3664   22302307.8674
  21625151.339     6165175.29949   4741593.71449  21625152.8494   21625158.2524
 96  4 17 16 32 30.0000000  0  7 19 16  3 31 27  2 18
  20522811.505    -1801753.35049  -1399877.56849  20522813.0614   20522817.5124
  24064305.730    -3873695.55849  -3004157.06149  24064306.3374   24064312.5604
  24608524.625     6256387.47149   4868877.26349  24608526.1254   24608531.0844
  21910192.842      -58909.03349    -39089.97149  21910194.0454   21910198.2604
  21249307.183    -7550990.59549  -5872079.40849  21249308.7234   21249313.4054
  22291401.719    -2818423.84649  -2181168.23249  22291402.7854   22291408.5684
  21640401.058     6245313.75849   4804039.24249  21640402.6514   21640407.7084
 96  4 17 16 33  0.0000000  0  7 19 16  3 31 27  2 18
  20522525.193    -1803258.31749  -1401050.27649  20522526.5224   20522531.1584
  24063723.343    -3876750.64949  -3006537.67649  24063724.6204   24063731.3994
  24623640.738     6335824.52949   4930776.22949  24623643.0124   24623647.2234
  21917047.405      -22890.41149    -11023.52849  21917048.2884   21917052.3944
  21238465.345    -7607964.77549  -5916474.87849  21238466.9224   21238471.5994
  22280549.188    -2875454.37249  -2225607.59049  22280550.1004   22280555.8074
  21655717.397     6325800.88249   4866756.46349  21655718.9574   21655723.9264
 96  4 17 16 33 30.0000000  0  7 19 16  3 31 27  2 18
  20522290.674    -1804490.75049  -1402010.62349  20522292.2514   20522296.8164
  24063244.146    -3879278.27149  -3008507.26349  24063244.7754   24063251.1094
  24638824.869     6415614.77049   4992950.39649  24638825.9574   24638831.7464
  21924010.845       13703.85549     17491.47549  21924012.0354   21924015.7624
  21227655.593    -7664770.31749  -5960738.93149  21227657.2524   21227661.9644
  22269746.265    -2932224.46549  -2269844.02549  22269747.2954   22269752.7134
  21671104.708     6406662.79449   4929765.72249  21671106.2584   21671111.0664
 96  4 17 16 34  0.0000000  0  7 19 16  3 31 27  2 18
  20522108.837    -1805446.01549  -1402754.98949  20522110.1414   20522114.8554
  24062860.656    -3881283.13849  -3010069.52749  24062863.0364   24062869.3784
  24654073.926     6495753.11249   5055395.78349  24654075.5324   24654081.2384
  21931081.873       50863.03549     46446.66649  21931083.0214   21931087.0014
  21216878.225    -7721406.78049  -6004871.23649  21216879.5104   21216884.4364
  22258991.171    -2988742.02249  -2313883.66949  22258992.2864   22258997.8324
  21686563.543     6487900.11649   4993067.51349  21686565.3414   21686570.5194
 96  4 17 16 34 30.0000000  0  7 19 16  3 31 27  2 18
  20521985.178    -1806096.54149  -1403261.89849  20521986.5934   20521991.0634
  24062586.028    -3882730.70649  -3011197.51049  24062587.1664   24062593.5724
  24669394.721     6576261.58749   5118129.60649  24669396.1904   24669401.3414
  21938266.518       88617.66949     75865.85549  21938267.5414   21938271.3754
  21206138.070    -7777846.91449  -6048850.55949  21206139.4234   21206143.9464
  22248289.490    -3044981.58049  -2357706.69549  22248290.3344   22248295.7314
  21702097.333     6569531.53249   5056676.38549  21702098.6414   21702104.6384
 96  4 17 16 35  0.0000000  0  7 19 16  3 31 27  2 18
  20521914.985    -1806462.63149  -1403547.16649  20521916.6324   20521921.2744
  24062412.810    -3883643.93049  -3011909.12749  24062413.4424   24062418.9644
  24684781.015     6657118.78149   5181135.16449  24684783.4174   24684788.2574
  21945560.873      126950.12449    105735.29249  21945562.5494   21945566.3094
  21195431.389    -7834110.52449  -6092692.33249  21195432.8284   21195437.4254
  22237638.163    -3100953.19749  -2401320.93649  22237639.3674   22237644.9804
  21717703.587     6651542.83449   5120581.27749  21717704.9134   21717710.7004
 96  4 17 16 35 30.0000000  0  7 19 16  3 31 27  2 18
  20521900.634    -1806540.26649  -1403607.66549  20521902.1274   20521906.7774
  24062339.718    -3884024.32249  -3012205.55149  24062341.6654   24062347.0014
  24700234.042     6738321.95149   5244410.28549  24700234.2874   24700240.7044
  21952966.358      165865.25949    136058.75649  21952967.2534   21952971.5884
  21184758.760    -7890195.94449  -6136395.25849  21184760.0274   21184764.8474
  22227040.950    -3156642.94649  -2444715.53949  22227041.9134   22227047.5344
  21733381.323     6733931.84149   5184780.48149  21733383.0544   21733388.9034
 96  4 17 16 36  0.0000000  0  7 19 16  3 31 27  2 18
  20521936.108    -1806351.68549  -1403460.72649  20521937.7184   20521942.5354
  24062368.981    -3883879.16449  -3012092.45549  24062369.1794   24062375.1894
  24715750.133     6819863.37149   5307948.99249  24715753.0844   24715757.4954
  21960481.227      205358.02849    166832.33749  21960482.4524   21960486.8904
  21174120.560    -7946098.74349  -6179955.87749  21174122.0094   21174126.4454
  22216496.965    -3212051.59649  -2487891.10649  22216498.0214   22216503.6284
  21749131.241     6816697.79549   5249273.41049  21749132.9974   21749138.7004
 96  4 17 16 36 30.0000000  0  6 19 16 31 27  2 18
  20522025.268    -1805884.36049  -1403096.58249  20522027.1104   20522031.5794
  24062496.780    -3883199.76849  -3011563.07449  24062498.0654   24062503.3444
  21968108.977      245441.80049    198066.43449  21968110.1594   21968114.3524
  21163518.378    -8001813.80349  -6223370.20349  21163519.8644   21163524.4124
  22206006.583    -3267179.03449  -2530847.54549  22206007.5714   22206013.2664
  21764951.877     6899834.35049   5314055.12049  21764953.1194   21764958.7764
 96  4 17 16 37  0.0000000  0  6 19 16 31 27  2 18
  20522162.143    -1805165.31049  -1402536.28249  20522163.6374   20522168.1804
  24062721.343    -3882018.93349  -3010642.95549  24062722.1754   24062729.5864
  21975845.618      286095.85849    229744.90649  21975846.5794   21975850.5224
  21152950.247    -8057348.93849  -6266644.33549  21152951.8654   21152956.5634
  22195565.554    -3322047.24549  -2573601.98749  22195566.8334   22195571.8304
  21780839.770     6983325.32749   5379113.00549  21780841.4424   21780847.2044
 96  4 17 16 37 30.0000000  0  6 19 16 31 27  2 18
  20522346.427    -1804197.18149  -1401781.90149  20522347.8604   20522352.5064
  24063039.558    -3880344.28049  -3009338.04449  24063042.0544   24063048.0724
  21983690.799      327325.20849    261871.66149  21983692.2424   21983696.7104
  21142416.598    -8112705.33249  -6309779.19049  21142418.0184   21142422.9464
  22185173.772    -3376657.12649  -2616155.13549  22185174.8434   22185179.9084
  21796793.265     7067160.11549   5444438.78749  21796794.4804   21796800.0994
 96  4 17 16 38  0.0000000  0  6 19 16 31 27  2 18
  20522581.371    -1802963.36149  -1400820.48949  20522582.7164   20522587.3464
  24063451.674    -3878186.54649  -3007656.70349  24063453.0924   24063458.7184
  21991647.124      369135.53749    294451.12749  21991648.2854   21991652.6214
  21131917.641    -8167877.37249  -6352770.38649  21131919.0074   21131923.9234
  22174831.854    -3431003.82649  -2658503.20649  22174832.7514   22174838.4134
  21812811.919     7151340.06549   5510033.53149  21812813.7134   21812818.5654
 96  4 17 16 38 30.0000000  0  6 19 16 31 27  2 18
  20522867.933    -1801456.56049  -1399646.36349  20522869.4624   20522873.9094
  24063952.537    -3875545.02049  -3005598.38949  24063954.9624   24063960.9884
  21999713.884      411525.98749    327482.63349  21999715.1514   21999719.4494
  21121451.076    -8222878.39849  -6395628.32949  21121452.7744   21121457.4454
  22164542.323    -3485075.47349  -2700636.94749  22164543.4034   22164548.4924
  21828898.374     7235872.74049   5575903.12349  21828899.7244   21828905.2724
 96  4 17 16 39  0.0000000  0  6 19 16 31 27  2 18
  20523204.891    -1799686.49249  -1398267.09749  20523206.3854   20523210.7324
  24064549.563    -3872423.06249  -3003165.71449  24064548.2544   24064555.3594
  22007890.566      454493.45049    360963.75649  22007891.7864   22007896.0924
  21111016.279    -8277713.46549  -6438356.95349  21111017.9284   21111022.2834
  22154306.547    -3538863.48949  -2742549.68449  22154307.6054   22154312.9584
  21845054.676     7320773.98249   5642059.91049  21845055.8114   21845061.2754
 96  4 17 16 39 30.0000000  0  6 19 16 31 27  2 18
  20523592.689    -1797649.27149  -1396679.65749  20523593.9784   20523598.6354
  24065233.311    -3868822.82449  -3000360.36049  24065234.1354   24065240.4254
  22016173.588      498021.17149    394881.44549  22016174.5064   22016179.0284
  21100613.129    -8332385.11649  -6480958.24149  21100614.4204   21100619.0514
  22144122.364    -3592383.41149  -2784253.51149  22144123.0644   22144128.4034
  21861278.524     7406030.30849   5708493.38549  21861279.4764   21861284.7454
 96  4 17 16 40  0.0000000  0  6 19 16 31 27  2 18
  20524031.013    -1795346.62149  -1394885.39049  20524032.2564   20524036.7594
  24066012.898    -3864724.63549  -2997166.97649  24066014.3464   24066019.3894
  22024563.847      542112.50749    429238.31249  22024565.1184   22024569.2574
  21090243.616    -8386875.64949  -6523418.39549  21090245.1724   21090249.9724
  22133989.210    -3645632.77549  -2825746.51549  22133990.2244   22133995.6314
  21877573.169     7491659.16249   5775217.14449  21877574.4764   21877579.5774
 96  4 17 16 40 30.0000000  0  6 19 16 31 27  2 18
  20524516.478    -1792793.19449  -1392895.71449  20524518.1014   20524522.7484
  24066892.181    -3860103.08349  -2993565.79449  24066893.0704   24066899.1624
  22033063.534      586779.01749    464043.36749  22033064.7514   22033068.9454
  21079911.304    -8441171.57549  -6565726.91049  21079913.1904   21079917.6754
  22123907.610    -3698612.25749  -2867029.21949  22123908.6814   22123913.4654
  21893938.042     7577657.42649   5842228.75349  21893939.5584   21893945.0254
 96  4 17 16 41  0.0000000  0  6 19 16 31 27  2 18
  20525048.231    -1789998.75949  -1390718.24249  20525049.5554   20525054.4174
  24067866.511    -3854980.12649  -2989573.89349  24067868.5954   24067875.2594
  22041671.327      632013.04449    499290.64949  22041672.3754   22041676.6164
  21069618.611    -8495262.77549  -6607875.89749  21069619.7034   21069624.3404
  22113872.083    -3751349.31949  -2908123.02549  22113872.9414   22113878.2874
  21910365.040     7663981.15849   5909493.97449  21910366.8834   21910371.8994
 96  4 17 16 41 30.0000000  0  6 19 16 31 27  2 18
  20525630.181    -1786941.57749  -1388336.02849  20525631.6024   20525636.2224
  24068938.474    -3849351.24849  -2985187.78249  24068939.5594   24068945.7674
  22050389.032      677823.78049    534987.30849  22050389.5884   22050394.0414
  21059366.484    -8549136.65549  -6649855.54249  21059367.6234   21059372.5164
  22103883.643    -3803838.02149  -2949023.30849  22103884.9044   22103890.2404
  21926854.674     7750634.10449   5977015.73049  21926855.8134   21926861.4314
 96  4 17 16 42  0.0000000  0  6 19 16 31 27  2 18
  20526263.055    -1783616.10049  -1385744.75249  20526264.3714   20526268.9504
  24070106.009    -3843212.46949  -2980404.33749  24070108.2704   24070114.1084
  22059219.771      724229.28249    571147.42549  22059220.6894   22059224.8944
  21049153.453    -8602806.36149  -6691676.09049  21049154.7174   21049159.5314
  22093946.053    -3856061.98249  -2989717.29949  22093946.8654   22093952.3734
  21943410.009     7837635.22249   6044808.77949  21943411.2304   21943416.8604
 96  4 17 16 42 30.0000000  0  6 19 16 31 27  2 18
  20526950.100    -1780005.48849  -1382931.29549  20526951.3564   20526955.9804
  24071369.181    -3836576.39849  -2975233.39749  24071370.2474   24071376.9644
  22068162.147      771222.89949    607765.81149  22068163.3004   22068167.5704
  21038978.316    -8656276.68949  -6733341.28149  21038979.9784   21038984.2834
  22084057.839    -3908023.90749  -3030207.10749  22084058.8714   22084064.1774
  21960029.579     7924971.30349   6112862.84349  21960030.9324   21960036.6244
 96  4 17 16 43  0.0000000  0  6 19 16 31 27  2 18
  20527692.729    -1776101.80949  -1379889.46749  20527694.0644   20527699.0334
  24072725.591    -3829450.64749  -2969680.90249  24072726.6304   24072732.0354
  22077212.975      818782.01049    644824.85349  22077213.6474   22077217.6034
  21028840.183    -8709553.99549  -6774856.06049  21028841.3914   21028846.0514
  22074220.936    -3959718.17749  -3070488.34849  22074221.8404   22074227.0634
  21976715.475     8012654.64049   6181187.49549  21976716.7184   21976722.2034
 96  4 17 16 43 30.0000000  0  6 19 16 31 27  2 18
  20528497.211    -1771874.52349  -1376595.48949  20528498.6564   20528503.5414
  24074183.212    -3821790.98349  -2963712.33649  24074184.4554   24074190.2284
  22086376.382      866937.78749    682348.81849  22086377.0974   22086381.3394
  21018742.662    -8762615.40849  -6816202.61649  21018744.1234   21018748.8274
  22064444.016    -4011094.42649  -3110521.78549  22064444.9884   22064450.5444
  21993476.666     8100734.99749   6249821.52049  21993477.6814   21993483.0774
 96  4 17 16 44  0.0000000  0  6 19 16 31 27  2 18
  20529351.170    -1767387.08049  -1373098.78649  20529352.5674   20529357.6774
  24075733.449    -3813643.41749  -2957363.62349  24075734.2834   24075740.0934
  22095641.402      915627.80149    720289.07949  22095642.7814   22095646.1934
  21008676.058    -8815514.86249  -6857422.96549  21008677.6304   21008682.4174
  22054718.449    -4062203.63349  -3150347.13749  22054719.4844   22054724.7234
  22010300.212     8189144.64349   6318712.12349  22010301.6974   22010307.0774
 96  4 17 16 44 30.0000000  0  6 19 16 31 27  2 18
  20530259.699    -1762612.41449  -1369378.27349  20530261.2034   20530266.0074
  24077382.005    -3804974.69349  -2950608.80849  24077383.0714   24077390.1694
  22105012.075      964870.02649    758659.62849  22105013.0764   22105017.6304
  20998648.395    -8868212.11849  -6898485.75849  20998649.7044   20998654.4044
  22045049.070    -4113017.10749  -3189942.04449  22045049.9144   22045055.2314
  22027189.693     8277896.29849   6387869.23049  22027190.8634   22027195.5504
 96  4 17 16 45  0.0000000  0  6 19 16 31 27  2 18
  20531223.373    -1757548.71849  -1365432.53949  20531224.9184   20531229.9954
  24079129.914    -3795791.57449  -2943453.16049  24079130.5654   24079137.8134
  22114486.803     1014661.35149    797458.04949  22114487.7684   22114492.3304
  20988659.296    -8920702.71849  -6939387.52249  20988661.1234   20988665.6514
  22035434.263    -4163541.05949  -3229311.34949  22035435.4244   22035440.8304
  22044144.059     8366995.26349   6457296.96449  22044145.5124   22044150.8344
 96  4 17 16 45 30.0000000  0  6 19 16 31 27  2 18
  20532244.721    -1752183.09549  -1361251.54149  20532246.0294   20532250.7514
  24080973.719    -3786102.77149  -2935903.45849  24080974.1404   24080981.1244
  22124067.354     1065007.01049    836688.41949  22124068.4984   22124072.8274
  20978708.308    -8972998.55149  -6980137.51849  20978709.6614   20978714.1814
  22025872.320    -4213790.37849  -3268466.65849  22025873.3094   22025878.6484
  22061163.360     8456430.89249   6526987.04149  22061164.7754   22061170.0614
 96  4 17 16 46  0.0000000  0  6 19 16 31 27  2 18
  20533322.437    -1746518.88349  -1356837.87949  20533323.7654   20533328.6314
  24082910.316    -3775929.24949  -2927976.06149  24082911.6554   24082918.0004
  22133749.689     1115889.11649    876336.79949  22133750.9474   22133755.1134
  20968791.504    -9025110.67349  -7020744.36549  20968792.9554   20968797.5424
  22016356.997    -4263794.27749  -3307430.73149  22016357.9364   22016363.2604
  22078243.405     8546185.84649   6596925.93549  22078244.8964   22078249.4184
 96  4 17 16 46 30.0000000  0  6 19 16 31 27  2 18
  20534458.723    -1740547.80749  -1352185.09649  20534460.2464   20534464.7904
  24084935.927    -3765282.37949  -2919679.81549  24084937.1524   24084943.9894
  22143536.297     1167317.59049    916410.92149  22143537.7094   22143541.7904
  20958911.896    -9077028.64749  -7061199.92849  20958913.1334   20958918.0624
  22006886.896    -4313559.17449  -3346208.56449  22006887.9974   22006893.2204
  22095384.759     8636263.75349   6667116.48549  22095385.9334   22095391.2224
 96  4 17 16 47  0.0000000  0  6 19 16 31 27  2 18
  20535655.692    -1734256.67249  -1347282.91949  20535657.2094   20535661.9204
  24087055.519    -3754145.78549  -2911001.97649  24087055.9884   24087062.8854
  22153430.806     1219312.90949    956926.73849  22153432.2834   22153436.1564
  20949072.265    -9128736.04949  -7101491.40549  20949073.8814   20949078.4744
  21997465.963    -4363067.08849  -3384786.15749  21997466.8394   21997472.1994
  22112590.092     8726678.55649   6737569.54449  22112591.2004   22112596.3254
 96  4 17 16 47 30.0000000  0  6 19 16 31 27  2 18
  20536909.857    -1727667.22849  -1342148.29249  20536911.1284   20536915.8574
  24089270.157    -3742506.99349  -2901932.81749  24089270.5714   24089277.6574
  22163431.314     1271866.25549    997877.38049  22163432.3944   22163436.6824
  20939272.134    -9180236.97149  -7141621.99849  20939273.3874   20939277.9684
  21988095.885    -4412306.59449  -3423154.60149  21988097.0724   21988102.1924
  22129855.794     8817413.06949   6808271.72949  22129857.5664   22129862.7764
 96  4 17 16 48  0.0000000  0  6 19 16 31 27  2 18
  20538216.060    -1720802.51149  -1336799.16949  20538217.4294   20538222.2654
  24091579.693    -3730375.46249  -2892479.69349  24091579.2974   24091586.2514
  22173537.316     1324971.11749   1039257.77249  22173538.1154   22173542.2894
  20929513.437    -9231519.41449  -7181582.34449  20929514.7694   20929519.6554
  21978777.751    -4461273.90049  -3461310.93849  21978778.8064   21978784.1754
  22147180.359     8908454.97049   6879213.44649  22147182.2714   22147187.3704
 96  4 17 16 48 30.0000000  0  6 19 16 31 27  2 18
  20539575.657    -1713659.71049  -1331233.35649  20539576.9244   20539581.5424
  24093983.214    -3717743.57049  -2882636.68149  24093984.2534   24093990.1924
  22183745.902     1378621.58549   1081063.31249  22183747.1854   22183751.5724
  20919797.571    -9282576.64549  -7221367.19649  20919798.8084   20919803.5324
  21969513.380    -4509959.29849  -3499247.60449  21969514.3174   21969519.7854
  22164563.893     8999802.93149   6950393.65049  22164565.0244   22164569.9944
 96  4 17 16 49  0.0000000  0  6 19 16 31 27  2 18
  20540988.637    -1706232.23149  -1325445.71549  20540990.1964   20540994.9414
  24096482.387    -3704608.93149  -2872401.91949  24096482.9244   24096490.0334
  22194057.185     1432807.30949   1123285.93449  22194058.5264   22194062.6354
  20910126.257    -9333399.76949  -7260969.62649  20910127.5654   20910132.2104
  21960305.763    -4558345.74949  -3536951.32649  21960306.5004   21960312.0654
  22182005.336     9091458.42749   7021813.48649  22182006.8254   22182011.6664
 96  4 17 16 49 30.0000000  0  6 19 16 31 27  2 18
  20542456.804    -1698518.12049  -1319434.72849  20542458.1914   20542462.7784
  24099073.791    -3690989.71549  -2861789.57549  24099075.1204   24099080.5054
  22204470.300     1487527.08149   1165924.69849  22204471.2004   22204475.5244
  20900499.193    -9383988.94549  -7300389.76449  20900500.5494   20900505.3514
  21951152.855    -4606444.57849  -3574430.92849  21951153.7154   21951159.3084
  22199504.801     9183419.45649   7093471.39349  22199506.4754   22199511.5734
 96  4 17 16 50  0.0000000  0  6 19 16 31 27  2 18
  20543979.394    -1690517.58049  -1313200.55349  20543980.7534   20543985.2954
  24101752.938    -3676911.49749  -2850819.55049  24101753.1734   24101760.1234
  22214984.549     1542779.41749   1208978.44549  22214985.7094   22214989.9184
  20890914.248    -9434359.63549  -7339639.65149  20890915.6054   20890920.2044
  21942050.540    -4654276.64949  -3611702.66649  21942051.4154   21942056.9064
  22217062.672     9275685.26149   7165366.79949  22217063.7834   22217068.7304
 96  4 17 16 50 30.0000000  0  6 19 16 31 27  2 18
  20545559.073    -1682215.54849  -1306731.43849  20545560.3314   20545565.1244
  24104522.565    -3662358.34249  -2839479.44549  24104523.7074   24104529.9504
  22225603.289     1598582.44049   1252461.30149  22225604.9184   22225609.0364
  20881373.402    -9484496.23649  -7378707.12949  20881374.9244   20881379.6994
  21933003.242    -4701820.45649  -3648749.78349  21933004.3594   21933009.7454
  22234682.046     9368275.60949   7237515.09449  22234683.1184   22234688.1684
 96  4 17 16 51  0.0000000  0  6 19 16 31 27  2 18
  20547193.441    -1673626.51749  -1300038.69949  20547194.7204   20547199.5464
  24107380.621    -3647336.35949  -2827774.01849  24107381.4914   24107387.9224
  22236326.741     1654933.19749   1296370.96249  22236328.0674   22236331.9304
  20871875.673    -9534409.02449  -7417600.21449  20871876.8914   20871881.5684
  21924010.123    -4749080.44849  -3685575.74349  21924011.1004   21924016.6394
  22252362.937     9461189.18349   7309915.25349  22252364.3244   22252369.3854
 96  4 17 16 51 30.0000000  0  6 19 16 31 27  2 18
  20548880.905    -1664759.10149  -1293129.02549  20548882.3014   20548887.1294
  24110332.240    -3631830.36249  -2815691.43349  24110333.0344   24110338.6364
  22247155.045     1711834.91649   1340709.94949  22247156.0024   22247160.1604
  20862418.193    -9584108.79649  -7456327.30449  20862419.2344   20862423.7434
  21915067.434    -4796074.49849  -3722194.47649  21915068.5834   21915073.9694
  22270106.588     9554432.56649   7382572.40949  22270107.8344   22270113.0454
 96  4 17 16 52  0.0000000  0  6 19 16 31 27  2 18
  20550625.190    -1655592.92849  -1285986.56449  20550626.5634   20550631.0464
  24113378.650    -3615819.10549  -2803215.15449  24113379.4554   24113385.5884
  22258089.054     1769295.37749   1385484.31149  22258090.5014   22258093.8024
  20853004.681    -9633573.95349  -7494871.58249  20853006.2964   20853010.8114
  21906180.790    -4842774.16949  -3758583.82349  21906181.8294   21906187.1684
  22287917.462     9648030.59349   7455505.90349  22287919.0624   22287923.9664
 96  4 17 16 52 30.0000000  0  7 19 16 31 27  2 18  7
  20552424.756    -1646136.13149  -1278617.64149  20552426.2374   20552430.8974
  24116521.203    -3599303.61949  -2790345.97849  24116522.3214   24116528.5984
  22269127.432     1827300.60649   1430683.17449  22269128.3614   22269132.1624
  20843637.281    -9682802.91149  -7533231.81149  20843638.4374   20843643.0724
  21897348.103    -4889189.84949  -3794751.87649  21897349.1954   21897354.4214
  22305793.379     9741968.48849   7528704.23249  22305794.3454   22305800.0994
  24575097.846    -3900595.60959  -2758225.51659  24575099.6364   24575106.4354
 96  4 17 16 53  0.0000000  0  7 19 16 31 27  2 18  7
  20554280.856    -1636382.58949  -1271017.48849  20554282.5694   20554287.0614
  24119760.185    -3582279.91549  -2777080.76649  24119761.8904   24119768.2884
  22280267.311     1885840.21549   1476298.43149  22280268.0214   22280272.4954
  20834312.015    -9731807.10549  -7571416.89949  20834313.3694   20834317.8174
  21888565.275    -4935344.37949  -3830716.44049  21888566.0944   21888571.3364
  22323732.561     9836238.27949   7602161.18449  22323733.8714   22323738.7454
  24553908.861    -4011937.73449  -2844985.51949  24553912.0574   24553919.2484
 96  4 17 16 53 30.0000000  0  7 19 16 31 27  2 18  7
  20556191.464    -1626343.81949  -1263195.07949  20556192.7194   20556197.4314
  24123090.047    -3564782.07849  -2763446.10749  24123091.1024   24123097.5704
  22291507.730     1944909.74149   1522326.61049  22291508.5084   22291513.2464
  20825028.984    -9780590.24949  -7609429.74049  20825029.8524   20825034.5214
  21879829.669    -4981249.39749  -3866486.57649  21879830.6174   21879836.0274
  22341730.411     9930818.13349   7675859.74349  22341731.8644   22341737.2324
  24532725.701    -4123266.33949  -2931734.99549  24532726.6984   24532734.8234
 96  4 17 16 54  0.0000000  0  7 19 16 31 27  2 18  7
  20558157.537    -1616010.34049  -1255143.02549  20558158.9244   20558163.5174
  24126508.026    -3546828.64349  -2749456.44349  24126508.0834   24126513.8594
  22302849.054     2004510.75549   1568768.94149  22302850.3054   22302854.3144
  20815788.351    -9829149.15749  -7647267.85349  20815789.6174   20815794.1614
  21871143.680    -5026895.79749  -3902055.19649  21871144.8904   21871149.9894
  22359783.385    10025686.76949   7749783.32249  22359784.4044   22359790.2794
  24511542.559    -4234580.34349  -3018473.10949  24511544.7124   24511551.8834
 96  4 17 16 54 30.0000000  0  7 19 16 31 27  2 18  7
  20560180.308    -1605382.19249  -1246861.36049  20560181.6224   20560186.1324
  24130011.477    -3528412.77449  -2735106.43749  24130012.1224   24130018.4384
  22314292.494     2064642.13649   1615624.54549  22314292.9584   22314297.1854
  20806590.458    -9877483.78949  -7684931.20549  20806591.8084   20806596.4374
  21862507.412    -5072279.75549  -3937419.31349  21862508.5194   21862513.7344
  22377887.562    10120822.64149   7823915.14049  22377888.6234   22377893.9404
  24490362.740    -4345879.05449  -3105199.31549  24490365.4864   24490372.4694
 96  4 17 16 55  0.0000000  0  7 19 16 31 27  2 18  7
  20562260.388    -1594450.99849  -1238343.55849  20562261.6074   20562266.2894
  24133602.462    -3509542.41149  -2720402.29649  24133603.5474   24133609.4654
  22325834.062     2125297.86049   1662888.72949  22325835.8894   22325839.1834
  20797435.174    -9925595.07149  -7722420.51649  20797436.5974   20797441.0674
  21853923.012    -5117391.60049  -3972571.39149  21853923.9434   21853929.1684
  22396041.902    10216226.53149   7898255.80449  22396043.4054   22396048.0784
  24469183.881    -4457178.12149  -3191925.80749  24469185.3454   24469192.4884
 96  4 17 16 55 30.0000000  0  7 19 16 31 27  2 18  7
  20564400.116    -1583205.58549  -1229580.90749  20564401.3914   20564406.2424
  24137279.764    -3490218.51949  -2705344.74449  24137280.3664   24137287.0874
  22337477.511     2186482.88849   1710565.35249  22337478.6564   22337482.5624
  20788323.733    -9973475.06949  -7759729.60449  20788325.2234   20788329.8494
  21845393.211    -5162214.91949  -4007498.64749  21845394.2464   21845399.4844
  22414247.721    10311899.04549   7972805.78049  22414249.3964   22414254.5024
  24448004.258    -4568475.45149  -3278650.92749  24448006.1794   24448013.4024
 96  4 17 16 56  0.0000000  0  7 19 16 31 27  2 18  7
  20566602.714    -1571631.98449  -1220562.52249  20566603.7834   20566608.5834
  24141048.493    -3470415.38249  -2689913.76049  24141049.1404   24141054.5814
  22349220.544     2248190.89149   1758649.49249  22349220.9084   22349225.9984
  20779258.264   -10021116.04349  -7796852.43949  20779259.4254   20779263.9984
  21836919.151    -5206745.43249  -4042197.74549  21836920.2384   21836925.3884
  22432505.616    10407841.92949   8047566.43349  22432506.7494   22432511.3414
  24426828.912    -4679756.02149  -3365362.97149  24426830.1994   24426837.8374
 96  4 17 16 56 30.0000000  0  7 19 16 31 27  2 18  7
  20568864.451    -1559746.47549  -1211301.09449  20568865.8314   20568870.4444
  24144906.621    -3450137.58349  -2674112.90249  24144908.1144   24144914.4694
  22361058.624     2310403.40749   1807126.75749  22361059.9694   22361064.0034
  20770237.744   -10068518.33449  -7833789.28949  20770238.9254   20770243.4184
  21828498.996    -5250995.50149  -4076678.31149  21828499.8944   21828505.3294
  22450815.498    10504061.41649   8122542.62649  22450816.4364   22450821.9584
  24405655.693    -4791022.58649  -3452064.14549  24405656.8634   24405663.5404
 96  4 17 16 57  0.0000000  0  7 19 16 31 27  2 18  7
  20571186.602    -1547541.99049  -1201791.11249  20571188.1604   20571192.5414
  24148857.425    -3429379.54449  -2657937.84049  24148857.7214   24148864.3054
  22372997.224     2373137.51349   1856010.45649  22372998.2854   22373002.3104
  20761266.185   -10115664.79449  -7870526.78849  20761267.4354   20761272.1164
  21820131.762    -5294965.82549  -4110940.89549  21820132.6224   21820137.4724
  22469182.745    10600582.63649   8197753.92449  22469184.5114   22469188.6314
  24384488.754    -4902258.15549  -3538741.20049  24384489.0624   24384496.4804
 96  4 17 16 57 30.0000000  0  7 19 16 31 27  2 18  7
  20573565.176    -1535043.07649  -1192051.70349  20573566.5734   20573571.3244
  24152894.684    -3408168.37149  -2641409.67549  24152894.4374   24152900.6244
  22385032.606     2436383.59649   1905293.10249  22385033.4134   22385037.3394
  20752341.655   -10162562.67249  -7907070.58849  20752343.0594   20752347.4904
  21811814.085    -5338675.38649  -4145000.28649  21811814.9794   21811820.1974
  22487602.774    10697379.43649   8273179.97549  22487603.4954   22487609.0384
  24363327.354    -5013455.33449  -3625388.27449  24363328.8564   24363335.8054
 96  4 17 16 58  0.0000000  0  7 19 16 31 27  2 18  7
  20575999.233    -1522253.46449  -1182085.77849  20576000.2224   20576005.0704
  24157015.222    -3386502.22049  -2624526.98249  24157017.9214   24157023.4774
  22397164.699     2500139.68849   1954973.14649  22397165.5514   22397170.2604
  20743468.765   -10209191.58949  -7943404.80849  20743469.7724   20743474.4364
  21803548.311    -5382110.98849  -4178846.20349  21803549.3534   21803554.5274
  22506076.667    10794462.31549   8348828.93149  22506078.2884   22506083.0474
  24342180.869    -5124586.33749  -3711983.79449  24342182.4484   24342188.6874
 96  4 17 16 58 30.0000000  0  7 19 16 31 27  2 18  7
  20578486.878    -1509180.09249  -1171898.74149  20578488.0254   20578492.7984
  24161225.172    -3364386.24749  -2607293.78049  24161225.6764   24161231.6124
  22409393.231     2564401.92249   2005047.59849  22409394.9174   22409398.9014
  20734645.671   -10255556.15549  -7979533.04149  20734647.1014   20734651.6264
  21795333.180    -5425281.85849  -4212485.84049  21795334.0104   21795339.4974
  22524604.885    10891828.28149   8424698.47949  22524606.6684   22524611.6004
  24321045.957    -5235647.96449  -3798525.28249  24321047.5094   24321053.8694
 96  4 17 16 59  0.0000000  0  7 19 16 31 27  2 18  7
  20581031.587    -1495806.30149  -1161477.61449  20581033.2234   20581037.7644
  24165518.743    -3341825.07249  -2589713.66349  24165518.8514   24165525.2784
  22421716.912     2629164.92449   2055512.24449  22421718.4254   22421722.7204
  20725871.988   -10301662.90249  -8015460.37249  20725873.2614   20725877.9044
  21787167.110    -5468194.26449  -4245924.07849  21787168.4674   21787173.6494
  22543184.753    10989464.26249   8500778.43349  22543185.7154   22543190.9194
  24299925.738    -5346632.96749  -3885007.04949  24299926.9814   24299935.0764
 96  4 17 16 59 30.0000000  0  7 19 16 31 27  2 18  7
  20583635.688    -1482124.26149  -1150816.29249  20583636.7954   20583641.2944
  24169896.165    -3318816.02649  -2571784.55349  24169898.2144   24169902.8054
  22434132.904     2694408.90449   2106351.69049  22434133.9414   22434137.6974
  20717147.332   -10347512.42349  -8051187.26849  20717148.3914   20717152.9574
  21779052.910    -5510836.20349  -4279151.56049  21779053.8824   21779058.8794
  22561814.252    11087362.94449   8577063.08449  22561815.5594   22561820.4374
  24278823.655    -5457528.22749  -3971418.87549  24278824.9964   24278831.7154
 96  4 17 17  0  0.0000000  0  7 19 16 31 27  2 18  7
  20586297.480    -1468134.91649  -1139915.50649  20586298.7304   20586303.4784
  24174361.794    -3295350.58549  -2553499.80849  24174363.0414   24174368.8604
  22446635.577     2760111.64249   2157548.59549  22446636.6154   22446640.8324
  20708468.436   -10393119.73749  -8086725.43149  20708469.5814   20708474.3014
  21770988.150    -5553216.55349  -4312175.20949  21770989.1394   21770994.4104
  22580491.923    11185514.69449   8653544.93149  22580493.2534   22580497.8224
  24257735.536    -5568349.86349  -4057773.38049  24257736.6114   24257743.2914
 96  4 17 17  0 30.0000000  0  7 19 16 31 27  2 18  7
  20589021.435    -1453820.84149  -1128761.69349  20589022.8544   20589027.6314
  24178914.860    -3271422.03949  -2534854.21549  24178916.3664   24178922.0774
  22459227.664     2826283.20149   2209110.82549  22459228.7524   22459233.2334
  20699834.410   -10438491.70049  -8122080.20849  20699835.6234   20699840.2244
  21762972.354    -5595340.72849  -4344999.24749  21762973.2264   21762978.6094
  22599216.535    11283912.07749   8730218.17649  22599217.5694   22599222.4474
  24236658.948    -5679103.21149  -4144074.67749  24236660.9554   24236667.5434
 96  4 17 17  1  0.0000000  0  7 19 16 31 27  2 18  7
  20591812.560    -1439154.28549  -1117333.22349  20591813.9314   20591818.3714
  24183559.176    -3247024.20649  -2515842.93349  24183558.6714   24183565.5694
  22471912.817     2892944.88049   2261054.95849  22471913.9654   22471918.6544
  20691248.068   -10483611.05549  -8157238.14749  20691249.6774   20691254.1714
  21755010.258    -5637180.34349  -4377601.54249  21755011.2864   21755016.6104
  22617992.702    11382582.63849   8807104.29349  22617993.5634   22617998.0704
  24215601.044    -5789767.39249  -4230306.42349  24215601.9444   24215608.8584
 96  4 17 17  1 30.0000000  0  7 19 16 31 27  2 18  7
  20594663.042    -1424174.53849  -1105660.70249  20594664.5214   20594669.0264
  24188285.095    -3222185.50149  -2496488.13249  24188285.4834   24188293.0744
  22484688.432     2960081.43549   2313369.12949  22484689.5954   22484694.5964
  20682706.187   -10528499.75749  -8192216.35749  20682707.6204   20682712.1754
  21747099.744    -5678750.30449  -4409993.71449  21747100.8324   21747106.1074
  22636817.539    11481508.24649   8884189.13549  22636819.0164   22636823.7964
  24194553.331    -5900370.21149  -4316490.37249  24194554.6924   24194561.7814
 96  4 17 17  2  0.0000000  0  7 19 16 31 27  2 18  7
  20597571.035    -1408889.73849  -1093750.47849  20597573.0484   20597577.5624
  24193093.361    -3196915.27749  -2476797.08049  24193094.7384   24193100.6404
  22497557.179     3027705.81949   2366063.41949  22497557.9444   22497562.8954
  20674205.944   -10573174.57549  -8227027.90149  20674206.3604   20674211.0434
  21739235.375    -5720077.63849  -4442196.82949  21739236.3274   21739241.8624
  22655690.164    11580684.42149   8961469.23249  22655691.3784   22655696.1214
  24173514.715    -6010930.22649  -4402641.01249  24173516.2594   24173522.7094
 96  4 17 17  2 30.0000000  0  7 19 16 31 27  2 18  7
  20600540.364    -1393287.41249  -1081592.82649  20600542.0014   20600546.5274
  24197984.917    -3171205.11349  -2456763.20749  24197986.8944   24197994.2264
  22510522.019     3095838.22849   2419153.57849  22510522.7944   22510527.9644
  20665746.724   -10617622.47949  -8261662.63749  20665748.0744   20665752.8564
  21731420.278    -5761145.89449  -4474198.06449  21731421.3594   21731426.6834
  22674613.813    11680127.91949   9038957.63449  22674614.7854   22674619.5754
  24152484.349    -6121435.38149  -4488748.89249  24152487.3544   24152494.2404
 96  4 17 17  3  0.0000000  0  7 19 16 31 27  2 18  7
  20603563.778    -1377401.02449  -1069213.83249  20603564.9924   20603569.7624
  24202959.819    -3145071.82149  -2436399.63549  24202959.3984   24202966.3874
  22523578.848     3164450.60149   2472617.73349  22523579.1374   22523584.6604
  20657330.924   -10661848.13449  -8296124.18349  20657332.2454   20657336.7844
  21723652.067    -5801970.62749  -4506009.53649  21723652.7274   21723657.9844
  22693585.736    11779826.02849   9116644.43249  22693587.2764   22693591.6394
  24131462.756    -6231915.42749  -4574837.17349  24131464.0044   24131470.4804
 96  4 17 17  3 30.0000000  0  7 19 16 31 27  2 18  7
  20606642.078    -1361223.85549  -1056608.25849  20606643.3444   20606648.3854
  24208017.961    -3118486.82949  -2415684.08949  24208019.7424   24208025.6854
  22536729.760     3233557.67549   2526467.36949  22536730.5464   22536734.4934
  20648961.996   -10705826.49949  -8330393.03949  20648963.6084   20648968.0104
  21715931.710    -5842539.85349  -4537621.92049  21715932.6244   21715938.1444
  22712605.624    11879775.49649   9194527.10249  22712606.9544   22712611.3184
  24110445.567    -6342359.40249  -4660897.38249  24110447.0264   24110454.0184
 96  4 17 17  4  0.0000000  0  7 19 16 31 27  2 18  7
  20609778.230    -1344743.93849  -1043766.77149  20609779.1104   20609784.1174
  24213165.584    -3091446.28949  -2394613.56249  24213164.2024   24213170.6234
  22549971.679     3303144.27049   2580690.65849  22549972.6174   22549977.0074
  20640642.691   -10749545.99049  -8364460.17849  20640643.9614   20640648.1984
  21708260.385    -5882853.54049  -4569035.17949  21708261.2604   21708266.5164
  22731669.475    11979957.69649   9272591.11749  22731670.9834   22731676.1484
  24089434.682    -6452770.66849  -4746932.10549  24089436.1924   24089442.7404
 96  4 17 17  4 30.0000000  0  7 19 16 31 27  2 18  7
  20612971.737    -1327962.31949  -1030690.19449  20612972.7224   20612977.4854
  24218394.792    -3063966.71849  -2373200.93449  24218394.0094   24218400.4064
  22563297.598     3373176.18349   2635260.95049  22563298.5804   22563303.4054
  20632374.375   -10792997.57049  -8398318.55649  20632375.5634   20632379.6884
  21700636.585    -5922916.26249  -4600252.88349  21700637.5004   21700642.9514
  22750774.330    12080353.98649   9350821.95949  22750775.5094   22750780.5914
  24068428.504    -6563159.91249  -4832949.65549  24068430.3894   24068437.0284
 96  4 17 17  5  0.0000000  0  7 19 16 31 27  2 18  7
  20616227.767    -1310851.67049  -1017357.22849  20616228.7504   20616233.7494
  24223708.844    -3036039.04549  -2351439.14049  24223709.1634   24223715.8194
  22576714.069     3443676.29449   2690196.07349  22576714.9874   22576719.2804
  20624163.314   -10836148.42049  -8431942.59949  20624164.3224   20624168.3554
  21693061.906    -5962722.10749  -4631270.42149  21693062.9044   21693068.0314
  22769923.765    12180986.91649   9429237.19549  22769925.6604   22769930.8214
  24047434.503    -6673485.90549  -4918917.92949  24047435.8334   24047442.3464
 96  4 17 17  5 30.0000000  0  7 19 16 31 27  2 18  7
  20619544.752    -1293420.47949  -1003774.49049  20619545.9234   20619550.6924
  24229100.619    -3007699.36549  -2329356.30849  24229101.8014   24229107.9934
  22590215.057     3514624.09149   2745480.03349  22590215.5464   22590220.3824
  20616004.482   -10879021.34549  -8465350.08049  20616005.9394   20616010.1524
  21685531.709    -6002293.72649  -4662105.45049  21685532.5174   21685537.8514
  22789114.207    12281833.26849   9507818.73749  22789115.6414   22789120.9904
  24026452.856    -6783741.26749  -5004831.14049  24026453.9804   24026461.7954
 96  4 17 17  6  0.0000000  0  7 19 16 31 27  2 18  7
  20622922.784    -1275669.88849   -989942.86949  20622923.7344   20622928.6324
  24234568.645    -2978967.93249  -2306968.20749  24234569.4464   24234575.6774
  22603797.203     3586001.21849   2801098.54649  22603798.6654   22603802.3724
  20607895.150   -10921636.86449  -8498556.97849  20607896.4264   20607900.5154
  21678043.384    -6041646.06149  -4692769.60349  21678044.2304   21678049.3204
  22808344.646    12382888.62749   9586563.13449  22808345.6614   22808350.6334
  24005487.030    -6893922.00649  -5090686.20149  24005487.5314   24005494.5784
 96  4 17 17  6 30.0000000  0  7 19 16 31 27  2 18  7
  20626358.832    -1257613.81149   -975873.20649  20626360.0104   20626364.6774
  24240110.248    -2949848.30449  -2284277.62849  24240111.1694   24240116.4674
  22617464.628     3657818.02449   2857059.66749  22617464.6074   22617468.5544
  20599834.150   -10963998.62849  -8531566.14349  20599835.2274   20599839.4054
  21670595.220    -6080787.83749  -4723269.68549  21670595.8914   21670601.0984
  22827618.592    12484172.08549   9665485.27949  22827619.7784   22827623.7874
  23984537.650    -7004009.56449  -5176468.68549  23984537.7624   23984545.9724
 96  4 17 17  7  0.0000000  0  7 19 16 31 27  2 18  7
  20629850.633    -1239264.73749   -961575.24149  20629851.7424   20629856.3464
  24245725.317    -2920336.08749  -2261281.12149  24245727.4594   24245732.9434
  22631218.023     3730096.28649   2913380.36149  22631218.5574   22631223.2184
  20591821.617   -11006104.49149  -8564375.90749  20591822.5784   20591826.8214
  21663191.077    -6119695.28649  -4753587.17449  21663192.0234   21663196.9864
  22846937.655    12585694.17749   9744593.36349  22846938.5054   22846944.0684
  23963610.581    -7113983.02949  -5262162.25149  23963611.1944   23963618.4074
 96  4 17 17  7 30.0000000  0  7 19 16 31 27  2 18  7
  20633398.449    -1220621.24849   -947047.85649  20633399.4084   20633404.0284
  24251419.661    -2890415.11749  -2237966.10449  24251420.4664   24251426.7264
  22645060.741     3802841.00849   2970064.53349  22645061.6974   22645065.7994
  20583858.626   -11047950.21549  -8596982.96649  20583859.6324   20583864.1284
  21655838.796    -6158332.26949  -4783693.91149  21655839.4514   21655844.4914
  22866301.204    12687451.64149   9823884.86149  22866302.2594   22866307.4314
  23942704.915    -7223837.55949  -5347763.12849  23942706.8084   23942714.9394
 96  4 17 17  8  0.0000000  0  7 19 16 31 27  2 18  7
  20636995.993    -1201714.87649   -932315.62849  20636997.1424   20637001.6814
  24257186.591    -2860113.55449  -2214354.52549  24257186.0224   24257192.6194
  22658986.496     3876017.86549   3027085.43049  22658987.4874   22658991.0274
  20575940.837   -11089557.99549  -8629404.61249  20575941.7434   20575946.1094
  21648532.257    -6196728.04249  -4813612.68949  21648532.9634   21648538.2384
  22885701.903    12789405.56549   9903329.43449  22885703.9134   22885708.6994
  23921814.351    -7333622.48249  -5433309.81849  23921815.7274   23921821.6484
 96  4 17 17  8 30.0000000  0  7 19 16 31 27  2 18  7
  20640644.210    -1182542.56149   -917376.16949  20640645.6304   20640650.1534
  24263025.414    -2829427.89749  -2190443.65449  24263025.5504   24263032.2164
  22672996.386     3949639.23149   3084452.70049  22672996.8704   22673001.2194
  20568073.606   -11130898.32449  -8661617.85449  20568074.9574   20568079.4524
  21641275.575    -6234862.94749  -4843328.19949  21641276.3464   21641281.4104
  22905141.331    12891559.54349   9982929.89849  22905142.8654   22905147.9424
  23900935.518    -7443334.91649  -5518799.97949  23900936.9054   23900944.7664
 96  4 17 17  9  0.0000000  0  7 19 16 31 27  2 18  7
  20644350.996    -1163062.97149   -902197.27449  20644352.5634   20644356.9934
  24268941.035    -2798337.11449  -2166217.09649  24268942.5324   24268948.2854
  22687094.263     4023728.16149   3142184.30349  22687095.5444   22687099.3674
  20560262.349   -11171948.54149  -8693605.03249  20560263.1964   20560267.8874
  21634075.018    -6272700.32749  -4872811.87149  21634075.7914   21634081.1744
  22924619.986    12993919.81249  10062691.10749  22924620.5624   22924626.6934
  23880076.816    -7552952.65449  -5604216.34149  23880078.1644   23880084.2514
 96  4 17 17  9 30.0000000  0  7 19 16 31 27  2 18  7
  20648113.888    -1143288.77249   -886788.81949  20648115.4784   20648119.8304
  24274927.782    -2766878.75249  -2141704.12149  24274927.7184   24274935.0954
  22701274.393     4098244.06449   3200248.61549  22701275.2884   22701280.4694
  20552499.667   -11212740.38349  -8725390.88249  20552500.8614   20552505.4364
  21626921.537    -6310292.64649  -4902104.58549  21626922.4644   21626927.4564
  22944130.293    13096449.98249  10142584.71149  22944131.9974   22944138.4014
  23859228.034    -7662514.87249  -5689589.48649  23859228.2714   23859235.6804
 96  4 17 17 10  0.0000000  0  7 19 16 31 27  2 18  7
  20651939.025    -1123190.34249   -871127.71649  20651939.8314   20651944.5484
  24280987.907    -2735032.43849  -2116888.83449  24280987.8944   24280994.9984
  22715538.607     4173203.25849   3258658.34849  22715539.8334   22715544.4984
  20544791.980   -11253246.64549  -8756954.20149  20544792.6644   20544797.3634
  21619814.414    -6347640.57349  -4931206.86749  21619815.2474   21619820.4114
  22963680.491    13199182.79149  10222636.19949  22963681.1214   22963687.5524
  23838392.170    -7772004.00549  -5774905.68349  23838392.6904   23838400.5854
 96  4 17 17 10 30.0000000  0  7 19 16 31 27  2 18  7
  20655823.385    -1102775.51249   -855220.06649  20655824.8444   20655829.1094
  24287121.307    -2702806.04049  -2091777.38749  24287121.0654   24287127.3014
  22729888.353     4248607.52449   3317414.88849  22729888.4644   22729892.7834
  20537133.367   -11293492.46049  -8788314.57649  20537134.1864   20537139.0134
  21612750.935    -6384760.83249  -4960131.74449  21612751.8234   21612756.6604
  22983268.387    13302118.39749  10302845.73049  22983269.5924   22983275.9644
  23817573.666    -7881407.68149  -5860155.25949  23817574.5944   23817581.1924
 96  4 17 17 11  0.0000000  0  7 19 16 31 27  2 18  7
  20659771.245    -1082030.76949   -839055.34149  20659772.4664   20659777.0524
  24293328.991    -2670185.91249  -2066359.12749  24293328.6684   24293335.4244
  22744322.192     4324460.52949   3376521.09549  22744322.9854   22744327.1774
  20529524.073   -11333480.77949  -8819474.30749  20529524.6954   20529529.3584
  21605730.403    -6421655.08249  -4988880.50749  21605730.9034   21605735.8484
  23002898.628    13405274.07549  10383226.73649  23002899.5394   23002905.5904
  23796774.091    -7990711.00549  -5945326.63449  23796774.9134   23796781.4704
 96  4 17 17 11 30.0000000  0  7 19 16 31 27  2 18  7
  20663780.161    -1060961.69849   -822637.89049  20663781.4444   20663786.0924
  24299611.252    -2637165.91949  -2040629.29049  24299612.2874   24299618.6164
  22758840.209     4400757.19449   3435973.00849  22758842.0434   22758846.2334
  20521965.146   -11373202.48549  -8850426.29149  20521966.1714   20521970.8614
  21598751.632    -6458328.11049  -5017456.89149  21598752.0394   21598757.1674
  23022571.100    13508655.83049  10463783.91049  23022571.5744   23022577.4514
  23775992.698    -8099918.92749  -6030423.67649  23775993.2294   23776000.2074
 96  4 17 17 12  0.0000000  0  7 19 16 31 27  2 18  7
  20667849.618    -1039578.14049   -805975.38649  20667850.6674   20667855.3674
  24305973.101    -2603733.54649  -2014578.12049  24305974.3394   24305980.1494
  22773442.497     4477488.05449   3495763.26949  22773443.3454   22773447.4864
  20514456.452   -11412660.48249  -8881172.78549  20514457.6984   20514461.8534
  21591817.477    -6494767.44849  -5045851.17849  21591817.8504   21591823.0194
  23042287.022    13612263.40849  10544517.03449  23042287.9214   23042293.8964
  23755232.812    -8209014.70749  -6115433.34949  23755234.4064   23755240.6844
 96  4 17 17 12 30.0000000  0  7 19 16 31 27  2 18  7
  20671979.743    -1017873.89249   -789062.99549  20671980.8814   20671985.4864
  24312417.039    -2569871.53149  -1988192.16349  24312417.2454   24312424.8874
  22788126.455     4554656.57049   3555894.53949  22788127.6894   22788132.5434
  20506998.608   -11451852.24949  -8911711.82649  20506999.7754   20507003.8934
  21584932.966    -6530944.70449  -5074041.24349  21584933.6874   21584938.6034
  23062044.931    13716092.29749  10625422.61749  23062046.0534   23062051.9304
  23734495.282    -8317984.69649  -6200344.98449  23734496.3444   23734503.8334
 96  4 17 17 13  0.0000000  0  7 19 16 31 27  2 18  7
  20676170.086     -995853.78049   -771904.47649  20676171.0694   20676175.9704
  24318944.261    -2535572.26049  -1961465.48249  24318944.5214   24318951.2464
  22802890.102     4632239.23049   3616348.52749  22802891.0774   22802895.9224
  20499592.880   -11490770.39149  -8942037.65549  20499593.9354   20499598.3444
  21578100.648    -6566847.45949  -5102017.42049  21578101.8494   21578106.8944
  23081840.838    13820118.61649  10706482.04449  23081841.6264   23081847.3944
  23713780.871    -8426840.40449  -6285167.58049  23713782.8634   23713789.1594
 96  4 17 17 13 30.0000000  0  7 19 16 31 27  2 18  7
  20680422.380     -973507.12149   -754491.50849  20680423.7094   20680428.4694
  24325555.505    -2500827.58449  -1934391.73749  24325556.0104   24325562.0154
  22817732.455     4710234.90449   3677124.35149  22817733.9224   22817738.1904
  20492239.740   -11529409.85949  -8972146.33449  20492240.9154   20492245.3714
  21571321.756    -6602471.75749  -5129776.61849  21571322.4274   21571327.5844
  23101670.408    13924323.96449  10787680.97349  23101670.8454   23101676.6844
  23693088.052    -8535583.46649  -6369902.41849  23693089.0574   23693096.1924
 96  4 17 17 14  0.0000000  0  7 19 16 31 27  2 18  7
  20684736.340     -950838.12449   -736827.36549  20684737.4674   20684742.0584
  24332247.927    -2465656.28949  -1906985.56649  24332248.6914   24332255.2494
  22832649.007     4788624.32649   3738206.97849  22832649.9864   22832654.4064
  20484937.418   -11567783.39049  -9002047.78949  20484938.5924   20484943.4974
  21564593.144    -6637830.64649  -5157329.00749  21564593.8834   21564599.1684
  23121530.575    14028690.17149  10869005.25449  23121531.5744   23121537.2154
  23672415.445    -8644219.29549  -6454553.65849  23672417.1594   23672423.4284
 96  4 17 17 14 30.0000000  0  7 19 16 31 27  2 18  7
  20689116.070     -927821.20449   -718892.11049  20689117.2094   20689121.9734
  24339020.996    -2430064.44149  -1879251.69149  24339021.6354   24339028.8994
  22847644.338     4867426.28249   3799611.06249  22847646.3974   22847650.8874
  20477689.114   -11605871.86749  -9031727.12649  20477690.5704   20477695.3184
  21557915.845    -6672919.92449  -5184671.30449  21557916.6164   21557921.8224
  23141422.547    14133220.95549  10950457.76349  23141423.1864   23141428.3254
  23651763.847    -8752744.10149  -6539118.39749  23651764.9324   23651771.3414
 96  4 17 17 15  0.0000000  0  7 19 16 31 27  2 18  7
  20693559.785     -904470.13449   -700696.48049  20693561.0394   20693565.6704
  24345866.599    -2394096.66849  -1851224.88749  24345865.8104   24345873.5344
  22862717.347     4946631.96749   3861329.74649  22862718.1404   22862722.9874
  20470496.038   -11643673.06549  -9061182.60749  20470497.3644   20470501.7914
  21551282.763    -6707776.25249  -5211832.07949  21551283.5384   21551289.0364
  23161343.665    14237906.95349  11032031.21749  23161343.8564   23161348.8204
  23631131.676    -8861164.87649  -6623602.08849  23631132.5384   23631140.5434
 96  4 17 17 15 30.0000000  0  7 19 16 31 27  2 18  7
  20698068.187     -880778.61149   -682235.57049  20698069.4254   20698073.9134
  24352777.859    -2357776.23549  -1822923.27849  24352778.0094   24352785.6014
  22877869.412     5026257.15649   3923375.31649  22877869.7464   22877875.2294
  20463359.848   -11681172.53149  -9090402.97549  20463361.4824   20463365.9694
  21544693.130    -6742404.12249  -5238814.84049  21544694.2104   21544699.4804
  23181299.648    14342776.53849  11113747.73849  23181300.8714   23181305.5544
  23610522.016    -8969467.81649  -6707993.92449  23610523.4684   23610530.7194
 96  4 17 17 16  0.0000000  0  7 19 16 31 27  2 18  7
  20702639.830     -856752.59649   -663514.01249  20702641.4724   20702646.2454
  24359752.945    -2321113.83449  -1794355.21849  24359754.8464   24359760.7514
  22893102.365     5106308.02649   3985752.58349  22893103.7754   22893108.7974
  20456285.232   -11718350.22249  -9119372.61149  20456286.2734   20456291.1214
  21538147.885    -6776799.87649  -5265616.73249  21538148.7084   21538154.0284
  23201294.685    14447855.37249  11195627.29849  23201297.0414   23201301.1504
  23589940.664    -9077623.71749  -6792271.21149  23589941.5114   23589949.0734
 96  4 17 17 16 30.0000000  0  7 19 16 31 27  2 18  7
  20707270.075     -832422.62549   -644555.60349  20707271.0384   20707276.0524
  24366792.588    -2284121.90849  -1765530.36449  24366793.4284   24366800.7444
  22908414.896     5186775.62449   4048454.55849  22908415.4514   22908421.1864
  20449269.372   -11755218.34349  -9148101.01849  20449270.8184   20449275.2114
  21531643.083    -6810983.41849  -5292253.26749  21531644.0154   21531649.3094
  23221329.623    14553136.78649  11277664.72549  23221331.5224   23221335.6074
  23569386.425    -9185637.91949  -6876438.08549  23569387.0744   23569395.7864
 96  4 17 17 17  0.0000000  0  7 19 16 31 27  2 18  7
  20711955.876     -807796.55249   -625366.47649  20711957.4554   20711962.1214
  24373896.470    -2246791.39149  -1736441.67449  24373897.2014   24373904.4184
  22923805.752     5267658.14549   4111479.86549  22923807.3064   22923812.0284
  20442313.534   -11791772.41649  -9176584.71149  20442314.7254   20442319.4304
  21525178.736    -6844952.55449  -5318722.73149  21525179.8674   21525185.2994
  23241402.989    14658624.06849  11359862.55949  23241404.0524   23241409.6134
  23548860.813    -9293501.19149  -6960487.33449  23548862.6824   23548869.6274
 96  4 17 17 17 30.0000000  0  7 19 16 31 27  2 18  7
  20716697.600     -782878.51849   -605949.83849  20716699.3304   20716703.7944
  24381069.362    -2209095.70449  -1707068.46049  24381070.8514   24381077.9854
  22939274.738     5348945.30449   4174820.47249  22939275.7824   22939281.1824
  20435414.593   -11828026.27549  -9204834.48149  20435416.2674   20435420.4854
  21518757.023    -6878700.16649  -5345019.57649  21518757.8994   21518763.0554
  23261515.820    14764317.37049  11442220.93449  23261517.5064   23261522.1414
  23528362.393    -9401222.43649  -7044425.91849  23528363.8594   23528370.6304
 96  4 17 17 18  0.0000000  0  7 19 16 31 27  2 18  7
  20721491.218     -757686.94449   -586320.05449  20721492.7954   20721497.4884
  24388313.023    -2171026.90549  -1677404.50249  24388315.0894   24388322.5294
  22954814.315     5430606.31149   4238452.38549  22954815.6984   22954820.3344
  20428568.628   -11864003.18449  -9232868.43949  20428570.0614   20428574.3404
  21512375.235    -6912236.77149  -5371151.99249  21512376.3064   21512381.4194
  23281659.733    14870176.70849  11524708.68149  23281661.6884   23281666.5014
  23507885.712    -9508821.41449  -7128269.24749  23507888.2574   23507896.0014
 96  4 17 17 18 30.0000000  0  7 19 16 31 27  2 18  7
  20726342.496     -732196.82149   -566457.63549  20726343.4494   20726348.3704
  24395632.446    -2132571.75449  -1647439.47449  24395634.0494   24395638.8844
  22970425.573     5512642.30549   4302376.50349  22970426.1704   22970431.5424
  20421775.360   -11899703.80449  -9260687.10949  20421776.4034   20421780.7914
  21506036.990    -6945543.46749  -5397105.26249  21506037.9964   21506043.4074
  23301833.609    14976188.02349  11607314.84949  23301834.5494   23301841.0744
  23487432.316    -9616309.97949  -7212026.52949  23487433.4494   23487440.5324
 96  4 17 17 19  0.0000000  0  7 19 16 31 27  2 18  7
  20731254.193     -706384.74249   -546344.34049  20731255.5794   20731260.3564
  24403022.507    -2093731.79649  -1617174.60049  24403024.2724   24403030.8564
  22986106.903     5595049.40349   4366589.78249  22986108.5664   22986113.1544
  20415036.097   -11935117.27749  -9288282.03349  20415037.4344   20415041.7214
  21499746.174    -6978602.76749  -5422865.75749  21499747.1014   21499752.3704
  23322033.868    15082340.26349  11690030.83049  23322035.5164   23322041.1864
  23467000.084    -9723684.58249  -7295695.01649  23467001.6594   23467007.0894
 96  4 17 17 19 30.0000000  0  7 19 16 31 27  2 18  7
  20736227.098     -680251.25549   -525980.59849  20736228.5474   20736233.5934
  24410485.955    -2054515.62949  -1586616.60049  24410487.0024   24410494.5864
  23001857.907     5677818.13049   4431084.84949  23001859.0154   23001862.9704
  20408351.826   -11970244.21749  -9315653.68049  20408352.9644   20408357.4364
  21493502.574    -7011412.35449  -5448431.67249  21493503.7924   21493508.9574
  23342258.488    15188620.20749  11772846.31949  23342259.5094   23342264.9954
  23446588.261    -9830948.35249  -7379277.14349  23446589.8274   23446595.3164
 96  4 17 17 20  0.0000000  0  7 19 16 31 27  2 18  7
  20741262.350     -653790.29349   -505361.68149  20741263.8404   20741268.7914
  24418012.827    -2014955.56749  -1555790.60349  24418014.7924   24418020.5364
  23017676.074     5760943.31249   4495857.67449  23017676.4684   23017681.7414
  20401721.524   -12005086.25549  -9342803.32349  20401722.8234   20401727.0814
  21487307.565    -7043969.67549  -5473801.01549  21487308.4614   21487313.5904
  23362501.760    15295000.47349  11855739.98449  23362503.3004   23362507.7364
  23426200.625    -9938087.05849  -7462761.81249  23426201.7324   23426207.9134
 96  4 17 17 20 30.0000000  0  7 19 16 31 27  2 18  7
  20746362.184     -626992.02349   -484479.92649  20746363.2914   20746368.0664
  24425603.708    -1975070.71649  -1524711.53949  24425605.0934   24425611.9994
  23033564.207     5844436.12849   4560916.96549  23033564.7884   23033569.5564
  20395147.315   -12039633.93249  -9369723.59349  20395148.4854   20395153.1714
  21481158.733    -7076281.04949  -5498978.70949  21481159.5774   21481164.8004
  23382766.432    15401491.38349  11938719.85849  23382767.7214   23382773.3294
  23405839.925   -10045082.77649  -7546135.06449  23405841.5914   23405847.3914
 96  4 17 17 21  0.0000000  0  7 19 16 31 27  2 18  7
  20751522.829     -599871.62349   -463347.17249  20751524.0594   20751529.2614
  24433254.474    -1934861.45149  -1493379.68849  24433256.7664   24433263.6484
  23049522.800     5928302.34249   4626267.21149  23049524.0594   23049529.2834
  20388630.218   -12073882.21249  -9396410.57049  20388631.2174   20388635.7744
  21475056.654    -7108348.64649  -5523966.45049  21475057.4614   21475062.3194
  23403055.154    15508110.36549  12021799.52849  23403055.7274   23403062.8554
  23385509.761   -10151919.92049  -7629384.75249  23385510.9824   23385517.4814
 96  4 17 17 21 30.0000000  0  7 19 16 31 27  2 18  7
  20756744.312     -572435.26049   -441968.20649  20756745.2714   20756750.4064
  24440964.913    -1894344.40249  -1461808.01249  24440966.2394   24440973.2124
  23065552.128     6012536.10549   4691903.85849  23065553.3694   23065558.5634
  20382167.893   -12107842.14449  -9422872.85949  20382169.0114   20382173.7414
  21468998.525    -7140184.10549  -5548773.30149  21468999.2594   21469004.5954
  23423368.226    15614854.14949  12104976.44449  23423370.1344   23423374.6334
  23365208.132   -10258604.32849  -7712515.42349  23365209.9204   23365214.9214
 96  4 17 17 22  0.0000000  0  7 19 16 31 27  2 18  7
  20762029.356     -544660.71649   -420325.71649  20762030.6844   20762035.8474
  24448737.439    -1853506.54249  -1429986.33049  24448736.6794   24448744.6954
  23081654.038     6097153.68649   4757839.59549  23081655.7844   23081659.7794
  20375763.755   -12141494.58749  -9449095.54549  20375764.9494   20375769.7124
  21462987.520    -7171772.27649  -5573387.46549  21462988.3314   21462993.4424
  23443709.413    15721749.47849  12188271.45249  23443710.8044   23443716.2064
  23344940.813   -10365109.56649  -7795506.46449  23344942.9424   23344949.0314
 96  4 17 17 22 30.0000000  0  7 19 16 31 27  2 18  7
  20767383.799     -516523.22349   -398400.41149  20767384.9544   20767390.0114
  24456576.960    -1812306.76549  -1397882.65149  24456577.2274   24456584.0254
  23097834.496     6182178.82349   4824092.89749  23097835.1534   23097840.7524
  20369426.687   -12174797.23149  -9475045.65649  20369427.7844   20369432.5724
  21457027.931    -7203090.83649  -5597791.53749  21457028.6474   21457033.6624
  23464088.767    15828842.30649  12271720.35649  23464090.2124   23464095.2744
  23324710.302   -10471422.32049  -7878347.53549  23324711.2154   23324717.4894
 96  4 17 17 23  0.0000000  0  7 19 16 31 27  2 18  7
  20772806.493     -488027.18049   -376195.72549  20772807.5074   20772812.7504
  24464486.548    -1770745.43749  -1365497.24949  24464486.2644   24464494.1064
  23114090.106     6267603.67149   4890657.65649  23114091.3444   23114096.0414
  20363154.921   -12207754.50849  -9500726.65449  20363156.1784   20363160.6724
  21451120.015    -7234137.13249  -5621983.45749  21451120.7674   21451125.7384
  23484503.018    15936120.11949  12355313.40149  23484504.3314   23484509.9104
  23304512.590   -10577561.54749  -7961053.38349  23304514.1334   23304520.0344
 96  4 17 17 23 30.0000000  0  7 19 16 31 27  2 18  7
  20778293.899     -459193.75449   -353728.13749  20778294.5994   20778299.7224
  24472458.401    -1728849.85849  -1332851.38349  24472459.3654   24472466.2704
  23130416.140     6353396.85549   4957509.44249  23130417.0094   23130422.0494
  20356944.595   -12240391.03449  -9526157.71349  20356945.4564   20356950.3924
  21445257.724    -7264944.67149  -5645989.33049  21445258.3154   21445263.4044
  23504943.890    16043533.66049  12439012.21249  23504944.1554   23504950.8484
  23284343.980   -10683548.97549  -8043640.95949  23284345.6004   23284351.1974
 96  4 17 17 24  0.0000000  0  7 19 16 31 27  2 18  7
  20783840.936     -430041.36449   -331012.00349  20783842.3064   20783847.1124
  24480495.237    -1686616.97349  -1299942.70149  24480496.5994   24480502.8094
  23146810.053     6439549.44049   5024641.28249  23146812.4584   23146816.2474
  20350796.487   -12272701.39849  -9551334.62449  20350797.1774   20350802.0974
  21439439.628    -7295518.02549  -5669812.72449  21439440.4414   21439445.5104
  23525408.624    16151078.56449  12522813.37649  23525409.7594   23525415.8934
  23264203.300   -10789389.79449  -8126114.27649  23264204.1224   23264210.3234
 96  4 17 17 24 30.0000000  0  7 19 16 31 27  2 18  7
  20789451.142     -400559.87049   -308039.42749  20789452.3974   20789457.1424
  24488600.332    -1644026.04249  -1266755.00249  24488600.0044   24488606.8384
  23163276.886     6526080.05849   5092067.68549  23163277.5764   23163282.6134
  20344713.090   -12304667.93349  -9576243.61449  20344714.6384   20344718.7764
  21433666.836    -7325852.64749  -5693450.09149  21433667.9904   21433672.9244
  23545901.319    16258767.43249  12606726.73249  23545902.0054   23545907.8924
  23244093.560   -10895065.21049  -8208458.71449  23244094.2494   23244101.0794
 96  4 17 17 25  0.0000000  0  7 19 16 31 27  2 18  7
  20795123.429     -370755.60749   -284815.34749  20795124.2284   20795128.8244
  24496771.777    -1601084.99849  -1233294.48249  24496771.2854   24496780.2304
  23179812.531     6612980.09249   5159781.94249  23179815.0104   23179819.1244
  20338693.800   -12336299.55449  -9600891.63649  20338694.7994   20338699.3044
  21427937.741    -7355958.85949  -5716909.47849  21427938.8944   21427944.0684
  23566418.891    16366588.04249  12690742.74649  23566420.2164   23566425.5064
  23224017.582   -11000564.26349  -8290665.73149  23224019.4724   23224025.3004
 96  4 17 17 25 30.0000000  0  7 19 16 31 27  2 18  7
  20800854.231     -340637.09249   -261346.38649  20800855.4444   20800860.3334
  24505007.523    -1557802.00749  -1199567.51549  24505008.7894   24505015.0314
  23196417.969     6700232.78949   5227771.01249  23196417.8704   23196423.6854
  20332737.139   -12367603.74549  -9625284.52249  20332738.3354   20332742.4764
  21422249.843    -7385850.86449  -5740201.94849  21422250.6104   21422255.8564
  23586961.173    16474537.31449  12774859.00349  23586962.2954   23586968.2654
  23203976.901   -11105881.40049  -8372730.99249  23203978.0814   23203983.1414
 96  4 17 17 26  0.0000000  0  7 19 16 31 27  2 18  7
  20806646.012     -310203.45349   -237631.87849  20806646.9504   20806651.5834
  24513308.834    -1514189.01949  -1165583.41749  24513308.1884   24513314.5664
  23213086.941     6787832.53449   5296030.50749  23213088.4684   23213092.6784
  20326842.483   -12398580.84249  -9649422.52649  20326843.5984   20326847.8134
  21416602.513    -7415529.36849  -5763328.05549  21416603.0364   21416608.1374
  23607531.131    16582631.27249  12859088.00649  23607531.7484   23607537.2554
  23183968.111   -11211027.06149  -8454662.63949  23183969.9564   23183975.7724
 96  4 17 17 26 30.0000000  0  7 19 16 31 27  2 18  7
  20812501.793     -279429.40049   -213652.10949  20812502.8854   20812507.9074
  24521671.937    -1470236.49649  -1131334.73249  24521672.3224   24521678.2364
  23229825.542     6875792.26749   5364570.51249  23229825.6204   23229830.4674
  20321009.318   -12429233.90049  -9673308.03949  20321009.9714   20321014.4924
  21410995.784    -7444991.87749  -5786285.85449  21410996.1594   21411001.5104
  23628127.972    16690870.84249  12943430.48249  23628128.3074   23628133.6044
  23163996.731   -11315979.23749  -8536443.51649  23163997.9444   23164003.6744
 96  4 17 17 27  0.0000000  0  7 19 16 31 27  2 18  7
  20818421.780     -248319.12849   -189410.35349  20818422.9594   20818427.6324
  24530096.148    -1425959.97449  -1096833.55749  24530096.7234   24530104.0854
  23246629.913     6964100.69149   5433382.23049  23246630.6204   23246635.1144
  20315234.809   -12459580.16349  -9696954.49249  20315235.5274   20315239.8284
  21405431.751    -7474231.07949  -5809069.64749  21405432.4544   21405437.6074
  23648749.323    16799236.35449  13027871.09449  23648751.0564   23648756.0124
  23144057.064   -11420763.47149  -8618093.54449  23144057.4994   23144063.6374
 96  4 17 17 27 30.0000000  0  7 19 16 31 27  2 18  7
  20824403.897     -216883.40949   -164915.00049  20824404.6734   20824409.4984
  24538581.704    -1381371.76949  -1062089.54049  24538582.6164   24538588.7894
  23263502.457     7052762.31249   5502469.16049  23263502.3634   23263507.8844
  20309515.474   -12489634.96849  -9720373.82949  20309516.1914   20309520.5224
  21399909.892    -7503248.06049  -5831680.27949  21399910.6674   21399915.9624
  23669392.747    16907717.63449  13112401.90649  23669393.8194   23669400.6184
  23124146.345   -11525391.50149  -8699621.83949  23124147.9194   23124153.7454
 96  4 17 17 28  0.0000000  0  7 19 16 31 27  2 18  7
  20830448.022     -185120.08249   -140164.37549  20830449.2934   20830454.0544
  24547125.290    -1336469.91349  -1027101.09149  24547127.3024   24547133.7164
  23280438.946     7141771.29949   5571826.77049  23280439.4454   23280444.9324
  20303851.759   -12519396.65049  -9743564.76249  20303852.5474   20303857.1424
  21394429.817    -7532046.25849  -5854120.43549  21394430.5524   21394435.8084
  23690056.285    17016304.16649  13197014.74649  23690056.5304   23690061.7414
  23104268.324   -11629851.43349  -8781019.14849  23104269.3084   23104276.2454
 96  4 17 17 28 30.0000000  0  7 19 16 31 27  2 18  7
  20836558.797     -153007.60749   -115141.68449  20836560.0714   20836564.8574
  24555734.162    -1291238.52249   -991855.88749  24555734.0804   24555740.6004
  23297445.528     7231136.91649   5641462.27049  23297445.8154   23297450.1704
  20298246.013   -12548851.18449  -9766516.35249  20298247.7294   20298252.3984
  21388994.267    -7560608.41349  -5876376.66249  21388995.3504   21389000.4154
  23710736.629    17124985.23249  13281701.23349  23710738.0184   23710743.9684
  23084427.497   -11734116.21849  -8862264.42049  23084428.4094   23084434.5474
 96  4 17 17 29  0.0000000  0  7 19 16 31 27  2 18  7
  20842732.547     -120563.72349    -89860.75149  20842733.7964   20842738.6434
  24564402.962    -1245685.97849   -956360.44449  24564403.5314   24564408.4914
  23314515.709     7320842.74249   5711362.87349  23314517.0964   23314521.9904
  20292701.902   -12577987.40049  -9789219.90349  20292703.2174   20292707.8304
  21383604.189    -7588932.89449  -5898447.68449  21383605.1984   21383610.5154
  23731434.402    17233758.03849  13366459.20849  23731435.9914   23731443.0284
  23064622.751   -11838189.90649  -8943360.75849  23064624.1314   23064629.5584
 96  4 17 17 29 30.0000000  0  7 19 16 31 27  2 18  7
  20848968.558      -87793.31949    -64325.39349  20848969.8094   20848974.6574
  24573128.304    -1199820.83649   -920621.41549  24573130.6014   24573137.6614
  23331647.245     7410868.76449   5781512.98049  23331647.4014   23331652.9484
  20287220.610   -12606793.64349  -9811666.33049  20287221.4954   20287226.1214
  21378256.491    -7617034.95349  -5920345.39549  21378257.6454   21378262.9704
  23752151.312    17342617.82649  13451284.96749  23752150.8874   23752156.8844
  23044858.909   -11942048.22349  -9024289.29549  23044860.1174   23044865.8334
 96  4 17 17 30  0.0000000  0  7 19 16 31 27  2 18  7
  20855267.234      -54691.75649    -38531.98249  20855268.7974   20855273.8914
  24581914.452    -1153652.70149   -884646.29149  24581916.1004   24581922.1404
  23348835.888     7501197.20149   5851898.73649  23348837.1864   23348841.3494
  20281804.183   -12635255.28049  -9833844.23949  20281805.6854   20281809.9594
  21372952.633    -7644908.54849  -5942065.08149  21372953.3024   21372958.7694
  23772882.009    17451558.11349  13536173.44549  23772882.9874   23772888.5304
  23025136.077   -12045690.56549  -9105049.52649  23025138.2444   23025143.8604
 96  4 17 17 30 30.0000000  0  8 19 16 31 15 27  2 18  7
  20861627.909      -21266.06749    -12486.00549  20861629.4274   20861634.7134
  24590757.059    -1107185.84949   -848438.40749  24590758.7464   24590765.2304
  23366083.271     7591835.45049   5922525.89049  23366084.9684   23366089.4024
  24642575.830    -5513623.78359  -3938076.24059  24642576.3874   24642582.1874
  20276456.778   -12663359.24849  -9855743.44049  20276457.6124   20276462.0094
  21367695.106    -7672536.12049  -5963593.06049  21367695.9994   21367701.3434
  23793629.338    17560589.72849  13621133.09049  23793631.1304   23793637.9404
  23005451.033   -12149140.85549  -9185660.11849  23005451.5484   23005457.2644
 96  4 17 17 31  0.0000000  0  8 19 16 31 15 27  2 18  7
  20868050.845       12483.98549     13812.72149  20868051.9274   20868057.0834
  24599656.793    -1060420.53649   -811997.97049  24599657.2924   24599662.8174
  23383393.081     7682792.68649   5993401.60749  23383393.0104   23383398.2304
  24629315.560    -5583305.05849  -3992373.29749  24629316.4894   24629322.5044
  20271181.233   -12691080.05349  -9877344.06749  20271182.6554   20271186.9154
  21362486.545    -7699906.42949  -5984920.57649  21362487.5554   21362492.9394
  23814401.719    17669748.19449  13706191.56549  23814403.6384   23814408.9874
  22985801.924   -12252392.52049  -9266115.93049  22985803.1774   22985809.5564
 96  4 17 17 31 30.0000000  0  8 19 16 31 15 27  2 18  7
  20874538.212       46574.92649     40377.07049  20874539.2494   20874544.2314
  24608614.254    -1013347.75349   -775317.94849  24608616.1574   24608622.0954
  23400764.214     7774084.51349   6064538.04649  23400765.5794   23400769.6244
  24616094.265    -5652784.44149  -4046513.03549  24616094.5874   24616101.2894
  20265979.588   -12718415.26649  -9898644.24149  20265981.0024   20265985.6734
  21357328.475    -7727013.54349  -6006043.00549  21357329.4854   21357334.7274
  23835199.513    17779038.93249  13791353.11649  23835200.3444   23835206.6394
  22966193.822   -12355435.66249  -9346409.24949  22966195.9914   22966201.0334
 96  4 17 17 32  0.0000000  0  8 19 16 31 15 27  2 18  7
  20881088.597       80997.25049     67199.64849  20881089.8244   20881094.8414
  24617630.927     -965972.20949   -738401.99749  24617629.3684   24617637.0224
  23418198.788     7865700.49449   6135927.07449  23418199.2254   23418205.1254
  24602908.001    -5722072.41549  -4100503.63049  24602909.7134   24602916.6044
  20260848.254   -12745381.64749  -9919657.01049  20260849.3664   20260853.9914
  21352217.685    -7753871.61349  -6026971.37149  21352218.4624   21352223.5214
  23856018.983    17888445.21549  13876604.72049  23856020.8414   23856025.5934
  22946619.140   -12458300.27249  -9426563.47149  22946620.0444   22946626.8314
 96  4 17 17 32 30.0000000  0  8 19 16 31 15 27  2 18  7
  20887704.351      115763.80249     94290.45449  20887705.6534   20887710.7714
  24626704.649     -918281.52349   -701240.49849  24626705.7594   24626712.1304
  23435695.414     7957650.90849   6207576.70249  23435697.1304   23435702.6244
  24589763.137    -5791151.64349  -4154331.57949  24589764.6944   24589771.1774
  20255786.428   -12771979.99049  -9940382.99949  20255787.9054   20255792.3844
  21347153.203    -7780485.48149  -6047709.45549  21347153.8994   21347159.3514
  23876860.971    17997972.46649  13961950.56649  23876862.9544   23876868.7154
  22927081.237   -12560974.17649  -9506569.08049  22927082.4694   22927088.4504
 96  4 17 17 33  0.0000000  0  8 19 16 31 15 27  2 18  7
  20894384.926      150869.47049    121645.50349  20894386.1424   20894390.9324
  24635836.550     -870296.54449   -663849.65949  24635837.1644   24635843.5644
  23453254.525     8049920.92249   6279475.35749  23453255.4694   23453260.7184
  24576656.360    -5860026.21849  -4208000.05049  24576658.3624   24576664.2304
  20250786.356   -12798256.92549  -9960858.53349  20250787.3334   20250792.0004
  21342125.353    -7806905.21549  -6068296.25949  21342126.3584   21342131.7934
  23897720.431    18107585.80949  14047363.49549  23897721.9144   23897727.0344
  22907579.371   -12663453.92049  -9586423.40349  22907580.8824   22907586.8484
 96  4 17 17 33 30.0000000  0  9 19 16 31 15 27  2 18  7 26
  20901129.607      186312.28749    149263.26849  20901130.7114   20901135.3494
  24645022.713     -822024.13349   -626234.85849  24645022.9464   24645030.0044
  23470871.950     8142501.85649   6351616.31449  23470874.2074   23470878.4124
  24563589.658    -5928700.10649  -4261512.14249  24563590.1264   24563596.0804
  20245843.260   -12824232.21649  -9981099.02449  20245844.5704   20245849.5034
  21337132.205    -7833144.98349  -6088742.83749  21337133.0704   21337138.5334
  23918587.358    18217244.13649  14132811.49549  23918589.3704   23918594.7744
  22888113.939   -12765748.96449  -9666133.79749  22888114.5454   22888120.7674
  24911342.390    -2557846.06159  -1502187.39359  24911343.0284   24911348.1464
 96  4 17 17 34  0.0000000  0  9 19 16 31 15 27  2 18  7 26
  20907938.400      222094.00049    177145.09749  20907939.8094   20907944.6734
  24654260.871     -773478.46749   -588407.13049  24654261.4144   24654268.0884
  23488548.880     8235392.09349   6423998.26349  23488549.4884   23488554.8394
  24550560.615    -5997162.61549  -4314859.51049  24550562.3634   24550568.0174
  20240959.571   -12849897.67549 -10001098.08949  20240960.7474   20240965.2224
  21332175.606    -7859191.23749  -6109038.61649  21332176.6524   21332182.3634
  23939463.273    18326944.78149  14218292.45549  23939464.7624   23939470.7874
  22868684.089   -12867852.04149  -9745694.61349  22868685.0704   22868691.3254
  24893737.868    -2650353.64549  -1574271.21049  24893739.9414   24893746.0064
 96  4 17 17 34 30.0000000  0  9 19 16 31 15 27  2 18  7 26
  20914810.926      258209.90949    205287.33749  20914812.5374   20914817.1294
  24663547.576     -724681.81649   -550383.82849  24663547.2674   24663553.6654
  23506283.054     8328588.90249   6496619.10449  23506284.9644   23506289.8004
  24537572.160    -6065416.77149  -4368044.53149  24537573.1434   24537579.9874
  20236132.958   -12875260.67549 -10020861.46949  20236134.0454   20236138.5424
  21327253.372    -7885058.70749  -6129195.08949  21327254.3164   21327259.8114
  23960346.566    18436686.55949  14303805.45949  23960347.5344   23960353.6684
  22849292.347   -12969754.90749  -9825099.41049  22849293.9724   22849299.9284
  24876177.349    -2742635.02849  -1646178.77249  24876178.9114   24876184.4284
 96  4 17 17 35  0.0000000  0  9 19 16 31 15 27  2 18  7 26
  20921746.776      294657.42749    233687.97949  20921747.9594   20921753.0784
  24672879.852     -675635.90749   -512166.28549  24672879.9984   24672887.4874
  23524075.677     8422088.01949   6569475.51049  23524077.0564   23524082.2544
  24524625.225    -6133456.79249  -4421062.70449  24524625.6874   24524632.2214
  20231367.649   -12900304.37349 -10040376.04449  20231368.4324   20231373.1284
  21322366.793    -7910737.37149  -6149204.44349  21322367.7144   21322373.0914
  23981239.163    18546478.89649  14389357.88749  23981240.4184   23981245.4494
  22829940.105   -13071452.86049  -9904344.54549  22829941.7414   22829947.3794
  24858659.936    -2834691.57349  -1717911.13449  24858661.8254   24858667.3454
 96  4 17 17 35 30.0000000  0  9 19 16 31 15 27  2 18  7 26
  20928743.800      331426.35249    262339.06649  20928744.9794   20928749.6064
  24682258.390     -626346.90449   -473759.30549  24682260.7494   24682266.4574
  23541921.640     8515867.25449   6642550.19749  23541922.8374   23541927.4494
  24511716.474    -6201286.64949  -4473917.11549  24511718.0814   24511724.6764
  20226668.265   -12924997.64449 -10059617.56349  20226669.6784   20226674.1934
  21317521.454    -7936199.56049  -6169045.11149  21317522.5854   21317527.8934
  24002144.265    18656335.80349  14474960.60449  24002145.3354   24002152.2184
  22810626.185   -13172948.89549  -9983432.33749  22810627.2774   22810633.8754
  24841184.958    -2926522.42149  -1789467.62349  24841185.9134   24841190.6274
 96  4 17 17 36  0.0000000  0  9 19 16 31 15 27  2 18  7 26
  20935803.979      368528.66649    291249.93849  20935805.4824   20935810.2054
  24691686.047     -576810.92749   -435159.88149  24691685.9854   24691693.2804
  23559817.679     8609915.89349   6715834.81549  23559819.4604   23559825.2584
  24498850.965    -6268900.49049  -4526603.19049  24498851.4224   24498857.6674
  20222037.951   -12949331.18749 -10078578.77549  20222039.0454   20222043.6554
  21312716.579    -7961449.95549  -6188720.74749  21312717.4654   21312723.0954
  24023068.100    18766288.83049  14560638.23249  24023068.6874   24023074.6124
  22791353.644   -13274227.77949 -10062350.91949  22791354.2934   22791360.7944
  24823754.441    -3018116.94749  -1860839.97749  24823756.9064   24823761.7054
 96  4 17 17 36 30.0000000  0  9 19 16 31 15 27  2 18  7 26
  20942926.559      405958.03049    320415.64449  20942927.8934   20942932.5764
  24701159.892     -527019.05449   -396361.07549  24701160.7084   24701168.3324
  23577765.085     8704223.57149   6789321.27049  23577765.8994   23577771.1834
  24486025.081    -6336300.00649  -4579122.28749  24486025.7334   24486032.2194
  20217474.460   -12973311.47149 -10097264.71749  20217475.5504   20217480.1594
  21307949.078    -7986502.68849  -6208242.36049  21307950.1684   21307955.8084
  24044008.466    18876335.36549  14646388.71849  24044010.2894   24044015.9724
  22772121.084   -13375293.98549 -10141103.78449  22772122.4734   22772128.3564
  24806368.335    -3109483.31549  -1932034.54549  24806370.5194   24806375.1024
 96  4 17 17 37  0.0000000  0  9 19 16 31 15 27  2 18  7 26
  20950109.008      443702.65149    349827.01449  20950110.2954   20950115.0554
  24710682.248     -476975.94149   -357366.49649  24710683.7034   24710690.6224
  23595758.315     8798782.94149   6863003.85949  23595759.7344   23595764.7914
  24473239.120    -6403487.62149  -4631476.27049  24473240.2554   24473246.8954
  20212979.043   -12996935.48649 -10115673.04549  20212980.3664   20212984.9304
  21303221.052    -8011347.93049  -6227602.28849  21303222.0964   21303227.6144
  24064963.667    18986455.67049  14732196.71049  24064965.6004   24064970.9424
  22752928.360   -13476150.82149 -10219693.49949  22752930.6894   22752936.0844
  24789026.767    -3200615.89649  -2003046.93149  24789027.9774   24789033.9554
 96  4 17 17 37 30.0000000  0  9 19 16 31 15 27  2 18  7 26
  20957353.379      481771.38449    379490.93449  20957354.4364   20957359.2844
  24720254.967     -426678.32849   -318173.62149  24720254.7124   24720262.4154
  23613802.817     8893603.30849   6936889.81549  23613803.5814   23613809.3084
  24460496.131    -6470454.77849  -4683658.44449  24460497.2104   24460502.3714
  20208552.064   -13020198.86049 -10133800.35749  20208553.2874   20208557.8704
  21298532.889    -8035985.51949  -6246800.41449  21298533.7624   21298539.2244
  24085933.633    19096649.13749  14818061.67449  24085934.6184   24085940.9854
  22733779.661   -13576779.40749 -10298105.35049  22733780.8814   22733786.6144
  24771730.574    -3291504.86049  -2073869.48649  24771732.5024   24771737.9264
 96  4 17 17 38  0.0000000  0  9 19 16 31 15 27  2 18  7 26
  20964659.021      520163.71549    409407.01449  20964660.5074   20964665.3994
  24729874.366     -376129.29249   -278784.82049  24729874.3844   24729881.1364
  23631897.203     8988695.07349   7010987.23849  23631898.8874   23631904.1194
  24447795.643    -6537195.96249  -4735664.54849  24447796.5974   24447803.5484
  20204191.328   -13043113.29849 -10151655.76749  20204192.8514   20204197.3114
  21293882.498    -8060423.56349  -6265843.04649  21293883.3714   21293888.9114
  24106912.660    19206897.71149  14903969.61049  24106913.8584   24106919.5024
  22714674.237   -13677177.44749 -10376337.56349  22714675.6774   22714681.7954
  24754483.498    -3382145.06749  -2144498.20049  24754484.8484   24754489.8234
 96  4 17 17 38 30.0000000  0  9 19 16 31 15 27  2 18  7 26
  20972025.550      558873.31549    439570.31749  20972026.4564   20972031.6054
  24739539.585     -325329.98249   -239201.01649  24739540.9614   24739548.4444
  23650048.259     9084075.13649   7085309.30849  23650048.8964   23650054.3074
  24435140.852    -6603701.14549  -4787486.74749  24435141.6484   24435147.5574
  20199899.206   -13065670.73349 -10169232.99949  20199900.3934   20199904.7014
  21289273.811    -8084643.24849  -6284715.53049  21289274.5494   21289280.3834
  24127900.806    19317190.29949  14989911.82649  24127902.3594   24127908.0324
  22695613.516   -13777343.99149 -10454389.38749  22695614.8054   22695620.6734
  24737283.706    -3472527.32549  -2214925.91149  24737284.4424   24737290.2934
 96  4 17 17 39  0.0000000  0  9 19 16 31 15 27  2 18  7 26
  20979449.431      597886.72949    469970.35749  20979450.9144   20979455.5134
  24749250.549     -274304.47049   -199440.94649  24749250.9364   24749258.5554
  23668249.606     9179724.38949   7159841.16249  23668249.9474   23668256.1874
  24422526.894    -6669984.98449  -4839136.46649  24422528.0784   24422534.1294
  20195673.180   -13087878.90749 -10186538.07749  20195674.5834   20195678.7934
  21284704.284    -8108657.92749  -6303428.26849  21284704.7544   21284710.1134
  24148895.263    19427515.27849  15075879.27349  24148895.4034   24148901.8854
  22676592.738   -13877297.02649 -10532274.84949  22676593.7794   22676599.6034
  24720128.740    -3562672.32249  -2285168.75449  24720131.1174   24720136.3604
 96  4 17 17 39 30.0000000  0  8 19 31 15 27  2 18  7 26
  20986932.259      637207.25749    500609.70549  20986933.2184   20986937.9584
  23686499.830     9275629.53049   7234572.38349  23686500.8104   23686506.1844
  24409956.621    -6736044.03149  -4890611.04249  24409956.9064   24409964.0014
  20191510.770   -13109751.70749 -10203581.82949  20191512.4254   20191516.7644
  21280173.496    -8132464.46449  -6321978.81949  21280174.4494   21280179.9404
  24169896.678    19537879.30449  15161877.14449  24169898.6734   24169904.7074
  22657613.364   -13977036.11649 -10609993.59549  22657614.3604   22657620.1504
  24703020.391    -3652581.68949  -2355227.99049  24703022.1394   24703027.3744
 96  4 17 17 40  0.0000000  0  8 19 31 15 27  2 18  7 26
  20994474.070      676841.87649    531493.80449  20994475.3294   20994480.4684
  23704796.895     9371778.69749   7309493.75349  23704796.9884   23704802.3364
  24397429.594    -6801873.81949  -4941906.96849  24397430.5864   24397436.4024
  20187412.594   -13131289.38649 -10220364.44549  20187413.7094   20187418.1344
  21275683.746    -8156059.50749  -6340364.56949  21275684.5444   21275689.9924
  24190905.401    19648277.02849  15247901.27749  24190906.0474   24190913.0694
  22638673.493   -14076565.84949 -10687549.20849  22638674.9964   22638680.8014
  24685955.239    -3742255.70249  -2425103.82849  24685957.4414   24685963.3974
 96  4 17 17 40 30.0000000  0  8 19 31 15 27  2 18  7 26
  21002077.255      716795.04249    562626.11749  21002078.2034   21002083.1084
  23723137.558     9468165.32949   7384600.17049  23723137.6854   23723144.5724
  24384947.865    -6867468.63249  -4993019.80849  24384948.8734   24384955.3244
  20183379.450   -13152483.26449 -10236879.16149  20183380.6984   20183385.1464
  21271233.270    -8179446.08849  -6358587.87849  21271234.2174   21271239.4464
  24211921.545    19758716.60449  15333958.02249  24211922.7374   24211928.0614
  22619773.865   -14175883.28449 -10764939.39349  22619775.2814   22619781.1444
  24668936.507    -3831694.93249  -2494796.71449  24668938.1334   24668943.3384
 96  4 17 17 41  0.0000000  0  8 19 31 15 27  2 18  7 26
  21009743.580      757081.45949    594018.10849  21009744.7734   21009749.6654
  23741524.005     9564787.40849   7459890.04949  23741524.6724   23741530.8474
  24372510.318    -6932820.63249  -5043943.42349  24372510.9724   24372517.5254
  20179413.340   -13173326.86849 -10253120.94249  20179414.3904   20179418.7694
  21266823.310    -8202621.08249  -6376646.32149  21266824.0784   21266829.4704
  24232945.445    19869202.91849  15420051.17449  24232947.3904   24232953.5254
  22600916.933   -14274976.92349 -10842155.18649  22600917.7034   22600923.6354
  24651962.182    -3920891.98849  -2564300.89849  24651964.0884   24651969.3794
 96  4 17 17 41 30.0000000  0  8 19 31 15 27  2 18  7 26
  21017475.868      797714.81949    625680.44449  21017477.0384   21017481.9094
  23759957.496     9661648.68949   7535366.32149  23759957.6954   23759963.6644
  24360123.870    -6997913.43249  -5094665.08249  24360124.8434   24360131.6064
  20175516.961   -13193801.44649 -10269075.16849  20175518.0454   20175522.4944
  21262454.101    -8225581.08149  -6394537.23049  21262454.9384   21262460.3454
  24253980.572    19979741.12249  15506184.78049  24253982.0864   24253988.1404
  22582106.024   -14373830.17449 -10919183.67449  22582106.6674   22582113.3034
  24635040.344    -4009816.96249  -2633593.09349  24635042.7024   24635048.0014
 96  4 17 17 42  0.0000000  0  8 19 31 15 27  2 18  7 26
  21025273.855      838694.39549    657612.56249  21025275.2034   21025280.2354
  23778435.692     9758755.46749   7611033.88549  23778436.9384   23778442.4844
  24347786.976    -7062741.72049  -5145180.63949  24347788.2644   24347794.6904
  20171694.531   -13213887.84849 -10284726.91549  20171695.6554   20171700.4854
  21258123.928    -8248336.48249  -6412268.71849  21258124.6314   21258129.9944
  24275025.490    20090331.22349  15592358.80749  24275026.7874   24275032.7484
  22563339.729   -14472445.87449 -10996027.05749  22563340.8194   22563347.5444
  24618172.726    -4098467.80849  -2702671.64949  24618172.5464   24618178.5074
 96  4 17 17 42 30.0000000  0  8 19 31 15 27  2 18  7 26
  21033133.467      879996.08449    689795.67049  21033134.4884   21033139.2664
  23796959.270     9856096.07349   7686883.64449  23796960.4084   23796965.4584
  24335496.878    -7127331.33049  -5195510.20649  24335498.4334   24335504.4674
  20167940.553   -13233615.82549 -10300099.37449  20167941.3884   20167946.3654
  21253828.149    -8270912.45049  -6429860.38349  21253828.7654   21253834.1894
  24296074.949    20200945.93249  15678552.02849  24296075.0924   24296081.9174
  22544614.590   -14570847.85149 -11072703.90849  22544615.6744   22544621.6054
  24601349.821    -4186863.24249  -2771551.19949  24601352.2924   24601356.4354
 96  4 17 17 43  0.0000000  0  8 19 31 15 27  2 18  7 26
  21041053.412      921617.49849    722227.92249  21041054.6164   21041059.8194
  23815528.758     9953675.62049   7762919.61249  23815528.6994   23815534.2364
  24323252.360    -7191677.62149  -5245650.14349  24323251.5664   24323257.9934
  20164253.749   -13252990.93149 -10315196.86549  20164254.6114   20164259.3184
  21249567.800    -8293301.29249  -6447306.23849  21249568.4764   21249573.7374
  24317127.127    20311573.23049  15764755.03349  24317128.0924   24317134.7454
  22525931.879   -14669027.39749 -11149207.42149  22525933.2174   22525938.8984
  24584580.633    -4274989.04449  -2840220.64649  24584582.8904   24584586.4634
 96  4 17 17 43 30.0000000  0  8 19 31 15 27  2 18  7 26
  21049035.393      963561.97649    754911.90749  21049036.7574   21049041.8764
  23834143.769    10051500.90549   7839147.05049  23834144.5004   23834149.1324
  24311055.701    -7255767.98749  -5295590.70749  24311056.6824   24311062.7874
  20160634.345   -13272008.32849 -10330015.61749  20160635.6094   20160640.0274
  21245343.772    -8315496.68949  -6464601.35849  21245344.8334   21245350.1544
  24338179.820    20422208.29149  15850964.09649  24338180.6704   24338187.5354
  22507295.670   -14766959.01549 -11225517.76349  22507296.8464   22507302.8414
  24567863.061    -4362836.72049  -2908673.37349  24567865.5054   24567869.9384
 96  4 17 17 44  0.0000000  0  8 19 31 15 27  2 18  7 26
  21057081.129     1005843.48849    787858.51649  21057082.3084   21057087.7784
  23852809.205    10149592.45249   7915581.96949  23852810.6224   23852816.0024
  24298909.562    -7319594.74549  -5345325.83949  24298910.0744   24298917.7514
  20157082.048   -13290676.22349 -10344562.02749  20157083.2504   20157088.0584
  21241158.121    -8337492.45149  -6481740.91749  21241159.0444   21241164.3014
  24359232.453    20532843.24949  15937173.08049  24359234.4644   24359240.5504
  22488711.167   -14864623.27949 -11301619.77349  22488712.7514   22488717.9264
  24551197.931    -4450412.09249  -2976913.91349  24551199.1834   24551205.5104
 96  4 17 17 44 30.0000000  0  8 19 31 15 27  2 18  7 26
  21065191.658     1048463.93349    821069.22849  21065193.1194   21065198.1114
  23871526.429    10247946.72649   7992221.60849  23871527.1924   23871532.3604
  24286812.909    -7383157.00749  -5394854.85649  24286815.0834   24286821.7624
  20153595.407   -13308999.90749 -10358840.22549  20153596.7554   20153601.1584
  21237011.606    -8359282.20549  -6498719.95049  21237012.5044   21237017.7604
  24380284.287    20643468.52549  16023374.52049  24380285.2154   24380291.5164
  22470178.867   -14962010.04649 -11377505.54249  22470180.2014   22470186.1394
  24534586.321    -4537709.77849  -3044938.06449  24534587.4594   24534593.0754
 96  4 17 17 45  0.0000000  0  8 19 31 15 27  2 18  7 26
  21073365.682     1091418.92749    854540.62349  21073367.0554   21073372.1214
  23890290.212    10346552.84349   8069057.49149  23890291.1064   23890296.4504
  24274771.048    -7446444.44149  -5444169.72649  24274772.8314   24274778.9604
  20150177.236   -13326962.12849 -10372836.76649  20150178.5404   20150182.7534
  21232904.562    -8380864.74649  -6515537.52249  21232905.5324   21232910.5424
  24401334.747    20754086.88549  16109570.56649  24401335.3264   24401342.6064
  22451701.043   -15059112.77049 -11453169.98049  22451702.3664   22451708.6514
  24518028.578    -4624725.80249  -3112742.75149  24518028.9914   24518033.6414
 96  4 17 17 45 30.0000000  0  8 19 31 15 27  2 18  7 26
  21081606.514     1134722.50949    888283.64749  21081607.5284   21081612.3284
  23909101.431    10445408.65549   8146087.93949  23909102.9164   23909108.4524
  24262781.625    -7509450.72949  -5493265.52449  24262782.3454   24262789.9774
  20146832.657   -13344537.90549 -10386532.18249  20146834.1644   20146838.4704
  21228836.118    -8402244.40149  -6532196.99949  21228837.2814   21228842.2574
  24422386.223    20864709.25849  16195769.74649  24422386.9224   24422392.2974
  22433276.589   -15155932.73549 -11528614.09449  22433277.8804   22433283.7864
  24501521.174    -4711463.17549  -3180330.30649  24501523.7044   24501528.6514
 96  4 17 17 46  0.0000000  0  8 19 31 15 27  2 18  7 26
  21089910.297     1178360.39349    922287.16449  21089911.4504   21089916.6614
  23927958.138    10544499.95549   8223301.87449  23927958.8004   23927965.4104
  24250844.897    -7572180.92549  -5542146.17549  24250845.8554   24250850.7644
  20143561.809   -13361727.10249 -10399926.36349  20143562.9814   20143567.1784
  21224805.874    -8423426.07649  -6548702.20349  21224806.4904   21224811.6174
  24443437.069    20975340.00349  16281975.43649  24443438.7364   24443444.9134
  22414901.200   -15252495.10349 -11603857.48449  22414902.3244   22414908.7784
  24485068.820    -4797928.56949  -3247705.92249  24485069.3254   24485075.7704
 96  4 17 17 46 30.0000000  0  8 19 31 15 27  2 18  7 26
  21098274.121     1222309.77349    956533.40649  21098275.1204   21098280.2544
  23946853.829    10643795.16049   8300674.69849  23946854.6164   23946860.1544
  24238958.935    -7634644.52549  -5590819.12249  24238959.4234   24238964.7884
  20140364.638   -13378530.27949 -10413019.75949  20140365.4374   20140369.7654
  21220811.719    -8444415.63849  -6565057.71249  21220812.3684   21220817.6194
  24464490.610    21085971.03749  16368181.35849  24464491.5374   24464497.0384
  22396571.041   -15348822.95749 -11678918.13149  22396571.6834   22396578.1284
  24468664.774    -4884128.68149  -3314874.83349  24468666.4584   24468672.0944
 96  4 17 17 47  0.0000000  0  8 19 31 15 27  2 18  7 26
  21106697.509     1266576.22649    991026.71649  21106698.4464   21106703.3774
  23965789.506    10743305.56649   8378215.21149  23965791.6954   23965796.0004
  24227125.886    -7696825.69649  -5639271.97449  24227126.0074   24227131.5454
  20137245.644   -13394919.44649 -10425790.54749  20137246.8324   20137250.9584
  21216853.537    -8465215.59549  -6581265.47449  21216854.0704   21216859.3224
  24485545.130    21196613.76249  16454396.38749  24485547.2754   24485552.1724
  22378286.995   -15444905.64149 -11753787.74149  22378288.0624   22378294.2784
  24452312.936    -4970057.86349  -3381832.63549  24452314.9794   24452320.7474
 96  4 17 17 47 30.0000000  0  8 19 31 15 27  2 18  7 26
  21115184.831     1311176.58449   1025780.21349  21115185.8084   21115190.5954
  23984768.003    10843034.45749   8455925.98049  23984768.6504   23984773.7274
  24215348.931    -7758711.94249  -5687495.01449  24215350.2424   24215354.6944
  20134205.678   -13410896.35049 -10438240.08949  20134206.2824   20134210.7554
  21212932.241    -8485821.84549  -6597322.29849  21212932.9344   21212938.3264
  24506604.227    21307279.39849  16540629.26649  24506603.0354   24506610.8854
  22360053.229   -15540725.00549 -11828452.16349  22360053.8334   22360060.6624
  24436014.638    -5055703.83249  -3448569.74849  24436016.5324   24436022.4774
 96  4 17 17 48  0.0000000  0  8 19 31 15 27  2 18  7 26
  21123736.163     1356114.32849   1060796.61049  21123737.3604   21123741.9784
  24003787.615    10942979.56449   8533805.21449  24003787.5364   24003792.0174
  24203629.082    -7820297.49349  -5735483.73649  24203630.3334   24203636.2524
  20131240.208   -13426479.28149 -10450382.63949  20131241.2744   20131245.4334
  21209047.566    -8506235.80349  -6613229.28249  21209048.3504   21209053.5404
  24527668.208    21417972.91549  16626883.87949  24527669.2984   24527675.3464
  22341870.054   -15636277.58649 -11902908.70849  22341870.9724   22341877.0944
  24419773.353    -5141052.95449  -3515075.54949  24419775.5334   24419781.1604
 96  4 17 17 48 30.0000000  0  8 19 31 15 27  2 18  7 26
  21132349.958     1401378.73849   1096067.54949  21132351.0694   21132355.8544
  24022844.735    11043127.09849   8611842.19349  24022846.0714   24022851.3444
  24191964.474    -7881597.43649  -5783249.89749  24191966.0774   24191971.8934
  20128347.765   -13441679.55949 -10462227.01949  20128348.8294   20128353.0854
  21205194.332    -8526483.75749  -6629006.91249  21205195.2014   21205200.3434
  24548733.865    21528671.77249  16713142.63949  24548734.6404   24548739.6284
  22323735.085   -15731579.56549 -11977169.96949  22323735.5224   22323742.0114
  24403586.009    -5226117.66149  -3581359.72149  24403588.2884   24403593.1304
 96  4 17 17 49  0.0000000  0  8 19 31 15 27  2 18  7 26
  21141030.125     1446992.30349   1131610.55749  21141030.8414   21141035.7564
  24041946.121    11143505.33849   8690058.92949  24041946.8764   24041951.6284
  24180359.012    -7942588.30649  -5830775.23449  24180359.7014   24180364.3204
  20125530.242   -13456484.89749 -10473763.65349  20125531.3834   20125535.5594
  21201374.957    -8546556.00449  -6644647.62949  21201375.6694   21201381.2084
  24569805.387    21639405.02449  16799428.21349  24569806.0274   24569812.3414
  22305651.628   -15826605.14649 -12051215.86149  22305652.6454   22305659.1704
  24387459.884    -5310865.55849  -3647397.02849  24387461.6884   24387466.4354
 96  4 17 17 49 30.0000000  0  8 19 31 15 27  2 18  7 26
  21149777.342     1492961.58949   1167430.75249  21149778.3904   21149783.4364
  24061089.634    11244108.50249   8768450.94249  24061091.1224   24061096.2614
  24168811.753    -8003265.92849  -5878056.47049  24168812.8344   24168817.7424
  20122783.412   -13470919.80249 -10485011.63749  20122784.2004   20122788.8254
  21197592.813    -8566432.19649  -6660135.57649  21197593.3324   21197598.1914
  24590884.083    21750173.04149  16885740.86749  24590884.7074   24590891.4444
  22287620.738   -15921356.24649 -12125047.86749  22287622.3104   22287627.8674
  24371395.053    -5395284.92649  -3713178.34849  24371396.5574   24371401.9734
 96  4 17 17 50  0.0000000  0  8 19 31 15 27  2 18  7 26
  21158583.731     1539239.32949   1203491.29849  21158584.6304   21158589.5694
  24080272.250    11344921.04149   8847006.10449  24080273.8564   24080279.6044
  24157319.285    -8063659.34949  -5925116.26349  24157320.2724   24157326.7634
  20120102.460   -13485008.41149 -10495989.78649  20120103.3744   20120107.8714
  21193843.611    -8586132.89249  -6675486.77449  21193844.3724   21193849.7864
  24611960.689    21860929.42249  16972044.44449  24611962.4284   24611967.1584
  22269635.620   -16015873.88449 -12198697.96649  22269636.4834   22269642.6054
  24355386.926    -5479407.11049  -3778728.09249  24355387.9084   24355394.6944
 96  4 17 17 50 30.0000000  0  8 19 31 15 27  2 18  7 26
  21167451.587     1585839.83949   1239803.36349  21167452.8204   21167457.7934
  24099501.560    11445959.44049   8925737.26149  24099501.8444   24099507.7464
  24145885.919    -8123743.49649  -5971935.07249  24145886.4624   24145891.8744
  20117494.110   -13498714.93149 -10506670.20049  20117495.1444   20117499.5964
  21190134.272    -8605627.57549  -6690677.44249  21190134.7984   21190140.1304
  24633037.465    21971685.33949  17058347.68349  24633037.5684   24633043.5194
  22251700.638   -16110120.15049 -12272136.60349  22251701.8714   22251708.0994
  24339439.123    -5563210.92749  -3844029.76049  24339441.4144   24339447.1924
 96  4 17 17 51  0.0000000  0  8 19 31 15 27  2 18  7 26
  21176380.840     1632763.58149   1276367.29049  21176381.8634   21176386.8994
  24118766.371    11547201.61149   9004627.19449  24118767.2664   24118772.5664
  24134511.490    -8183516.62249  -6018511.51449  24134511.7374   24134517.8284
  20114957.547   -13512045.38149 -10517057.56649  20114958.5284   20114963.1054
  21186466.117    -8624903.73249  -6705697.82749  21186466.5654   21186472.0354
  24654111.112    22082430.84549  17144642.79549  24654111.8594   24654118.0174
  22233819.222   -16204088.93749 -12345359.02149  22233820.2134   22233826.3104
  24323554.568    -5646692.33749  -3909080.19649  24323556.0304   24323561.0444
 96  4 17 17 51 30.0000000  0  8 19 31 15 27  2 18  7 26
  21185370.892     1680007.95349   1313181.06549  21185371.9584   21185377.2334
  24138069.940    11648632.48749   9083664.18249  24138069.1494   24138076.0874
  24123195.434    -8242980.51349  -6064846.99949  24123195.7584   24123202.3774
  20112493.675   -13524994.01649 -10527147.41649  20112494.5634   20112498.9764
  21182840.284    -8643957.53249  -6720544.94249  21182840.5404   21182845.9394
  24675180.047    22193146.38149  17230914.54549  24675180.1104   24675186.6344
  22215989.150   -16297786.93749 -12418370.43349  22215989.9304   22215996.3474
  24307725.987    -5729865.96149  -3973890.80249  24307727.9114   24307732.8574
 96  4 17 17 52  0.0000000  0  8 19 31 15 27  2 18  7 26
  21194421.546     1727570.12649   1350242.46949  21194422.5534   21194428.2284
  24157403.988    11750240.52549   9162839.19149  24157403.9074   24157411.5774
  24111938.303    -8302136.29449  -6110942.39949  24111939.6794   24111945.2094
  20110106.162   -13537538.79349 -10536922.57649  20110107.2424   20110111.7234
  21179252.300    -8662811.58649  -6735236.41649  21179252.7564   21179258.2574
  24696241.000    22303828.99949  17317160.64849  24696242.3564   24696248.3544
  22198211.045   -16391210.70749 -12491168.16749  22198211.7894   22198217.8354
  24291955.891    -5812742.86549  -4038470.19349  24291957.6744   24291962.5254
 96  4 17 17 52 30.0000000  0  8 19 31 15 27  2 18  7 26
  21203538.157     1775478.53649   1387573.67449  21203539.6474   21203545.0514
  24176771.547    11852018.68249   9242146.79049  24176771.8254   24176778.1644
  24100743.506    -8360964.49149  -6156782.54249  24100744.2734   24100751.1114
  20107800.697   -13549657.50049 -10546365.73449  20107801.2434   20107805.5474
  21175703.177    -8681460.63549  -6749768.14649  21175704.1214   21175709.6154
  24717301.894    22414501.64949  17403398.98949  24717302.8504   24717309.1374
  22180489.459   -16484337.28849 -12563734.32249  22180491.2594   22180496.8974
  24276243.916    -5895308.97749  -4102807.41349  24276245.1944   24276250.1424
 96  4 17 17 53  0.0000000  0  8 19 31 15 27  2 18  7 26
  21212722.072     1823739.26149   1425179.40749  21212723.2934   21212728.6014
  24196175.884    11953993.81649   9321607.87349  24196177.5464   24196183.7414
  24089613.635    -8419452.81049  -6202357.83849  24089614.3164   24089621.2614
  20105576.140   -13561343.96549 -10555472.08049  20105577.2984   20105581.5744
  21172194.338    -8699900.09349  -6764136.55949  21172195.1664   21172200.4564
  24738362.752    22525175.62949  17489638.35149  24738364.3604   24738369.8214
  22162825.265   -16577164.27049 -12636067.02349  22162826.5374   22162832.0754
  24260591.794    -5977560.74549  -4166899.68049  24260593.1744   24260598.7134
 96  4 17 17 53 30.0000000  0  8 19 31 15 27  2 18  7 26
  21221967.841     1872324.30949   1463037.85449  21221968.8914   21221974.2734
  24215619.964    12056165.57349   9401222.15149  24215620.2164   24215626.2174
  24078544.099    -8477623.27949  -6247685.47449  24078545.1554   24078551.6114
  20103429.842   -13572623.88949 -10564261.64149  20103431.0324   20103435.1714
  21168718.871    -8718164.83449  -6778368.82949  21168719.5084   21168724.6644
  24759418.833    22635829.38249  17575861.93549  24759421.0794   24759426.8994
  22145214.949   -16669705.42349 -12708177.00849  22145216.5094   22145222.4104
  24244994.751    -6059518.71249  -4230763.03049  24244997.4484   24245002.5114
 96  4 17 17 54  0.0000000  0  8 19 31 15 27  2 18  7 26
  21231276.804     1921244.37149   1501157.36049  21231277.9224   21231283.2344
  24235100.500    12158539.65549   9480994.12549  24235101.1574   24235107.8044
  24067538.676    -8535460.26049  -6292753.24249  24067539.1704   24067545.4754
  20101361.875   -13583490.90549 -10572729.46449  20101363.0594   20101367.0164
  21165278.930    -8736241.01949  -6792454.16949  21165279.6984   21165285.2444
  24780475.131    22746476.43149  17662080.31649  24780476.7444   24780483.2004
  22127665.209   -16761930.19549 -12780040.45249  22127666.6314   22127672.6054
  24229460.688    -6141156.30549  -4294376.72849  24229461.6874   24229467.0114
 96  4 17 17 54 30.0000000  0  8 19 31 15 27  2 18  7 26
  21240651.051     1970505.00249   1539542.23949  21240652.1894   21240657.2814
  24254619.557    12261111.75149   9560920.36349  24254620.3304   24254626.8444
  24056595.260    -8592965.56249  -6337562.56549  24056596.0214   24056603.2634
  20099369.129   -13593963.31549 -10580889.79849  20099370.1314   20099374.5114
  21161876.680    -8754121.33449  -6806386.88549  21161877.4104   21161882.3294
  24801528.814    22857109.65749  17748287.91449  24801528.3194   24801535.3384
  22110177.051   -16853832.70549 -12851652.78449  22110177.9564   22110184.0164
  24213988.284    -6222462.60449  -4357732.27749  24213989.7264   24213995.2814
 96  4 17 17 55  0.0000000  0  7 19 31 15 27  2  7 26
  21250093.319     2020125.61049   1578207.62749  21250094.7424   21250099.5434
  24274179.392    12363893.61349   9641010.07749  24274179.3004   24274185.4394
  24045716.916    -8650127.65649  -6382104.44249  24045718.3944   24045725.7164
  20097452.261   -13604034.90949 -10588737.81249  20097453.6814   20097457.6374
  21158514.538    -8771788.82349  -6820153.76849  21158515.3034   21158520.6944
  22092752.265   -16945400.52649 -12923004.32449  22092753.2134   22092759.1824
  24198584.950    -6303409.99749  -4420808.15449  24198585.7814   24198591.8814
 96  4 17 17 55 30.0000000  0  7 19 31 15 27  2  7 26
  21259606.268     2070115.83949   1617161.02349  21259607.5314   21259612.2524
  24293769.493    12466841.45149   9721229.10349  24293770.3594   24293775.5484
  24034904.928    -8706953.54649  -6426384.34549  24034905.1844   24034911.7454
  20095610.662   -13613714.16449 -10596280.10649  20095611.5494   20095615.6294
  21155190.992    -8789255.11949  -6833763.86749  21155191.6754   21155196.7954
  22075389.306   -17036643.95849 -12994103.09149  22075390.3484   22075396.1964
  24183248.873    -6384000.10949  -4483605.62849  24183250.8384   24183255.8944
 96  4 17 17 56  0.0000000  0  7 19 31 15 27  2  7 26
  21269188.951     2120474.91549   1656401.83049  21269190.6374   21269195.7874
  24313387.243    12569934.43449   9801561.25249  24313387.5404   24313393.1674
  24024155.310    -8763440.67549  -6470400.28349  24024156.0914   24024162.0094
  20093843.455   -13622998.60649 -10603514.74949  20093844.7024   20093849.1134
  21151903.720    -8806529.09649  -6847224.11349  21151904.3524   21151909.9924
  22058085.159   -17127577.61049 -13064960.47249  22058086.3534   22058092.2484
  24167978.868    -6464246.86249  -4546135.55749  24167980.0584   24167984.4084
 96  4 17 17 56 30.0000000  0  7 19 31 15 27  2  7 26
  21278842.898     2171204.24949   1695931.15449  21278843.7424   21278848.9834
  24333036.468    12673192.78349   9882022.24349  24333036.8884   24333043.9924
  24013472.561    -8819582.16249  -6514146.88449  24013472.7584   24013479.2064
  20092154.597   -13631872.92349 -10610429.81449  20092155.9504   20092160.4144
  21148653.476    -8823609.37649  -6860533.42549  21148654.0414   21148659.4134
  22040836.118   -17218217.49449 -13135588.93949  22040837.8704   22040843.9334
  24152773.227    -6544150.06249  -4608397.78649  24152774.5084   24152780.3274
 96  4 17 17 57  0.0000000  0  7 19 31 15 27  2  7 26
  21288564.325     2222292.78949   1735740.38349  21288565.5354   21288570.7124
  24352717.763    12776624.56949   9962618.37549  24352720.0614   24352725.2924
  24002855.723    -8875369.53349  -6557617.55549  24002856.8274   24002863.1574
  20090545.484   -13640329.55849 -10617019.41149  20090546.5844   20090551.1644
  21145439.719    -8840497.39449  -6873692.92749  21145440.4644   21145445.8484
  22023644.023   -17308563.63649 -13205988.52349  22023645.9014   22023651.2894
  24137632.734    -6623713.58249  -4670395.30649  24137634.0204   24137639.4064
 96  4 17 17 57 30.0000000  0  7 19 31 15 27  2  7 26
  21298347.026     2273701.60149   1775799.17449  21298348.4274   21298353.5354
  24372434.321    12880227.29649  10043347.72349  24372434.3934   24372440.9864
  23992305.940    -8930808.71649  -6600816.90149  23992306.5014   23992312.9154
  20089012.952   -13648383.73749 -10623295.41049  20089014.0184   20089018.5874
  21142258.976    -8857211.09949  -6886716.59449  21142260.0414   21142265.1864
  22006506.562   -17398620.26049 -13276162.50649  22006507.9544   22006514.4194
  24122552.642    -6702958.88749  -4732144.88549  24122553.8014   24122560.0434
 96  4 17 17 58  0.0000000  0  7 19 31 15 27  2  7 26
  21308187.797     2325414.16449   1816094.65949  21308188.9344   21308194.2454
  24392186.602    12984027.05249  10124230.57849  24392187.2794   24392193.4824
  23981824.606    -8985890.02049  -6643737.39549  23981825.6464   23981831.6214
  20087559.437   -13656024.34649 -10629249.14949  20087560.1174   20087564.7394
  21139113.796    -8873739.52949  -6899595.89749  21139114.5214   21139120.0694
  21989427.981   -17488370.55549 -13346097.79049  21989428.9984   21989435.0924
  24107537.041    -6781869.74649  -4793633.86349  24107538.4124   24107542.9044
 96  4 17 17 58 30.0000000  0  7 19 31 15 27  2  7 26
  21318084.830     2377423.13449   1856621.10049  21318086.1114   21318091.0824
  24411974.690    13088012.34649  10205258.02749  24411975.2204   24411980.5714
  23971409.175    -9040624.03949  -6686387.27049  23971410.0234   23971416.0974
  20086181.562   -13663261.85049 -10634888.77549  20086182.9384   20086187.4264
  21136002.594    -8890089.01349  -6912335.76349  21136003.1354   21136008.6324
  21972407.765   -17577811.81549 -13415792.27249  21972409.1474   21972415.0134
  24092584.821    -6860442.89349  -4854859.68849  24092586.4154   24092591.1594
 96  4 17 17 59  0.0000000  0  7 19 31 15 27  2  7 26
  21328039.558     2429734.47849   1897383.15749  21328040.7494   21328045.7024
  24431795.687    13192171.10349  10286420.65549  24431795.5684   24431801.8014
  23961060.078    -9095007.21749  -6728763.76249  23961060.4924   23961067.0184
  20084881.725   -13670095.54249 -10640213.74049  20084882.7734   20084887.2594
  21132924.312    -8906265.98149  -6924941.20149  21132925.2134   21132930.4644
  21955448.256   -17666936.10849 -13485239.76249  21955449.2754   21955455.1504
  24077698.853    -6938671.59949  -4915817.10549  24077699.6054   24077705.5274
 96  4 17 17 59 30.0000000  0  7 19 31 15 27  2  7 26
  21338049.942     2482339.91749   1938374.38349  21338050.9054   21338056.2914
  24451644.870    13296486.05649  10367704.95549  24451646.1334   24451652.2474
  23950775.777    -9149048.49949  -6770873.83749  23950776.4134   23950783.2624
  20083659.882   -13676518.60649 -10645218.73049  20083660.5734   20083665.1404
  21129878.463    -8922272.78549  -6937414.04349  21129878.9914   21129884.5844
  21938544.900   -17755762.82149 -13554455.36849  21938546.3524   21938552.0074
  24062878.425    -7016552.66749  -4976503.64049  24062878.9134   24062884.0504
 96  4 17 17 59 59.9990000  0  7 19 31 15 27  2  7 26
  21348124.872     2535284.13949   1979629.59449  21348126.1624   21348131.2754
  24471524.996    13400958.01049  10449111.62149  24471526.5594   24471532.7314
  23940563.014    -9202720.68549  -6812696.31449  23940563.8854   23940569.8754
  20082522.244   -13682493.75549 -10649874.70549  20082523.3434   20082528.0924
  21126871.264    -8938074.61549  -6949727.16749  21126872.1964   21126877.5654
  21921703.042   -17844268.48349 -13623420.81549  21921704.3114   21921710.3694
  24048130.081    -7094053.73449  -5036894.06949  24048132.0354   24048137.7604
 96  4 17 18  0 29.9990000  0  6 19 15 27  2  7 26
  21358267.421     2588581.08249   2021159.65049  21358268.5714   21358273.3174
  23930416.703    -9256031.67949  -6854237.34049  23930419.1114   23930425.4184
  20081470.271   -13688025.69549 -10654185.31649  20081470.9854   20081475.3374
  21123901.378    -8953683.04749  -6961889.58449  21123901.9464   21123907.3614
  21904917.891   -17932475.85249 -13692153.82349  21904919.2364   21904924.6734
  24033451.046    -7171191.04449  -5097001.04849  24033453.1064   24033458.0014
 96  4 17 18  0 59.9990000  0  6 19 15 27  2  7 26
  21368477.077     2642235.10349   2062967.95149  21368478.2844   21368483.4604
  23920345.062    -9308969.85549  -6895487.85549  23920344.6824   23920352.4894
  20080502.602   -13693107.59349 -10658145.24749  20080503.7324   20080507.9594
  21120970.012    -8969086.22949  -6973892.06749  21120970.7554   21120976.2384
  21888191.081   -18020375.06749 -13760646.70649  21888192.1864   21888198.0144
  24018843.316    -7247958.85849  -5156820.10349  24018844.4314   24018849.5904
 96  4 17 18  1 29.9990000  0  6 19 15 27  2  7 26
  21378750.383     2696222.25249   2105035.83049  21378751.4234   21378757.3454
  23910336.673    -9361557.03949  -6936464.86749  23910337.6144   23910344.5484
  20079615.091   -13697771.70149 -10661779.63349  20079616.2994   20079620.7844
  21118074.480    -8984302.88849  -6985749.21149  21118075.2274   21118080.5814
  21871523.311   -18107964.31249 -13828898.06049  21871524.3714   21871530.3724
  24004298.492    -7324389.51049  -5216376.44349  24004300.1004   24004305.3764
 96  4 17 18  1 59.9990000  0  6 19 15 27  2  7 26
  21389091.907     2750567.68449   2147382.89349  21389093.3434   21389098.2294
  23900399.353    -9413782.08049  -6977159.70149  23900399.7874   23900407.0214
  20078803.978   -13702033.71449 -10665100.69549  20078805.3084   20078809.6684
  21115212.566    -8999341.46049  -6997467.58849  21115213.3834   21115218.9324
  21854918.998   -18195218.79849 -13896888.56049  21854920.4784   21854926.2784
  23989816.929    -7400486.59249  -5275672.84349  23989817.9764   23989824.4004
 96  4 17 18  2 29.9990000  0  6 19 15 27  2  7 26
  21399504.326     2805284.11849   2190019.04549  21399505.0194   21399510.7524
  23890534.599    -9465623.04749  -7017555.23249  23890535.1514   23890541.1134
  20078070.171   -13705889.23149 -10668105.00749  20078071.4374   20078075.9034
  21112386.552    -9014193.08849  -7009040.28649  21112387.2654   21112392.5364
  21838384.505   -18282110.77049 -13964596.57849  21838385.8434   21838391.3684
  23975403.136    -7476238.87749  -5334700.58249  23975404.6994   23975409.1764
 96  4 17 18  2 59.9990000  0  6 19 15 27  2  7 26
  21409981.004     2860338.89649   2232918.84249  21409981.8844   21409987.3224
  23880739.375    -9517092.02049  -7057660.91849  23880740.5754   23880747.0424
  20077410.753   -13709354.49649 -10670805.22449  20077412.0594   20077416.4064
  21109593.189    -9028872.49949  -7020478.79549  21109593.9034   21109599.2314
  21821917.063   -18368647.02849 -14032027.42149  21821918.2574   21821924.0184
  23961049.180    -7551667.47549  -5393476.09349  23961051.5714   23961056.2534
 96  4 17 18  3 29.9990000  0  6 19 15 27  2  7 26
  21420518.161     2915711.55649   2276066.33649  21420518.9314   21420524.2874
  23871016.626    -9568193.84549  -7097480.50849  23871016.4454   23871022.6744
  20076825.656   -13712431.27449 -10673202.72749  20076826.5474   20076830.9284
  21106829.193    -9043395.72049  -7031795.59949  21106830.3214   21106835.5664
  21805515.686   -18454837.73849 -14099189.00249  21805516.8234   21805522.3264
  23946756.221    -7626775.75249  -5452002.01349  23946757.5724   23946763.1724
 96  4 17 18  3 59.9990000  0  6 19 15 27  2  7 26
  21431112.780     2971384.98449   2319448.19949  21431113.6224   21431118.6754
  23861361.358    -9618927.74349  -7137013.40749  23861361.5434   23861367.9424
  20076315.002   -13715113.05949 -10675292.43949  20076316.4284   20076320.2384
  21104093.652    -9057772.76149  -7042998.49549  21104094.4134   21104099.7774
  21789173.419   -18540715.72549 -14166106.89949  21789174.9174   21789180.6124
  23932526.159    -7701553.81149  -5510270.61549  23932528.4814   23932532.5564
 96  4 17 18  4 29.9990000  0  6 19 15 27  2  7 26
  21441759.117     3027331.36349   2363042.75449  21441760.0314   21441764.9444
  23851778.057    -9669292.10249  -7176258.35449  23851777.6264   23851784.3104
  20075885.056   -13717373.36049 -10677053.71849  20075886.3554   20075890.3904
  21101385.557    -9072003.23549  -7054087.19049  21101386.2504   21101391.8304
  21772890.569   -18626285.52149 -14232784.65249  21772891.3934   21772897.1424
  23918363.092    -7775986.26649  -5568269.90649  23918363.6884   23918369.6954
 96  4 17 18  4 59.9990000  0  6 19 15 27  2  7 26
  21452460.947     3083570.44149   2406865.37449  21452461.7824   21452466.8514
  23842267.265    -9719265.00049  -7215198.26449  23842268.1394   23842275.4664
  20075542.617   -13719173.26549 -10678456.25349  20075543.6484   20075547.8184
  21098709.978    -9086065.92849  -7065045.14149  21098710.5374   21098715.6584
  21756667.682   -18711536.05649 -14299213.63049  21756668.9274   21756674.3554
  23904271.357    -7850038.33749  -5625972.80449  23904272.4634   23904278.3454
 96  4 17 18  5 29.9990000  0  6 19 15 27  2  7 26
  21463216.068     3140091.08349   2450907.40249  21463217.3344   21463223.0644
  23832829.151    -9768862.20949  -7253845.43849  23832829.9034   23832837.4464
  20075284.874   -13720528.75349 -10679512.48549  20075285.6684   20075290.2434
  21096062.717    -9099976.55949  -7075884.60149  21096063.4654   21096068.5584
  21740500.988   -18796491.96149 -14365413.02249  21740502.3044   21740507.8784
  23890249.768    -7923719.60349  -5683386.76849  23890251.0314   23890256.8414
 96  4 17 18  5 59.9990000  0  6 19 15 27  2  7 26
  21474026.223     3196899.17149   2495173.40949  21474027.6814   21474032.7354
  23823461.818    -9818081.82749  -7292198.37449  23823463.9444   23823471.1464
  20075110.231   -13721443.96249 -10680225.64749  20075111.5774   20075116.1334
  21093446.109    -9113725.11149  -7086597.76849  21093446.9224   21093452.3524
  21724388.908   -18881160.78749 -14431388.72049  21724390.1394   21724396.2394
  23876300.784    -7997023.94949  -5740507.02149  23876302.2874   23876307.5334
 96  4 17 18  6 29.9990000  0  6 19 15 27  2  7 26
  21484901.800     3254051.12849   2539707.37149  21484903.4304   21484908.5004
  23814176.066    -9866886.30649  -7330227.83949  23814176.6114   23814183.2084
  20075026.417   -13721885.01549 -10680569.33749  20075027.6294   20075032.0564
  21090869.121    -9127267.11149  -7097149.98649  21090869.8454   21090875.3454
  21708342.036   -18965486.62949 -14497097.15949  21708343.0144   21708348.9564
  23862429.248    -8069916.48749  -5797306.38549  23862430.2894   23862436.9144
 96  4 17 18  6 59.9990000  0  6 19 15 27  2  7 26
  21495840.393     3311532.45849   2584497.98849  21495841.4564   21495846.9544
  23804962.610    -9915301.86849  -7367954.25749  23804963.2444   23804970.3014
  20075023.622   -13721899.17849 -10680580.38849  20075025.0124   20075029.4814
  21088328.407    -9140618.43049  -7107553.62049  21088329.3144   21088334.5414
  21692357.194   -19049489.26749 -14562553.75149  21692358.3404   21692364.1524
  23848630.294    -8142432.71549  -5853812.53949  23848630.9044   23848636.7314
 96  4 17 18  7 29.9990000  0  6 19 15 27  2  7 26
  21506845.805     3369365.91049   2629562.98049  21506846.5334   21506852.5794
  23795825.502    -9963312.26349  -7405364.95849  23795826.8974   23795834.5204
  20075102.453   -13721484.38849 -10680257.19149  20075103.8164   20075108.5004
  21085827.418    -9153762.33349  -7117795.62949  21085828.1584   21085833.2764
  21676437.582   -19133144.77749 -14627739.85049  21676439.2014   21676444.7444
  23834904.788    -8214558.62349  -5910014.53549  23834906.2864   23834912.3554
 96  4 17 18  7 59.9990000  0  6 19 15 27  2  7 26
  21517918.665     3427554.22149   2674904.48749  21517919.7014   21517925.1394
  23786766.562   -10010922.59749  -7442463.91449  23786766.7224   23786774.4974
  20075260.604   -13720656.57549 -10679612.15249  20075261.4944   20075266.1964
  21083363.375    -9166713.43349  -7127887.40249  21083363.6644   21083369.1534
  21660587.429   -19216438.25649 -14692643.84649  21660588.9984   21660594.6384
  23821254.103    -8286292.95549  -5965911.40649  23821255.2164   23821261.1754
 96  4 17 18  8 29.9990000  0  6 19 15 27  2  7 26
  21529060.822     3486107.48249   2720530.37449  21529062.0584   21529067.7134
  23777784.173   -10058127.06749  -7479246.61649  23777784.0224   23777791.6264
  20075497.589   -13719409.01149 -10678640.04349  20075498.7044   20075503.6404
  21080931.918    -9179489.03749  -7137842.42149  21080932.8114   21080937.8794
  21644811.398   -19299343.10949 -14757245.02149  21644812.6594   21644818.4104
  23807677.404    -8357640.35349  -6021506.76049  23807679.1934   23807685.1784
 96  4 17 18  8 59.9990000  0  6 19 15 27  2  7 26
  21540270.545     3545014.80349   2766432.14949  21540271.6904   21540277.3284
  23768879.650   -10104920.17249  -7515708.77149  23768880.8024   23768887.1464
  20075815.321   -13717740.96649 -10677340.28149  20075816.2044   20075820.8144
  21078533.852    -9192091.06249  -7147662.18949  21078534.6394   21078539.7984
  21629107.864   -19381866.95449 -14821549.29949  21629108.8044   21629114.5364
  23794174.773    -8428597.48049  -6076798.02549  23794175.8794   23794181.6114
 96  4 17 18  9 29.9990000  0  6 19 15 27  2  7 26
  21551545.014     3604262.79149   2812599.37649  21551546.1334   21551551.8864
  23760052.499   -10151305.51249  -7551853.18949  23760053.2974   23760060.0894
  20076212.577   -13715651.85549 -10675712.42549  20076213.9694   20076218.3454
  21076164.809    -9204539.44249  -7157362.23049  21076165.5594   21076170.9464
  21613473.258   -19464024.62249 -14885568.25349  21613474.6954   21613480.2194
  23780746.632    -8499162.70849  -6131783.91149  23780747.8784   23780752.9434
 96  4 17 18  9 59.9990000  0  6 19 15 27  2  7 26
  21562879.942     3663828.14649   2859013.91149  21562881.5534   21562886.8994
  23751304.277   -10197282.14849  -7587679.13149  23751303.9304   23751311.4604
  20076690.334   -13713141.58349 -10673756.38749  20076691.4104   20076695.8424
  21073822.189    -9216849.42549  -7166954.43449  21073823.0014   21073828.2584
  21597909.191   -19545816.60249 -14949302.25049  21597910.2034   21597916.1394
  23767392.082    -8569337.22649  -6186465.34649  23767393.5294   23767399.4684
 96  4 17 18 10 29.9990000  0  6 19 15 27  2  7 26
  21574275.566     3723709.68249   2905674.81949  21574276.5164   21574281.9474
  23742634.627   -10242837.57149  -7623176.84349  23742635.8454   23742642.2834
  20077252.104   -13710188.22749 -10671455.07949  20077253.5374   20077257.8514
  21071508.769    -9229007.18749  -7176428.01949  21071509.8234   21071514.8604
  21582413.619   -19627246.02649 -15012753.73549  21582415.1614   21582420.4284
  23754113.454    -8639120.79449  -6240842.14349  23754114.6154   23754120.8734
 96  4 17 18 10 59.9990000  0  6 19 15 27  2  7 26
  21585729.035     3783901.50549   2952577.50449  21585730.5564   21585736.2194
  23734046.819   -10287968.58849  -7658343.87249  23734047.2464   23734054.5974
  20077898.597   -13706792.28649 -10668808.90149  20077899.7924   20077904.0574
  21069228.234    -9240992.65749  -7185767.35349  21069228.9634   21069234.0344
  21566984.853   -19708324.92649 -15075932.08749  21566986.1524   21566991.4784
  23740909.621    -8708506.52749  -6294908.93649  23740911.1774   23740916.0564
 96  4 17 18 11 29.9990000  0  6 19 15 27  2  7 26
  21597241.326     3844397.47749   2999717.18849  21597242.3564   21597248.5204
  23725537.278   -10332687.58249  -7693189.82149  23725537.6354   23725544.6264
  20078627.669   -13702959.51749 -10665822.33949  20078628.8984   20078633.5074
  21066976.449    -9252826.80249  -7194988.77149  21066977.1454   21066982.1584
  21551621.585   -19789058.85949 -15138841.63649  21551622.6644   21551628.0274
  23727778.334    -8777511.99749  -6348679.43749  23727779.8234   23727784.3474
 96  4 17 18 11 59.9990000  0  6 19 15 27  2  7 26
  21608816.350     3905223.92949   3047114.39349  21608817.4834   21608823.5124
  23717107.668   -10376978.42549  -7727702.15749  23717109.2754   23717116.0634
  20079444.588   -13698667.43449 -10662477.86149  20079445.7144   20079450.3014
  21064757.869    -9264485.28449  -7204073.30949  21064758.5954   21064763.5524
  21536327.475   -19869430.85949 -15201469.15149  21536328.8244   21536334.1224
  23714720.949    -8846128.68049  -6402146.97349  23714722.8394   23714728.5274
 96  4 17 18 12 29.9990000  0  6 19 15 27  2  7 26
  21620455.909     3966389.47349   3094775.82549  21620457.1624   21620462.9044
  23708761.126   -10420848.03849  -7761886.27449  23708761.6044   23708768.2224
  20080348.070   -13693921.16949 -10658779.48749  20080349.1324   20080353.3614
  21062574.752    -9275958.30149  -7213013.32549  21062575.6344   21062580.6524
  21521100.247   -19949451.30749 -15263822.73649  21521101.2844   21521106.5654
  23701736.287    -8914365.10849  -6455318.21549  23701736.9864   23701742.2594
 96  4 17 18 12 59.9990000  0  6 19 15 27  2  7 26
  21632158.745     4027886.84849   3142695.82549  21632159.2464   21632165.2564
  23700491.937   -10464301.57949  -7795746.16849  23700492.7564   23700498.8774
  20081336.408   -13688728.83649 -10654733.53349  20081337.5824   20081341.6504
  21060424.348    -9287256.72549  -7221817.29849  21060425.3054   21060430.5344
  21505937.824   -20029130.20949 -15325910.17849  21505938.9354   21505944.2214
  23688823.552    -8982222.81749  -6508194.35549  23688825.1604   23688829.9814
 96  4 17 18 13 29.9990000  0  6 19 15 27  2  7 26
  21643921.574     4089702.62449   3190863.92149  21643922.8334   21643928.6814
  23692300.365   -10507345.64349  -7829286.97949  23692301.4154   23692307.6044
  20082406.925   -13683101.88049 -10650348.90849  20082408.0514   20082412.3744
  21058304.411    -9298398.43749  -7230499.15649  21058305.0324   21058310.1464
  21490839.529   -20108471.90649 -15387734.86949  21490840.8214   21490846.2204
  23675981.466    -9049706.50749  -6560779.04649  23675982.1654   23675988.2354
 96  4 17 18 13 59.9990000  0  6 19 15 27  2  7 26
  21655744.886     4151833.95449   3239277.91149  21655745.9474   21655751.8634
  23684190.245   -10549969.96449  -7862500.73149  23684190.3524   23684196.7704
  20083558.234   -13677052.19749 -10645634.88449  20083559.0954   20083563.4164
  21056218.435    -9309359.95549  -7239040.60549  21056219.0734   21056224.3834
  21475805.947   -20187473.68449 -15449294.68249  21475807.1324   21475812.6814
  23663212.449    -9116806.61849  -6613064.84349  23663213.5134   23663219.6284
 96  4 17 18 14 29.9990000  0  6 19 15 27  2  7 26
  21667627.583     4214277.43049   3287935.13249  21667628.5814   21667634.1724
  23676161.406   -10592159.00849  -7895375.30849  23676161.7174   23676168.9034
  20084790.798   -13670574.58249 -10640587.40149  20084791.8154   20084796.0834
  21054167.325    -9320138.49149  -7247439.47049  21054168.0914   21054173.0394
  21460839.826   -20266121.62249 -15510578.77949  21460840.9504   21460846.5074
  23650520.472    -9183505.42549  -6665037.94049  23650521.9614   23650526.9074
 96  4 17 18 14 59.9990000  0  6 19 15 27  2  7 26
  21679568.066     4277026.08849   3336830.16349  21679568.8454   21679574.8054
  23668216.760   -10633907.38549  -7927906.49449  23668218.2534   23668223.9954
  20086106.231   -13663663.04049 -10635201.79649  20086107.2774   20086111.4234
  21052149.106    -9330743.49349  -7255703.10649  21052149.9864   21052155.1634
  21445941.833   -20344410.62749 -15571583.18349  21445943.2554   21445948.6714
  23637905.688    -9249795.59449  -6716692.61049  23637907.8424   23637912.2314
 96  4 17 18 15 29.9990000  0  6 19 15 27  2  7 26
  21691568.230     4340086.11949   3385967.81049  21691569.1034   21691574.9044
  23660355.677   -10675218.95149  -7960097.31649  23660356.5494   23660362.5224
  20087502.382   -13656325.43549 -10629484.19149  20087503.1454   20087507.8174
  21050163.763    -9341177.42949  -7263833.44849  21050164.2424   21050169.5094
  21431113.193   -20422336.01749 -15632304.25749  21431113.9254   21431119.9584
  23625369.737    -9315673.86149  -6768026.32749  23625371.8554   23625376.5444
 96  4 17 18 15 59.9990000  0  6 19 15 27  2  7 26
  21703629.854     4403471.16449   3435358.71549  21703631.0364   21703636.7944
  23652578.770   -10716086.66049  -7991942.26949  23652579.2214   23652585.7614
  20088984.981   -13648535.53449 -10623414.14849  20088985.8344   20088990.2574
  21048212.379    -9351431.41049  -7271823.56949  21048212.8274   21048218.1364
  21416356.316   -20499881.92449 -15692729.62549  21416357.5574   21416363.4254
  23612915.330    -9381124.48549  -6819026.79649  23612916.0464   23612921.4824
 96  4 17 18 16 29.9990000  0  6 19 15 27  2  7 26
  21715753.194     4467179.96549   3485001.90249  21715754.5894   21715760.1854
  23644884.749   -10756518.22849  -8023447.37249  23644885.8894   23644892.1274
  20090556.205   -13640277.75449 -10616979.52349  20090557.2184   20090561.8284
  21046291.142    -9361528.53449  -7279691.45849  21046291.5894   21046296.9424
  21401672.871   -20577046.33249 -15752857.72249  21401673.8364   21401679.7144
  23600541.331    -9446147.53849  -6869694.11549  23600542.5574   23600547.8914
 96  4 17 18 16 59.9990000  0  6 19 15 27  2  7 26
  21727944.959     4531245.05049   3534922.71549  21727945.7004   21727951.3354
  23637278.957   -10796485.77149  -8054590.89349  23637279.7784   23637286.0824
  20092220.986   -13631528.67349 -10610162.06449  20092222.0474   20092226.8434
  21044404.795    -9371441.11149  -7287415.54349  21044405.3134   21044410.7654
  21387069.247   -20653787.55649 -15812656.06349  21387070.2294   21387076.0594
  23588255.130    -9510712.33049  -6920004.33249  23588256.4734   23588262.4024
 96  4 17 18 17 29.9990000  0  6 19 15 27  2  7 26
  21740201.766     4595657.60249   3585114.27549  21740203.1614   21740208.7064
  23629760.198   -10835996.13649  -8085378.16949  23629761.1784   23629768.1594
  20093978.272   -13622294.26949 -10602966.43349  20093979.1624   20093983.8894
  21042550.901    -9381181.18549  -7295005.21549  21042551.6604   21042557.0334
  21372546.166   -20730105.85349 -15872124.85349  21372547.2234   21372553.6124
  23576052.875    -9574832.60849  -6969968.17649  23576054.4074   23576060.7344
 96  4 17 18 17 59.9990000  0  6 19 15 27  2  7 26
  21752519.327     4660384.76349   3635550.99249  21752520.3834   21752525.8204
  23622327.861   -10875055.61149  -8115814.11649  23622328.4854   23622334.2914
  20095826.703   -13612580.58649 -10595397.34149  20095827.7044   20095832.3654
  21040728.909    -9390755.87049  -7302466.01049  21040729.9054   21040735.0814
  21358099.979   -20806020.42049 -15931279.04649  21358101.3824   21358107.4764
  23563933.764    -9638521.91849  -7019596.20849  23563934.8324   23563940.2144
 96  4 17 18 18 29.9990000  0  6 19 15 27  2  7 26
  21764894.648     4725417.67849   3686225.95449  21764895.4314   21764901.3294
  23614981.466   -10913662.06249  -8145897.05349  23614981.6364   23614987.8614
  20097762.474   -13602410.20849 -10587472.39349  20097763.3004   20097767.8794
  21038937.122    -9400172.70849  -7309803.81049  21038937.7094   21038942.9614
  21343727.800   -20881545.99249 -15990130.12649  21343729.3194   21343735.2944
  23551894.511    -9701789.97149  -7068895.98649  23551896.4854   23551900.2514
 96  4 17 18 18 59.9990000  0  6 19 15 27  2  7 26
  21777328.318     4790754.70649   3737137.89349  21777328.9034   21777334.5884
  23607722.764   -10951808.69449  -8175621.69349  23607722.7014   23607729.0714
  20099784.081   -13591785.52349 -10579193.42849  20099785.1904   20099789.7964
  21037175.731    -9409429.80249  -7317017.13449  21037176.3354   21037181.8234
  21329430.036   -20956683.20049 -16048678.58949  21329431.3754   21329437.3664
  23539934.555    -9764637.14149  -7117867.78649  23539935.5784   23539941.0184
 96  4 17 18 19 29.9990000  0  6 19 15 27  2  7 26
  21789819.298     4856396.33249   3788287.17849  21789820.2754   21789825.5604
  23600553.473   -10989486.85749  -8204981.28749  23600552.8974   23600560.0264
  20101895.453   -13580690.85449 -10570548.24249  20101896.5084   20101901.0124
  21035445.831    -9418521.01849  -7324101.19749  21035446.3984   21035451.5864
  21315203.016   -21031448.47249 -16106937.22749  21315204.2414   21315209.8944
  23528057.010    -9827056.94049  -7166506.59049  23528058.0954   23528062.9824
 96  4 17 18 19 59.9990000  0  6 19 15 27  2  7 26
  21802367.501     4922337.24949   3839669.67849  21802368.7934   21802373.7524
  23593470.980   -11026698.97949  -8233977.73549  23593471.5704   23593478.7124
  20104093.416   -13569140.75349 -10561548.18149  20104094.2584   20104098.9454
  21033745.854    -9427453.64049  -7331061.68649  21033746.4564   21033751.8144
  21301044.890   -21105848.48849 -16164911.25349  21301046.2834   21301051.9534
  23516259.569    -9889051.93549  -7214814.36449  23516261.1594   23516266.5034
 96  4 17 18 20 29.9990000  0  6 19 15 27  2  7 26
  21814975.105     4988591.10449   3891296.02449  21814976.1174   21814981.5724
  23586477.839   -11063439.87349  -8262606.97249  23586479.6484   23586486.1014
  20106379.087   -13557128.68449 -10552188.14149  20106379.9984   20106384.6284
  21032073.016    -9436245.45049  -7337912.45149  21032073.5544   21032078.7484
  21286962.021   -21179856.86149 -16222580.10149  21286962.9524   21286968.6814
  23504542.839    -9950622.48849  -7262791.41649  23504544.8124   23504549.7044
 96  4 17 18 20 59.9990000  0  6 19 15 27  2  7 26
  21827640.460     5055145.82149   3943156.80149  21827641.2604   21827646.6744
  23579576.519   -11099716.50749  -8290874.47449  23579577.1954   23579582.5504
  20108752.385   -13544657.99649 -10542470.73749  20108753.3264   20108757.8334
  21030425.348    -9444905.33649  -7344660.41849  21030425.6814   21030430.8744
  21272954.208   -21253468.87449 -16279940.09549  21272955.0724   21272960.7514
  23492906.257   -10011774.25849  -7310442.12649  23492907.4304   23492913.2684
 96  4 17 18 21 29.9990000  0  6 19 15 27  2  7 26
  21840363.414     5122006.32349   3995255.85949  21840363.9864   21840369.4194
  23572761.652   -11135525.59649  -8318777.63749  23572762.8614   23572767.8764
  20111211.417   -13531736.90449 -10532402.36449  20111212.1304   20111216.7204
  21028803.363    -9453427.85349  -7351301.34449  21028803.7554   21028808.9534
  21259022.176   -21326681.27049 -16336988.70249  21259022.9964   21259028.8044
  23481350.496   -10072501.48949  -7357762.04149  23481351.4174   23481357.8074
 96  4 17 18 21 59.9990000  0  6 19 15 27  2  7 26
  21853146.890     5189183.96749   4047602.04149  21853147.5864   21853153.2704
  23566037.660   -11170862.43849  -8346312.82449  23566037.9194   23566044.2384
  20113756.012   -13518364.82149 -10521982.57949  20113756.6874   20113761.1874
  21027211.073    -9461798.47449  -7357823.91349  21027211.1684   21027216.2494
  21245169.954   -21399475.67949 -16393711.59849  21245170.4554   21245175.8954
  23469877.137   -10132793.30949  -7404742.67949  23469878.4864   23469884.2824
 96  4 17 18 22 29.9990000  0  6 19 15 27  2  7 26
  21865992.667     5256689.99449   4100204.10649  21865993.5724   21865998.7974
  23559406.477   -11205717.92449  -8373472.92949  23559406.1874   23559411.3694
  20116388.490   -13504534.34249 -10511205.59149  20116388.5304   20116393.1674
  21025651.820    -9469991.12249  -7364207.79749  21025652.0964   21025657.2804
  21231396.873   -21471854.79349 -16450110.88949  21231397.4714   21231403.0814
  23458491.043   -10192631.05649  -7451369.49249  23458490.7354   23458496.8354
 96  4 17 18 22 59.9990000  0  6 19 15 27  2  7 26
  21878902.060     5324525.70249   4153063.06349  21878902.5404   21878907.5434
  23552864.569   -11240089.43049  -8400255.89849  23552865.0424   23552870.5494
  20119105.344   -13490255.32249 -10500079.09349  20119105.7924   20119110.0944
  21024131.321    -9477982.60149  -7370434.92849  21024131.6044   21024136.8494
  21217699.091   -21543838.30349 -16506201.92249  21217699.5474   21217705.2674
  23447192.918   -10252000.37449  -7497631.27649  23447194.1254   23447199.1264
 96  4 17 18 23 29.9990000  0  6 19 15 27  2  7 26
  21891875.764     5392705.53349   4206190.17349  21891876.2914   21891882.2184
  23546416.250   -11273977.56549  -8426662.21449  23546416.7974   23546421.9104
  20121909.840   -13475517.56849 -10488595.13949  20121910.1934   20121914.7374
  21022650.730    -9485764.41349  -7376498.68149  21022650.5354   21022655.4214
  21204074.441   -21615436.71649 -16561992.87449  21204074.7224   21204080.5504
  23435986.254   -10310895.15549  -7543523.30249  23435986.9114   23435992.4184
 96  4 17 18 23 59.9990000  0  6 19 15 27  2  7 26
  21904914.623     5461225.15849   4259582.05249  21904915.3404   21904921.0344
  23540059.212   -11307383.63949  -8452692.91349  23540059.4894   23540065.4924
  20124802.932   -13460314.87849 -10476748.90749  20124803.2704   20124807.6574
  21021210.063    -9493334.01949  -7382397.08149  21021210.2044   21021215.3324
  21190523.606   -21686645.93549 -16617480.56149  21190524.1134   21190529.8394
  23424868.844   -10369316.12949  -7589046.14549  23424869.2224   23424874.5984
 96  4 17 18 24 29.9990000  0  6 19 15 27  2  7 26
  21918017.531     5530081.82549   4313236.56149  21918018.5324   21918024.0714
  23533795.465   -11340299.00349  -8478341.23349  23533796.3614   23533801.3614
  20127786.160   -13444638.64849 -10464533.67049  20127786.2584   20127790.7784
  21019808.121    -9500701.60649  -7388138.06149  21019808.1664   21019813.3294
  21177048.192   -21757458.94349 -16672659.51049  21177048.7614   21177054.2464
  23413841.266   -10427265.42849  -7634201.44149  23413842.4514   23413846.5854
 96  4 17 18 24 59.9990000  0  6 19 15 27  2  7 26
  21931186.570     5599283.60649   4367159.99149  21931187.0144   21931192.4774
  23527627.245   -11372715.57449  -8503600.88549  23527627.3154   23527633.5534
  20130864.266   -13428462.95749 -10451929.24849  20130864.5214   20130869.2044
  21018442.546    -9507878.70849  -7393730.61349  21018442.2424   21018447.6144
  21163653.123   -21827850.63349 -16727510.16349  21163653.5694   21163659.3084
  23402902.470   -10484748.25149  -7678993.23649  23402902.7544   23402908.4034
 96  4 17 18 25 29.9990000  0  6 19 15 27  2  7 26
  21944419.987     5668826.63649   4421349.33349  21944420.2574   21944426.8204
  23521554.300   -11404628.17049  -8528467.83849  23521554.7914   23521560.6944
  20134039.712   -13411775.79249 -10438926.28149  20134040.2834   20134044.5364
  21017111.683    -9514871.32649  -7399179.41249  21017111.6984   21017116.6664
  21150341.171   -21897806.31949 -16782021.07649  21150341.4504   21150347.2624
  23392049.925   -10541780.96449  -7723434.30449  23392050.7304   23392055.7264
 96  4 17 18 25 59.9990000  0  6 19 15 27  2  7 26
  21957714.177     5738687.33549   4475786.20649  21957714.6314   21957720.4294
  23515576.664   -11436041.42149  -8552945.67449  23515576.3494   23515582.4904
  20137308.728   -13394595.95949 -10425539.41349  20137309.5244   20137313.9004
  21015812.507    -9521698.46349  -7404499.26449  21015812.8184   21015817.7404
  21137110.642   -21967332.50149 -16836197.31249  21137110.9714   21137116.4304
  23381278.961   -10598383.23149  -7767539.97049  23381280.3654   23381285.2494
 96  4 17 18 26 29.9990000  0  6 19 15 27  2  7 26
  21971071.314     5808881.01349   4530482.54249  21971071.8274   21971078.0214
  23509694.079   -11466946.29449  -8577027.37549  23509695.4614   23509701.6994
  20140673.844   -13376913.86749 -10411761.17149  20140674.3914   20140678.8864
  21014545.129    -9528358.50549  -7409688.91249  21014545.3234   21014550.4644
  21123961.439   -22036430.00349 -16890039.50549  21123961.9804   21123967.9304
  23370590.699   -10654550.40549  -7811306.59849  23370591.2654   23370596.0474
 96  4 17 18 26 59.9990000  0  6 19 15 27  2  7 26
  21984491.385     5879399.78349   4585432.19549  21984491.5324   21984497.4294
  23503909.368   -11497353.40049  -8600721.21649  23503908.8604   23503915.0484
  20144131.143   -13358743.79349 -10397602.68249  20144131.6794   20144136.0584
  21013308.911    -9534854.02749  -7414750.36149  21013309.1574   21013314.2754
  21110892.478   -22105108.82749 -16943555.46149  21110892.9684   21110898.7684
  23359983.877   -10710290.06849  -7854740.09049  23359985.0594   23359990.4084
 96  4 17 18 27 29.9990000  0  6 19 15 27  2  7 26
  21997971.679     5950236.61949   4640629.69049  21997971.6824   21997976.7564
  23498218.119   -11527259.33249  -8624024.51849  23498217.7944   23498224.2524
  20147678.605   -13340103.18849 -10383077.55649  20147679.1234   20147683.5654
  21012103.611    -9541188.27749  -7419686.14649  21012103.7674   21012108.9144
  21097902.133   -22173373.26849 -16996748.51949  21097902.9244   21097908.5534
  23349459.517   -10765595.04749  -7897834.87049  23349460.3394   23349465.2764
 96  4 17 18 27 59.9990000  0  6 19 15 27  2  7 26
  22011514.423     6021404.48349   4696085.12649  22011514.7954   22011519.9094
  23492623.329   -11556658.09049  -8646932.61449  23492624.1094   23492630.2874
  20151317.523   -13320978.73049 -10368175.40149  20151318.4694   20151322.9734
  21010928.548    -9547362.87449  -7424497.52449  21010928.6574   21010933.9124
  21084993.192   -22241211.37149 -17049609.36749  21084993.7864   21084999.3274
  23339023.350   -10820438.58549  -7940570.09849  23339024.1944   23339029.3714
 96  4 17 18 28 29.9990000  0  6 19 15 27  2  7 26
  22025117.093     6092885.12649   4751784.29349  22025117.2624   22025122.7714
  23487125.102   -11585555.53949  -8669450.10149  23487124.9884   23487130.8594
  20155049.890   -13301369.45249 -10352895.46649  20155049.8784   20155054.1304
  21009783.068    -9553383.67449  -7429189.05849  21009783.1244   21009787.9534
  21072165.962   -22308619.41849 -17102135.10249  21072166.3534   21072171.9114
  23328675.725   -10874816.16449  -7982942.23949  23328676.0154   23328681.1844
 96  4 17 18 28 59.9990000  0  6 19 15 27  2  7 26
  22038774.250     6164652.66449   4807707.01649  22038774.2294   22038779.1324
  23481720.561   -11613953.06549  -8691578.02349  23481720.4984   23481726.9424
  20158871.771   -13281283.10149 -10337243.78549  20158872.2514   20158876.7114
  21008664.651    -9559261.28949  -7433769.02649  21008664.7224   21008669.6474
  21059421.110   -22375594.34349 -17154323.34749  21059421.5764   21059426.8284
  23318418.998   -10928717.01649  -8024942.90149  23318419.8514   23318423.4884
 96  4 17 18 29 29.9990000  0  6 19 15 27  2  7 26
  22052488.019     6236719.27249   4863862.77849  22052487.8524   22052493.1944
  23476414.153   -11641840.43149  -8713308.43249  23476414.3034   23476420.1414
  20162786.242   -13260711.62849 -10321214.07749  20162787.0064   20162791.2974
  21007575.259    -9564985.83649  -7438229.71949  21007575.4304   21007580.3944
  21046759.365   -22442129.98149 -17206169.28649  21046759.8884   21046765.4564
  23308255.945   -10982121.10549  -8066556.47449  23308256.3694   23308261.4184
 96  4 17 18 29 59.9990000  0  6 19 15 27  2  7 26
  22066260.430     6309095.77549   4920260.01549  22066260.8064   22066266.3804
  23471205.889   -11669210.13449  -8734635.45749  23471206.1074   23471212.2034
  20166795.508   -13239643.00949 -10304796.98649  20166795.9234   20166800.5424
  21006519.688    -9570533.31949  -7442552.44249  21006519.8734   21006524.9354
  21034180.632   -22508233.37849 -17257678.41149  21034180.9924   21034186.4214
  23298191.911   -11035008.56549  -8107767.47949  23298192.0754   23298196.9544
 96  4 17 18 30 29.9990000  0  6 19 15 27  2  7 26
  22080091.855     6381780.66849   4976897.55549  22080092.4184   22080097.5114
  23466095.210   -11696059.11349  -8755556.72049  23466096.9434   23466102.2144
  20170894.683   -13218100.81149 -10288010.87549  20170895.4154   20170899.9064
  21005501.615    -9575883.43449  -7446721.37349  21005501.8164   21005506.6614
  21021681.882   -22573912.87649 -17308857.22649  21021682.4884   21021687.9654
  23288224.370   -11087385.81149  -8148580.91149  23288225.1574   23288230.3234
 96  4 17 18 30 59.9990000  0  6 19 15 27  2  7 26
  22093986.239     6454798.09349   5033794.21749  22093987.1744   22093991.8184
  23461085.809   -11722386.85249  -8776071.82649  23461086.4994   23461092.7454
  20175082.331   -13196095.92749 -10270864.23049  20175082.8224   20175087.3074
  21004519.343    -9581043.24949  -7450742.01049  21004519.4944   21004525.0874
  21009262.585   -22639177.95549 -17359713.12249  21009263.1794   21009268.5824
  23278352.104   -11139262.22549  -8189004.08849  23278353.5424   23278359.2564
 96  4 17 18 31 29.9990000  0  6 19 15 27  2  7 26
  22107945.002     6528152.08149   5090953.13449  22107945.5894   22107951.0084
  23456174.149   -11748199.62849  -8796185.66049  23456174.6114   23456179.9914
  20179357.040   -13173629.28349 -10253357.77349  20179358.0484   20179362.6074
  21003573.272    -9586014.18249  -7454615.47449  21003573.8444   21003578.9924
  20996918.867   -22704041.88249 -17410256.42249  20996919.8324   20996925.3834
  23268571.128   -11190663.21349  -8229056.79549  23268572.6364   23268577.8464
 96  4 17 18 31 59.9990000  0  6 19 15 27  2  7 26
  22121963.926     6601822.46149   5148358.59049  22121964.6424   22121969.9364
  23451357.129   -11773506.16449  -8815905.03349  23451358.9164   23451364.7314
  20183719.211   -13150705.97649 -10235495.47749  20183720.2204   20183725.0074
  21002659.425    -9590818.36849  -7458359.00349  21002659.7104   21002664.6784
  20984651.235   -22768509.50749 -17460490.92249  20984651.9684   20984657.5364
  23258875.578   -11241612.84849  -8268757.80949  23258876.9364   23258882.6814
 96  4 17 18 32 29.9990000  0  6 19 15 27  2  7 26
  22136045.762     6675823.90249   5206022.01449  22136046.7374   22136051.9284
  23446644.477   -11798280.11949  -8835209.40449  23446644.4214   23446650.3654
  20188174.485   -13127293.60649 -10217252.08649  20188175.4714   20188180.1554
  21001776.989    -9595454.16649  -7461971.32249  21001777.5024   21001782.6924
  20972467.883   -22832533.73949 -17510379.91849  20972468.5444   20972473.9414
  23249268.939   -11292100.00249  -8308098.43549  23249269.5714   23249274.9534
 96  4 17 18 32 59.9990000  0  6 19 15 27  2  7 26
  22150186.027     6750132.46549   5263924.75249  22150187.0474   22150192.2744
  23442027.114   -11822537.14849  -8854110.97349  23442028.1594   23442034.2334
  20192723.923   -13103385.91949 -10198622.73449  20192724.6234   20192729.5914
  21000920.155    -9599957.69449  -7465480.57149  21000920.4684   21000925.6544
  20960365.722   -22896129.10149 -17559934.72949  20960366.5564   20960371.8154
  23239748.102   -11342128.62849  -8347081.77649  23239749.3724   23239754.7954
 96  4 17 18 33 29.9990000  0  6 19 15 27  2  7 26
  22164382.991     6824736.14449   5322057.45449  22164383.8614   22164389.2084
  23437513.271   -11846261.74349  -8872597.65949  23437514.3444   23437519.6314
  20197370.789   -13078965.94349 -10179594.19449  20197371.6424   20197376.7914
  21000093.219    -9604302.90849  -7468866.46349  21000093.4454   21000098.6324
  20948349.328   -22959277.24049 -17609141.05849  20948350.3224   20948355.5224
  23230321.011   -11391669.92849  -8385685.38449  23230322.1004   23230327.5584
 96  4 17 18 33 59.9990000  0  6 19 15 27  2  7 26
  22178631.130     6899611.62449   5380401.94449  22178632.0144   22178637.4614
  23433096.946   -11869468.24649  -8890680.63949  23433097.7574   23433103.0764
  20202109.818   -13054061.79749 -10160188.38449  20202110.6544   20202115.6594
  20999293.368    -9608506.60449  -7472142.07649  20999293.7434   20999298.8084
  20936416.485   -23021985.45949 -17658004.59349  20936417.2714   20936422.6864
  23220986.173   -11440724.84449  -8423909.98749  23220987.1754   23220992.1614
 96  4 17 18 34 29.9990000  0  6 19 15 27  2  7 26
  22192928.269     6974747.59949   5438949.42149  22192929.4844   22192935.6624
  23428776.315   -11892170.54949  -8908370.73249  23428777.2584   23428783.8764
  20206935.736   -13028701.62449 -10140427.21749  20206936.6054   20206941.5874
  20998520.210    -9612569.90449  -7475308.29349  20998520.4594   20998525.7984
  20924562.130   -23084279.60849 -17706545.47149  20924563.0734   20924568.7544
  23211742.828   -11489299.76949  -8461760.57349  23211743.8394   23211748.8634
 96  4 17 18 34 59.9990000  0  6 19 15 27  2  7 26
  22207283.812     7050182.18449   5497729.57849  22207284.3504   22207289.7594
  23424558.587   -11914343.90549  -8925648.65849  23424558.2844   23424564.8394
  20211851.419   -13002870.21849 -10120298.86249  20211852.4774   20211857.2484
  20997781.062    -9616453.87049  -7478334.76749  20997781.3704   20997786.3504
  20912789.552   -23146145.48849 -17754752.63749  20912790.2634   20912795.9404
  23202595.646   -11537369.12349  -8499217.20849  23202596.2024   23202601.7424
 96  4 17 18 35 29.9990000  0  6 19 15 27  2  7 26
  22221697.292     7125928.29849   5556752.48449  22221698.4754   22221704.5674
  23420438.043   -11935985.72449  -8942512.40549  23420439.3454   23420445.9374
  20216855.642   -12976572.58249 -10099807.21449  20216856.8204   20216861.4354
  20997078.441    -9620143.84349  -7481210.08149  20997079.0854   20997084.5124
  20901100.197   -23207572.39649 -17802617.74849  20901101.2774   20901106.9094
  23193541.923   -11584947.45249  -8536291.22349  23193543.0134   23193547.7154
 96  4 17 18 35 59.9990000  0  6 19 15 27  2  7 26
  22236173.319     7201999.37349   5616028.61049  22236174.0034   22236180.0774
  23416421.436   -11957103.01249  -8958967.42349  23416421.3484   23416427.6214
  20221947.420   -12949815.20949 -10078957.32949  20221948.3354   20221953.0304
  20996410.189    -9623655.58049  -7483946.51049  20996410.7934   20996415.7874
  20889494.570   -23268559.71649 -17850140.32349  20889495.4694   20889501.2764
  23184576.098   -11632058.37749  -8573001.03749  23184577.6544   23184582.2004
 96  4 17 18 36 29.9990000  0  6 19 15 27  2  7 26
  22250710.789     7278392.86349   5675555.96249  22250711.5594   22250717.8854
  23412499.683   -11977701.51549  -8975018.18849  23412501.7544   23412507.9304
  20227127.232   -12922594.81849 -10057746.64549  20227128.3054   20227133.2474
  20995773.296    -9627003.33749  -7486555.16149  20995773.7674   20995778.9784
  20877971.499   -23329114.02349 -17897325.48649  20877972.4284   20877978.3074
  23175698.757   -11678709.87049  -8609352.85249  23175699.8874   23175705.5234
 96  4 17 18 36 59.9990000  0  6 19 15 27  2  7 26
  22265309.774     7355111.85549   5735336.94849  22265310.4334   22265316.9534
  23408684.065   -11997763.04949  -8990650.54749  23408683.9004   23408690.3354
  20232402.155   -12894874.39849 -10036146.33249  20232403.3864   20232408.0514
  20995168.702    -9630179.47449  -7489030.08349  20995169.2314   20995174.6124
  20866536.258   -23389206.87249 -17944151.06849  20866537.1914   20866542.8534
  23166913.685   -11724876.96949  -8645327.21949  23166914.3804   23166919.9564
 96  4 17 18 37 29.9990000  0  6 19 15 27  2  7 26
  22279963.996     7432118.26649   5795341.90449  22279964.4144   22279970.9614
  23404964.448   -12017304.17749  -9005877.38949  23404965.4274   23404972.0954
  20237770.074   -12866666.98149 -10014166.54549  20237771.2284   20237775.7054
  20994590.965    -9633217.04249  -7491397.02849  20994591.4744   20994596.4954
  20855185.531   -23448853.97749 -17990629.31949  20855186.6404   20855192.8054
  23158218.821   -11770569.93349  -8680932.11949  23158220.3644   23158225.0694
 96  4 17 18 37 59.9990000  0  6 19 15 27  2  7 26
  22294668.558     7509393.55149   5855556.36049  22294669.0784   22294676.1264
  23401345.689   -12036328.33449  -9020701.40649  23401345.3004   23401351.3734
  20243230.773   -12837970.92949  -9991805.99649  20243231.6504   20243236.6364
  20994034.424    -9636141.27749  -7493675.66949  20994034.9624   20994040.0734
  20843916.120   -23508077.42049 -18036777.44749  20843916.8474   20843922.6274
  23149615.492   -11815777.67949  -8716158.93749  23149617.0244   23149622.1674
 96  4 17 18 38 29.9990000  0  6 19 15 27  2  7 26
  22309420.127     7586913.54749   5915961.51249  22309421.2314   22309427.5054
  23397823.995   -12054833.85449  -9035121.27349  23397823.7984   23397829.8884
  20248787.082   -12808772.04349  -9969053.63749  20248788.0114   20248792.7164
  20993499.961    -9638950.23149  -7495864.47349  20993500.4954   20993505.7194
  20832723.479   -23566892.83449 -18082607.62649  20832724.6634   20832730.4084
  23141108.715   -11860484.00749  -8750995.03749  23141109.8014   23141115.2744
 96  4 17 18 38 59.9990000  0  6 19 15 27  2  7 26
  22324223.829     7664703.35649   5976576.90649  22324224.5514   22324230.0734
  23394403.953   -12072797.90949  -9049119.23249  23394404.9724   23394411.6074
  20254442.933   -12779051.90649  -9945895.10049  20254443.8334   20254448.4894
  20992992.634    -9641614.64949  -7497940.65649  20992993.2924   20992998.6824
  20821612.631   -23625281.33949 -18128105.14949  20821613.8164   20821619.4544
  23132699.978   -11904671.70849  -8785427.01649  23132701.3434   23132706.2174
 96  4 17 18 39 29.9990000  0  6 19 15 27  2  7 26
  22339077.194     7742759.40849   6037399.75349  22339078.2084   22339084.2194
  23391086.051   -12090235.92949  -9062707.28749  23391087.9354   23391093.0094
  20260190.931   -12748845.20749  -9922357.43149  20260191.9704   20260196.4414
  20992510.069    -9644153.18149  -7499918.74749  20992510.5064   20992515.8134
  20810579.694   -23683260.58349 -18173283.77049  20810580.5844   20810585.9514
  23124384.124   -11948368.58149  -8819476.52949  23124385.9614   23124391.3644
 96  4 17 18 39 59.9990000  0  6 19 15 27  2  7 26
  22353983.447     7821091.42949   6098437.64949  22353984.2784   22353989.9974
  23387869.799   -12107142.28049  -9075881.06649  23387870.0544   23387875.5484
  20266030.194   -12718160.67649  -9898447.42149  20266030.9294   20266035.6264
  20992055.349    -9646542.23749  -7501780.35749  20992055.6904   20992060.6934
  20799625.951   -23740822.73849 -18218137.38049  20799626.7834   20799632.5464
  23116163.619   -11991571.35449  -8853141.03049  23116164.5364   23116169.5424
 96  4 17 18 40 29.9990000  0  6 19 15 27  2  7 26
  22368944.945     7899713.65249   6159701.67449  22368945.0474   22368951.4994
  23384754.825   -12123509.18249  -9088634.48749  23384755.4324   23384761.1404
  20271959.132   -12687004.02249  -9874169.52249  20271960.0374   20271964.7334
  20991633.991    -9648756.37849  -7503505.67249  20991634.3844   20991639.7194
  20788756.678   -23797942.09149 -18262645.95149  20788757.3684   20788763.0794
  23108037.293   -12034276.43449  -8886417.71649  23108037.9664   23108043.1364
 96  4 17 18 40 59.9990000  0  6 19 15 27  2  7 26
  22383963.614     7978637.84149   6221200.99949  22383964.7264   22383969.9024
  23381741.463   -12139346.50949  -9100975.26949  23381741.4414   23381747.2434
  20277972.978   -12655400.69149  -9849543.55849  20277973.9724   20277978.5524
  20991244.361    -9650804.37949  -7505101.53349  20991244.6794   20991249.9804
  20777972.752   -23854609.90049 -18306802.67449  20777973.9884   20777979.3674
  23100002.077   -12076499.10549  -8919318.50749  23100003.0424   23100008.5374
 96  4 17 18 41 29.9990000  0  6 19 15 27  2  7 26
  22399039.656     8057862.81749   6282934.70049  22399040.3884   22399046.0824
  23378829.173   -12154651.33049  -9112901.10549  23378829.4504   23378835.0644
  20284072.324   -12623348.60549  -9824567.90949  20284073.3374   20284078.1564
  20990886.413    -9652685.00049  -7506566.95949  20990886.8224   20990892.1494
  20767275.769   -23910824.12349 -18350605.94849  20767276.5944   20767282.1734
  23092059.720   -12118236.40149  -8951841.06849  23092060.9964   23092066.3694
 96  4 17 18 41 59.9990000  0  6 19 15 27  2  7 26
  22414173.853     8137391.49649   6344905.05049  22414174.1714   22414179.9814
  23376018.508   -12169418.08049  -9124407.66649  23376018.8964   23376024.3354
  20290260.098   -12590830.65249  -9799229.26349  20290261.2064   20290265.7094
  20990562.494    -9654387.80749  -7507893.83049  20990562.7464   20990568.0824
  20756664.230   -23966586.52349 -18394057.15449  20756665.2944   20756670.7284
  23084211.540   -12159481.99749  -8983980.49249  23084212.0794   23084217.7014
 96  4 17 18 42 29.9990000  0  6 19 15 27  2  7 26
  22429367.194     8217232.83649   6407119.03549  22429368.1734   22429373.6714
  23373311.090   -12183646.41949  -9135494.67649  23373310.4604   23373317.8744
  20296540.916   -12557824.63649  -9773510.30849  20296541.7894   20296546.5444
  20990267.450    -9655938.49849  -7509102.17449  20990267.7114   20990272.9234
  20746140.080   -24021893.78449 -18437153.70749  20746140.6624   20746146.1154
  23076456.371   -12200235.13649  -9015736.19449  23076457.1394   23076462.3114
 96  4 17 18 42 59.9990000  0  6 19 15 27  2  7 26
  22444616.954     8297370.83149   6469564.17949  22444617.3154   22444623.3334
  23370704.094   -12197342.42449  -9146166.88449  23370704.7214   23370711.8224
  20302913.462   -12524336.88849  -9747415.97249  20302914.5044   20302919.2724
  20989998.853    -9657349.24449  -7510201.46749  20989999.2734   20990004.4294
  20735697.764   -24076767.18749 -18479912.19049  20735698.6344   20735703.9444
  23068790.478   -12240518.35149  -9047125.71449  23068791.8334   23068796.0614
 96  4 17 18 43 29.9990000  0  6 19 15 27  2  7 26
  22459921.532     8377798.51949   6532235.05249  22459923.1024   22459928.0074
  23368201.061   -12210490.55349  -9156412.18049  23368202.7744   23368209.4404
  20309378.583   -12490359.18349  -9720939.85149  20309379.7664   20309384.9024
  20989759.292    -9658606.47449  -7511181.13349  20989760.0944   20989765.0954
  20725339.514   -24131197.58749 -18522325.47649  20725340.8364   20725346.2414
  23061216.435   -12280318.03349  -9078138.45149  23061218.0074   23061223.2004
 96  4 17 18 43 59.9990000  0  6 19 15 27  2  7 26
  22475280.911     8458510.37649   6595127.36149  22475281.4954   22475287.3974
  23365806.648   -12223082.40249  -9166224.01549  23365806.8274   23365813.2664
  20315939.558   -12455883.24549  -9694075.51149  20315940.5914   20315945.0944
  20989551.175    -9659699.00649  -7512032.46249  20989551.8324   20989557.4604
  20715070.115   -24185164.41649 -18564377.53849  20715071.4154   20715076.9414
  23053737.701   -12319619.38949  -9108762.88249  23053738.8954   23053743.9004
 96  4 17 18 44 29.9990000  0  6 19 15 27  2  7 26
  22490689.540     8539486.02749   6658225.21749  22490691.2644   22490695.8274
  23363513.663   -12235127.36549  -9175609.70249  23363515.9324   23363521.1934
  20322590.872   -12420928.39149  -9666837.98449  20322592.1434   20322597.3274
  20989373.609    -9660631.79749  -7512759.31649  20989374.3934   20989379.6274
  20704887.212   -24238673.04849 -18606072.56549  20704888.5744   20704894.6114
  23046349.692   -12358439.99049  -9139012.69849  23046352.3094   23046357.0844
 96  4 17 18 44 59.9990000  0  6 19 15 27  2  7 26
  22506144.817     8620703.14649   6721511.23549  22506146.2594   22506151.5974
  23361325.443   -12246632.14549  -9184574.46449  23361325.6694   23361331.8484
  20329328.985   -12385522.22749  -9639248.78649  20329330.0164   20329334.9174
  20989228.653    -9661394.08749  -7513353.31549  20989229.2684   20989234.6724
  20694788.729   -24291742.13249 -18647425.08749  20694790.2104   20694795.8644
  23039052.157   -12396792.56949  -9168897.82449  23039053.3654   23039058.5424
 96  4 17 18 45 29.9990000  0  6 19 15 27  2  7 26
  22521648.481     8702175.07849   6784995.81049  22521649.0814   22521654.6394
  23359241.327   -12257580.03249  -9193105.29049  23359242.3794   23359247.7864
  20336157.889   -12349636.72749  -9611286.07749  20336159.0594   20336163.6894
  20989117.173    -9661981.62249  -7513811.14149  20989117.5444   20989122.8744
  20684779.818   -24344342.61849 -18688412.47049  20684780.5814   20684786.4314
  23031850.140   -12434639.77649  -9198389.15649  23031851.7254   23031857.1844
 96  4 17 18 45 59.9990000  0  6 19 15 27  2  7 26
  22537208.100     8783942.22149   6848710.41649  22537209.2574   22537215.2894
  23357270.380   -12267944.98649  -9201181.87849  23357270.1954   23357275.6804
  20343085.604   -12313233.21149  -9582919.70849  20343086.3904   20343090.8544
  20989039.929    -9662386.69349  -7514126.79649  20989040.6774   20989045.5874
  20674863.386   -24396452.94749 -18729017.91349  20674864.4714   20674870.1994
  23024748.772   -12471958.09649  -9227468.36349  23024749.9534   23024754.8884
 96  4 17 18 46 29.9990000  0  6 19 15 27  2  7 26
  22552818.409     8865975.00749   6912632.02549  22552819.1884   22552825.4014
  23355398.223   -12277768.20749  -9208836.35549  23355400.5804   23355407.0754
  20350104.311   -12276349.77149  -9554179.39349  20350104.9924   20350109.8014
  20988986.999    -9662665.88249  -7514344.35549  20988987.5084   20988992.3504
  20665028.604   -24448132.48649 -18769287.67149  20665029.8734   20665035.7564
  23017740.830   -12508783.54149  -9256163.50549  23017742.3814   23017747.6564
 96  4 17 18 46 59.9990000  0  6 19 15 27  2  7 26
  22568481.993     8948286.70449   6976770.95949  22568482.9914   22568488.8484
  23353634.505   -12287038.93449  -9216060.30849  23353636.6844   23353642.9724
  20357217.338   -12238969.02749  -9525051.56149  20357218.4824   20357222.9684
  20988959.007    -9662814.44349  -7514460.12649  20988959.0594   20988964.1584
  20655279.511   -24499366.25349 -18809210.07649  20655280.5674   20655286.3704
  23010833.239   -12545084.65749  -9284450.08549  23010834.4484   23010839.8584
 96  4 17 18 47 29.9990000  0  6 19 15 27  2  7 26
  22584205.285     9030914.61649   7041156.29849  22584206.5384   22584211.9044
  23351982.921   -12295726.55649  -9222829.89349  23351983.2064   23351989.7244
  20364431.813   -12201056.41549  -9495509.29349  20364432.8264   20364437.6034
  20988962.457    -9662794.92149  -7514444.92449  20988963.1764   20988968.0804
  20645622.491   -24550116.97749 -18848756.08549  20645623.1114   20645628.9234
  23004032.358   -12580825.07049  -9312299.76149  23004033.2424   23004038.8394
 96  4 17 18 47 59.9990000  0  6 19 15 27  2  7 26
  22599982.087     9113821.63649   7105759.12849  22599983.0314   22599989.3054
  23350432.319   -12303875.28349  -9229179.55149  23350432.8164   23350439.0454
  20371737.078   -12162667.26049  -9465595.69149  20371738.0764   20371742.9974
  20988992.516    -9662637.45449  -7514322.23049  20988993.0754   20988998.1174
  20636045.629   -24600441.56549 -18887970.03849  20636046.7364   20636052.2364
  22997327.824   -12616055.48549  -9339752.02549  22997329.3414   22997334.4784
 96  4 17 18 48 29.9990000  0  6 19 15 27  2  7 26
  22615809.589     9196996.45349   7170570.63049  22615810.1494   22615817.1344
  23348985.304   -12311475.60249  -9235101.89649  23348985.7654   23348992.2264
  20379132.671   -12123802.66649  -9435311.61449  20379133.6364   20379138.4124
  20989054.708    -9662311.36549  -7514068.14449  20989054.9704   20989059.6474
  20626551.879   -24650332.37449 -18926845.98449  20626552.7524   20626558.5814
  22990723.290   -12650763.07849  -9366796.90049  22990724.4094   22990729.7444
 96  4 17 18 48 59.9990000  0  6 19 15 27  2  7 26
  22631688.398     9280438.91049   7235590.67549  22631689.4224   22631695.5254
  23347645.782   -12318517.04449  -9240588.73649  23347645.8004   23347652.3384
  20386618.408   -12084464.49649  -9404658.51649  20386619.4134   20386624.4294
  20989151.099    -9661802.44549  -7513671.58849  20989151.8214   20989156.9264
  20617143.861   -24699770.90049 -18965369.49749  20617144.9944   20617150.6874
  22984217.227   -12684951.88149  -9393437.52649  22984218.8604   22984224.1244
 96  4 17 18 49 29.9990000  0  6 19 15 27  2  7 26
  22647615.347     9364134.68849   7300808.12349  22647616.5334   22647622.7634
  23346409.168   -12325013.79449  -9245651.14949  23346410.2604   23346415.9124
  20394191.642   -12044667.38349  -9373647.79349  20394192.4944   20394197.4144
  20989276.719    -9661143.12449  -7513157.83749  20989277.3954   20989282.3394
  20607820.658   -24748766.37849 -19003547.78349  20607821.5724   20607827.0504
  22977804.738   -12718650.04449  -9419695.83049  22977806.3094   22977811.2334
 96  4 17 18 49 59.9990000  0  6 19 15 27  2  7 26
  22663591.093     9448088.21349   7366226.39449  22663591.6044   22663597.8984
  23345280.259   -12330952.08149  -9250278.38049  23345279.5604   23345285.9714
  20401855.375   -12004394.43249  -9342266.28949  20401856.2434   20401861.3984
  20989430.390    -9660338.35649  -7512530.74849  20989430.5324   20989435.4374
  20598583.652   -24797305.98449 -19041370.84149  20598584.7014   20598589.9904
  22971488.333   -12751846.31449  -9445563.05949  22971489.2304   22971493.8594
 96  4 17 18 50 29.9990000  0  6 19 15 27  2  7 26
  22679615.782     9532297.42949   7431843.92249  22679616.9154   22679622.7414
  23344257.048   -12336320.02749  -9254461.20149  23344258.6354   23344264.5884
  20409612.911   -11963628.20649  -9310500.42049  20409613.7344   20409618.9124
  20989611.725    -9659383.85749  -7511786.98849  20989612.3584   20989617.3284
  20589438.618   -24845364.00649 -19078818.64349  20589439.7544   20589445.0014
  22965269.746   -12784525.65449  -9471027.48149  22965270.2484   22965276.1274
 96  4 17 18 50 59.9990000  0  6 19 15 27  2  7 26
  22695691.262     9616774.25049   7497669.97149  22695692.1224   22695698.0074
  23343343.951   -12341120.35349  -9258201.70549  23343345.5204   23343351.0994
  20417464.327   -11922369.56249  -9278350.84249  20417465.2124   20417470.2634
  20989819.667    -9658291.94349  -7510936.15049  20989820.0174   20989825.1824
  20580385.378   -24892939.45649 -19115890.41149  20580386.2994   20580391.7504
  22959147.608   -12816694.44349  -9496094.06849  22959148.6394   22959154.0894
 96  4 17 18 51 29.9990000  0  6 19 15 27  2  7 26
  22711814.450     9701501.81549   7563691.40049  22711815.0124   22711820.9014
  23342535.243   -12345371.18249  -9261514.04349  23342536.0554   23342542.1604
  20425405.837   -11880637.61349  -9245832.45549  20425406.3494   20425411.4574
  20990051.142    -9657074.90249  -7509987.81049  20990051.6254   20990056.7564
  20571418.231   -24940061.70949 -19152609.03949  20571419.2054   20571424.7464
  22953121.861   -12848361.76149  -9520769.90349  22953123.2024   22953128.2714
 96  4 17 18 51 59.9990000  0  6 19 15 27  2  7 26
  22727985.541     9786483.50949   7629910.85549  22727986.5344   22727993.1624
  23341832.049   -12349066.06649  -9264393.17849  23341833.6354   23341839.6164
  20433437.422   -11838429.80449  -9212943.27749  20433438.5814   20433443.4104
  20990311.845    -9655705.41349  -7508920.68349  20990312.3414   20990317.2584
  20562536.222   -24986736.41049 -19188978.92249  20562537.0364   20562542.7254
  22947194.530   -12879509.79749  -9545041.10249  22947195.3184   22947200.9284
 96  4 17 18 52 29.9990000  0  6 19 15 27  2  7 26
  22744207.029     9871724.96649   7696332.71549  22744207.6784   22744213.9274
  23341234.102   -12352211.15549  -9266843.90049  23341234.9194   23341240.5684
  20441557.976   -11795757.87849  -9179692.45049  20441559.0474   20441563.6284
  20990600.781    -9654187.92349  -7507738.22849  20990601.0674   20990606.0594
  20553737.715   -25032973.72549 -19225007.98949  20553738.3704   20553744.0564
  22941364.179   -12910149.34349  -9568916.07249  22941364.7104   22941370.7224
 96  4 17 18 52 59.9990000  0  6 19 15 27  2  7 26
  22760481.053     9957249.04949   7762974.80249  22760482.4574   22760488.9924
  23340742.589   -12354795.17949  -9268857.42749  23340743.4924   23340749.2534
  20449767.725   -11752615.93049  -9146075.37149  20449768.5124   20449773.2284
  20990919.807    -9652511.91649  -7506432.25249  20990920.0124   20990925.2764
  20545021.076   -25078778.38949 -19260699.92249  20545022.1564   20545027.7604
  22935630.512   -12940279.67549  -9592394.25549  22935631.3474   22935637.1454
 96  4 17 18 53 29.9990000  0  6 19 15 27  2  7 26
  22776810.662    10043060.94949   7829841.16949  22776811.0404   22776818.4234
  23340358.135   -12356809.34149  -9270426.91149  23340359.4024   23340366.5944
  20458068.896   -11708992.67249  -9112083.24949  20458069.6204   20458074.6634
  20991269.287    -9650671.84549  -7504998.43649  20991270.1164   20991275.3774
  20536389.005   -25124139.94249 -19296046.57649  20536390.1204   20536395.8594
  22929995.884   -12969886.98849  -9615464.89549  22929997.4034   22930002.6184
 96  4 17 18 53 59.9990000  0  6 19 15 27  2  7 26
  22793195.736    10129166.06749   7896936.01049  22793196.4994   22793203.6954
  23340085.428   -12358250.80049  -9271550.13149  23340085.3724   23340092.5574
  20466463.693   -11664877.29249  -9077707.64749  20466464.4744   20466469.6294
  20991649.838    -9648674.28749  -7503441.90449  20991650.1424   20991655.4794
  20527845.493   -25169037.64549 -19331031.78649  20527846.5154   20527852.3534
  22924461.513   -12998971.74449  -9638128.34349  22924462.6104   22924468.5184
 96  4 17 18 54 29.9990000  0  6 19 15 27  2  7 26
  22809632.308    10215539.07349   7964239.60449  22809633.6124   22809639.2624
  23339913.653   -12359144.84149  -9272246.79249  23339915.2754   23339922.2484
  20474947.262   -11620296.71149  -9042969.55149  20474947.9504   20474953.0734
  20992051.998    -9646559.67849  -7501794.15749  20992052.4344   20992057.8354
  20519387.421   -25213485.50549 -19365666.47549  20519388.2524   20519393.9374
  22919019.084   -13027570.82049  -9660413.35049  22919020.3364   22919025.6294
 96  4 17 18 54 59.9990000  0  6 19 15 27  2  7 26
  22826122.949    10302196.14449   8031764.54249  22826123.8344   22826130.0714
  23339855.293   -12359457.70349  -9272490.58649  23339855.4264   23339862.4944
  20483524.273   -11575220.30849  -9007845.09549  20483525.6054   20483530.6384
  20992483.530    -9644293.21549  -7500028.08449  20992483.9924   20992489.2034
  20511022.327   -25257444.42249 -19399920.16649  20511023.2874   20511028.8214
  22913676.563   -13055646.45749  -9682290.47149  22913677.4994   22913683.1574
 96  4 17 18 55 29.9990000  0  6 19 15 27  2  7 26
  22842657.866    10389089.95949   8099473.96149  22842658.8574   22842666.1094
  23339899.569   -12359222.73549  -9272307.49349  23339900.6034   23339906.3454
  20492190.527   -11529679.34149  -8972358.63949  20492191.5004   20492196.9284
  20992937.060    -9641906.35049  -7498168.19249  20992938.0594   20992943.3834
  20502744.896   -25300940.34249 -19433813.08049  20502746.1464   20502752.0534
  22908429.309   -13083222.42749  -9703778.24649  22908430.3444   22908435.0974
 96  4 17 18 55 59.9990000  0  6 19 15 27  2  7 26
  22859241.003    10476234.46749   8167378.71649  22859242.0914   22859248.3784
  23340052.744   -12358415.61149  -9271678.56649  23340053.6884   23340060.5874
  20500948.696   -11483654.59349  -8936495.21549  20500949.6414   20500955.3664
  20993419.117    -9639374.05949  -7496194.98249  20993419.9234   20993425.2384
  20494559.108   -25343958.07949 -19467333.38549  20494560.0234   20494565.9114
  22903279.451   -13110283.29649  -9724864.64949  22903280.8964   22903286.0724
 96  4 17 18 56 29.9990000  0  6 19 15 27  2  7 26
  22875867.639    10563608.37249   8235462.22549  22875868.9834   22875875.1564
  23340314.812   -12357041.77949  -9270608.05249  23340315.7454   23340321.9444
  20509797.300   -11437156.63849  -8900263.05749  20509797.7584   20509803.3994
  20993930.690    -9636687.11249  -7494101.25849  20993931.3454   20993936.5984
  20486459.785   -25386519.88349 -19500498.41849  20486461.0284   20486466.5994
  22898226.527   -13136837.10149  -9745555.93449  22898227.6284   22898232.9954
 96  4 17 18 56 59.9990000  0  6 19 15 27  2  7 26
  22892539.848    10651218.34649   8303729.67949  22892540.8414   22892546.7654
  23340685.945   -12355085.30349  -9269083.51849  23340687.4604   23340694.0894
  20518738.453   -11390168.37049  -8863648.83949  20518739.5924   20518745.0764
  20994477.191    -9633814.80949  -7491863.10349  20994477.6444   20994483.0194
  20478447.497   -25428623.62749 -19533306.51949  20478448.6184   20478454.5274
  22893275.994   -13162853.98749  -9765828.84149  22893276.7454   22893282.4664
 96  4 17 18 57 29.9990000  0  6 19 15 27  2  7 26
  22909253.406    10739050.18749   8372170.02149  22909254.8274   22909260.3714
  23341166.973   -12352565.13649  -9267119.75749  23341167.6354   23341173.7954
  20527769.087   -11342713.21449  -8826670.80949  20527770.2544   20527775.4074
  20995055.582    -9630774.11449  -7489493.73249  20995056.5644   20995061.4934
  20470518.410   -25470291.36549 -19565774.87349  20470519.6254   20470525.6304
  22888425.567   -13188343.72949  -9785690.98749  22888426.8394   22888431.6834
 96  4 17 18 57 59.9990000  0  6 19 15 27  2  7 26
  22926010.865    10827110.63249   8440788.48449  22926011.3954   22926017.8914
  23341754.106   -12349480.24949  -9264715.95149  23341754.3384   23341760.7524
  20536888.835   -11294791.78249  -8789329.45049  20536889.5394   20536894.6264
  20995666.117    -9627568.47649  -7486995.83249  20995666.4244   20995671.6924
  20462674.753   -25511511.43449 -19597894.39549  20462675.7974   20462681.3794
  22883676.834   -13213297.55849  -9805135.53149  22883678.3674   22883683.2704
 96  4 17 18 58 29.9990000  0  6 19 15 27  2  7 26
  22942813.358    10915407.82949   8509591.43749  22942814.6094   22942821.2984
  23342447.411   -12345833.48149  -9261874.30849  23342448.5394   23342454.0054
  20546096.761   -11246402.05449  -8751623.18549  20546097.7284   20546102.7674
  20996307.572    -9624195.99849  -7484367.93349  20996308.3614   20996313.6864
  20454916.552   -25552278.60849 -19629661.01249  20454917.9604   20454923.4634
  22879031.079   -13237709.36349  -9824157.73249  22879032.0614   22879037.6034
 96  4 17 18 58 59.9990000  0  6 19 15 27  2  7 26
  22959666.835    11003974.47349   8578604.34649  22959668.1514   22959674.6684
  23343250.526   -12341612.20449  -9258584.99949  23343252.0274   23343258.2094
  20555396.129   -11197533.57949  -8713543.87349  20555397.2124   20555402.2134
  20996979.999    -9620663.26849  -7481615.15849  20996980.3974   20996985.9524
  20447248.716   -25592574.27149 -19661060.21849  20447249.8634   20447255.2494
  22874490.596   -13261568.64949  -9842749.39049  22874492.7364   22874497.1204
 96  4 17 18 59 29.9990000  0  6 19 15 27  2  7 26
  22976572.653    11092813.42949   8647829.44449  22976573.5754   22976579.9884
  23344161.683   -12336829.98449  -9254858.58449  23344162.6924   23344167.3594
  20564783.016   -11148206.60949  -8675107.29849  20564784.1574   20564788.7984
  20997677.722    -9616997.74549  -7478758.90949  20997678.0974   20997683.6224
  20439670.336   -25632399.58249 -19692092.91549  20439671.4524   20439676.9234
  22870050.389   -13284906.64649  -9860934.84849  22870051.3794   22870056.3234
 96  4 17 18 59 59.9990000  0  6 19 15 27  2  7 26
  22993528.114    11181915.97649   8717259.93249  22993528.8404   22993535.6364
  23345175.965   -12331498.06049  -9250703.84049  23345176.8914   23345182.1734
  20574257.158   -11098420.23649  -8636312.75049  20574258.3884   20574262.8044
  20998398.309    -9613210.62349  -7475807.90849  20998398.9414   20998403.8444
  20432180.153   -25671762.54949 -19722765.34549  20432180.8434   20432186.3834
  22865702.100   -13307755.97549  -9878739.52649  22865703.4804   22865708.3024
 96  4 17 19  0 29.9990000  0  6 19 15 27  2  7 26
  23010536.004    11271286.95549   8786899.58749  23010536.2194   23010543.0394
  23346299.797   -12325604.36649  -9246111.34249  23346297.9174   23346303.3314
  20583820.015   -11048170.40049  -8597157.05649  20583820.3894   20583825.0194
  20999143.973    -9609294.33149  -7472756.25749  20999144.1634   20999149.1684
  20424777.429   -25710663.30449 -19753077.60949  20424778.3024   20424783.7124
  22861446.717   -13330120.54249  -9896166.45749  22861447.6544   22861452.3474
 96  4 17 19  0 59.9990000  0  6 19 15 27  2  7 26
  23027592.294    11360919.39149   8856742.96749  23027592.1904   23027599.2244
  23347529.729   -12319135.30449  -9241070.50549  23347529.1454   23347535.8954
  20593470.499   -10997455.98049  -8557639.35449  20593471.0054   20593475.4614
  20999914.690    -9605243.77449  -7469599.98649  20999915.0044   20999920.0084
  20417464.544   -25749093.68749 -19783023.34849  20417465.2044   20417470.7754
  22857285.812   -13351988.20649  -9913206.20049  22857285.9964   22857291.2174
 96  4 17 19  1 29.9990000  0  6 19 15 27  2  7 26
  23044695.031    11450791.14749   8926772.84349  23044695.3124   23044701.1994
  23348869.564   -12312086.74749  -9235578.12249  23348870.5804   23348875.5004
  20603210.949   -10946269.12149  -8517753.51949  20603211.5394   20603216.1834
  21000714.123    -9601043.38749  -7466326.96549  21000714.0674   21000719.0034
  20410243.940   -25787040.35449 -19812592.16649  20410244.3284   20410249.7434
  22853220.585   -13373349.80849  -9929851.60249  22853221.1144   22853226.5354
 96  4 17 19  1 59.9990000  0  6 19 15 27  2  7 26
  23061833.686    11540858.04349   8996954.77149  23061834.3334   23061840.3234
  23350317.272   -12304478.25949  -9229649.41949  23350318.0494   23350324.3904
  20613039.628   -10894617.75749  -8477505.72849  20613040.3264   20613045.1144
  21001540.634    -9596700.53749  -7462942.93049  21001540.4294   21001545.4124
  20403109.543   -25824531.76649 -19841806.24249  20403109.8984   20403115.3724
  22849251.403   -13394206.55949  -9946103.61549  22849251.6544   22849257.4784
 96  4 17 19  2 29.9990000  0  6 19 15 27  2  7 26
  23079010.475    11631123.14949   9067291.14149  23079011.0904   23079017.5774
  23351875.143   -12296295.96749  -9223273.59149  23351875.4474   23351880.9544
  20622955.888   -10842507.95649  -8436900.71349  20622956.4724   20622961.5734
  21002396.804    -9592201.72849  -7459437.37149  21002396.8784   21002401.6914
  20396062.629   -25861563.05249 -19870661.77949  20396063.3044   20396068.8504
  22845383.852   -13414530.16249  -9961940.18649  22845385.2524   22845389.8114
 96  4 17 19  2 59.9990000  0  6 19 15 27  2  7 26
  23096223.398    11721575.61549   9137773.50949  23096223.7894   23096229.2974
  23353540.201   -12287547.54449  -9216456.62849  23353539.1254   23353546.1304
  20632959.240   -10789940.10549  -8395938.78549  20632959.4844   20632964.6694
  21003283.121    -9587545.83049  -7455809.40549  21003282.8164   21003287.8584
  20389101.943   -25898142.88949 -19899165.54149  20389102.6314   20389107.7934
  22841615.634   -13434333.31249  -9977371.20849  22841616.3904   22841621.4484
 96  4 17 19  3 29.9990000  0  6 19 15 27  2  7 26
  23113472.708    11812220.83249   9208406.07349  23113473.5064   23113479.5274
  23355313.075   -12278232.08149  -9209197.81549  23355311.8594   23355318.0834
  20643052.344   -10736901.50149  -8354610.02049  20643052.7364   20643057.6704
  21004200.352    -9582725.05149  -7452052.96149  21004200.3294   21004204.9744
  20382228.292   -25934265.15949 -19927312.75549  20382228.6624   20382233.8324
  22837946.651   -13453616.11549  -9992396.77149  22837947.5674   22837952.2934
 96  4 17 19  3 59.9990000  0  6 19 15 27  2  7 26
  23130759.423    11903061.54649   9279190.97049  23130759.4194   23130765.8194
  23357191.437   -12268361.25849  -9201506.25149  23357190.5384   23357196.9444
  20653232.777   -10683402.84749  -8312922.77449  20653233.3714   20653238.1554
  21005145.751    -9577756.80649  -7448181.61249  21005145.6034   21005150.5254
  20375436.526   -25969956.99049 -19955124.56749  20375436.6074   20375442.1374
  22834374.361   -13472388.28749 -10007024.43749  22834375.0864   22834380.0224
 96  4 17 19  4 29.9990000  0  6 19 15 27  2  7 26
  23148088.305    11994124.93949   9350149.38449  23148088.1504   23148094.4244
  23359176.792   -12257920.29849  -9193370.43549  23359176.7264   23359183.6464
  20663503.311   -10629431.87749  -8270867.49349  20663503.6404   20663508.6894
  21006119.777    -9572639.19449  -7444193.86849  21006119.5724   21006124.3094
  20368730.028   -26005199.16649 -19982585.99349  20368730.3844   20368735.5604
  22830901.733   -13490637.11149 -10021244.29349  22830901.6684   22830907.5374
 96  4 17 19  4 59.9990000  0  6 19 15 27  2  7 26
  23165458.000    12085404.05849   9421275.90249  23165458.8024   23165463.7394
  23361270.874   -12246916.06849  -9184795.70749  23361271.1964   23361277.4984
  20673866.298   -10574975.27349  -8228433.80149  20673866.4374   20673871.5374
  21007120.906    -9567378.27549  -7440094.45949  21007120.5234   21007125.6964
  20362110.137   -26039988.09649 -20009694.24749  20362110.1304   20362115.2554
  22827529.971   -13508355.40149 -10035050.75649  22827530.7024   22827535.2334
 96  4 17 19  5 29.9990000  0  6 19 15 27  2  7 26
  23182870.855    12176906.97049   9492576.79849  23182871.1764   23182876.2024
  23363472.994   -12235348.93049  -9175782.35049  23363472.2534   23363478.7654
  20684321.098   -10520035.70549  -8185623.77049  20684321.2924   20684326.5014
  21008150.275    -9561968.05949  -7435878.70949  21008150.2644   21008155.3124
  20355576.634   -26074320.69549 -20036446.91349  20355577.1324   20355582.1804
  22824263.420   -13525524.69049 -10048429.41049  22824263.6004   22824268.1014
 96  4 17 19  5 59.9990000  0  6 19 15 27  2  7 26
  23200329.054    12268651.06949   9564065.64249  23200329.8684   23200334.9964
  23365782.810   -12223210.96149  -9166324.20549  23365782.1564   23365788.1894
  20694866.078   -10464620.78749  -8142443.33249  20694866.1044   20694871.5394
  21009210.094    -9556398.51849  -7431538.81249  21009209.7024   21009215.1984
  20349131.222   -26108192.48749 -20062840.51049  20349131.3364   20349136.6234
  22821100.301   -13542143.66549 -10061379.25749  22821100.9044   22821105.8554
 96  4 17 19  6 29.9990000  0  6 19 15 27  2  7 26
  23217828.801    12360614.35749   9635725.28049  23217829.1094   23217835.5434
  23368197.809   -12210516.84849  -9156432.68049  23368198.3534   23368204.1364
  20705496.189   -10408757.97849  -8098913.89049  20705496.7774   20705501.6274
  21010298.951    -9550677.64749  -7427081.00049  21010298.5704   21010303.5614
  20342772.185   -26141607.45449 -20088878.14149  20342772.5834   20342777.6064
  22818037.002   -13558242.10149 -10073923.49449  22818037.5904   22818042.4004
 96  4 17 19  6 59.9990000  0  6 19 15 27  2  7 26
  23235374.411    12452815.99349   9707570.64649  23235375.0464   23235381.1914
  23370724.243   -12197250.14149  -9146094.99549  23370723.0644   23370728.5664
  20716214.328   -10352435.29849  -8055026.11549  20716214.4354   20716219.6114
  21011421.554    -9544776.98549  -7422483.09349  21011421.3654   21011426.5854
  20336503.218   -26174550.47049 -20114548.01049  20336503.5444   20336508.8094
  22815071.876   -13573822.51049 -10086064.07349  22815073.2764   22815077.4264
 96  4 17 19  7 29.9990000  0  6 19 15 27  2  7 26
  23252968.309    12545272.54249   9779614.63149  23252968.5914   23252973.9964
  23373357.054   -12183407.33949  -9135308.39349  23373357.6984   23373363.5024
  20727018.220   -10295660.99149  -8010786.41249  20727018.3994   20727023.2124
  21012577.690    -9538702.11149  -7417749.43049  21012577.7404   21012582.8044
  20330323.704   -26207024.13449 -20139852.15349  20330324.0834   20330329.2794
  22812200.177   -13588915.50049 -10097824.84649  22812200.4844   22812204.9624
 96  4 17 19  7 59.9990000  0  6 19 15 27  2  7 26
  23270609.340    12637972.51549   9851848.31649  23270608.8194   23270614.2004
  23376100.085   -12168994.00049  -9124077.22949  23376100.1024   23376105.4234
  20737906.862   -10238441.30849  -7966199.67049  20737906.9044   20737912.1064
  21013764.478    -9532466.43549  -7412890.47149  21013764.0154   21013769.3564
  20324232.601   -26239034.09249 -20164794.97049  20324232.6404   20324238.1374
  22809418.262   -13603535.59349 -10109217.12849  22809418.2734   22809423.0964
 96  4 17 19  8 29.9990000  0  6 19 15 27  2  7 26
  23288289.240    12730883.88649   9924246.72949  23288290.3644   23288295.2664
  23378948.051   -12154030.24649  -9112417.15949  23378947.8104   23378953.1504
  20748878.539   -10180783.99549  -7921271.93049  20748878.8494   20748883.7214
  21014975.542    -9526101.01349  -7407930.41249  21014975.7474   21014980.8264
  20318226.432   -26270596.12749 -20189388.75949  20318226.8384   20318231.5394
  22806725.996   -13617681.72149 -10120240.08849  22806726.9104   22806730.9904
 96  4 17 19  8 59.9990000  0  6 19 15 27  2  7 26
  23306009.892    12824004.06649   9996807.82849  23306009.9854   23306015.9804
  23381900.669   -12138514.56949  -9100327.01349  23381900.7644   23381905.5424
  20759934.522   -10122684.33749  -7875999.49749  20759934.5834   20759939.5514
  21016209.655    -9519616.09649  -7402877.23249  21016209.3684   21016214.6544
  20312305.398   -26301711.50449 -20213634.49649  20312305.6494   20312310.8764
  22804126.927   -13631341.00749 -10130883.68449  22804127.5614   22804131.5524
 96  4 17 19  9 29.9990000  0  6 19 15 27  2  7 26
  23323770.392    12917335.18249  10069533.30349  23323769.7724   23323775.8894
  23384961.391   -12122431.87449  -9087795.04349  23384960.9564   23384966.4794
  20771076.535   -10064132.23849  -7830374.51249  20771076.5454   20771081.9134
  21017469.418    -9512996.74149  -7397719.30449  21017469.0524   21017474.2254
  20306472.617   -26332362.85049 -20237518.65649  20306473.0574   20306477.9994
  22801625.907   -13644484.05849 -10141125.02949  22801626.4744   22801631.2834
 96  4 17 19  9 59.9990000  0  6 19 15 27  2  7 26
  23341566.780    13010860.28249  10142409.92449  23341567.4984   23341572.8674
  23388128.655   -12105781.77449  -9074820.94549  23388128.9214   23388134.8234
  20782304.306   -10005128.91849  -7784397.92549  20782304.5924   20782309.6834
  21018754.994    -9506241.51649  -7392455.49849  21018754.7564   21018759.7534
  20300729.857   -26362542.21249 -20261035.03349  20300730.0614   20300735.2954
  22799229.249   -13657078.31649 -10150938.74349  22799229.6164   22799234.0284
 96  4 17 19 10 29.9990000  0  6 19 15 27  2  7 26
  23359399.525    13104571.31149  10215431.43949  23359399.5354   23359406.7854
  23391404.834   -12088566.11049  -9061406.14749  23391404.9434   23391410.8254
  20793616.746    -9945681.45549  -7738075.24349  20793617.0894   20793622.1514
  21020062.929    -9499366.90849  -7387098.66549  21020062.5914   21020067.9294
  20295074.595   -26392260.25949 -20284191.94449  20295075.0204   20295080.1994
  22796937.044   -13669122.76849 -10160324.02249  22796937.6784   22796942.6694
 96  4 17 19 10 59.9990000  0  6 19 15 27  2  7 26
  23377268.166    13198469.49549  10288598.77549  23377268.1754   23377273.6424
  23394788.091   -12070790.18449  -9047554.78149  23394786.6484   23394794.0294
  20805013.387    -9885791.18649  -7691407.51449  20805013.1244   20805018.6704
  21021393.726    -9492374.47649  -7381650.01949  21021393.4564   21021398.5914
  20289505.270   -26421528.44949 -20306998.31249  20289505.4904   20289510.4404
  22794745.190   -13680641.09349 -10169299.34349  22794745.8714   22794750.6524
 96  4 17 19 11 29.9990000  0  6 19 15 27  2  7 26
  23395172.394    13292555.47849  10361912.43949  23395172.4984   23395178.5254
  23398276.026   -12052455.30449  -9033267.88649  23398275.6624   23398282.6814
  20816496.560    -9825447.44449  -7644386.44249  20816496.5664   20816501.5974
  21022747.201    -9485261.31849  -7376107.30649  21022747.1094   21022752.2254
  20284021.739   -26450344.38349 -20329452.28049  20284021.9644   20284027.3624
  22792655.443   -13691623.58249 -10177857.13249  22792656.0534   22792660.4864
 96  4 17 19 11 59.9990000  0  6 19 15 27  2  7 26
  23413114.591    13386843.41649  10435383.49149  23413115.1064   23413120.8994
  23401876.197   -12033542.15849  -9018530.37749  23401875.3704   23401881.0594
  20828068.469    -9764634.99949  -7597000.13849  20828068.8284   20828074.0114
  21024125.896    -9478016.05849  -7370461.65749  21024125.7424   21024130.9244
  20278627.028   -26478694.42349 -20351543.21449  20278627.2724   20278632.3174
  22790672.408   -13702043.87249 -10185976.84349  22790672.8794   22790677.8784
 96  4 17 19 12 29.9990000  0  6 19 15 27  2  7 26
  23431093.494    13481322.44649  10509003.42649  23431093.7944   23431100.6964
  23405582.502   -12014058.39149  -9003348.23849  23405583.3844   23405588.8924
  20839727.827    -9703363.12849  -7549255.83949  20839728.3504   20839733.5924
  21025530.222    -9470636.01549  -7364710.98049  21025530.0724   21025535.0644
  20273317.217   -26506595.77049 -20373284.51449  20273317.7674   20273322.7094
  22788790.521   -13711931.22449 -10193681.27049  22788790.9414   22788796.0734
 96  4 17 19 12 59.9990000  0  6 19 15 27  2  7 26
  23449103.315    13575968.92049  10582753.85249  23449104.2584   23449110.4514
  23409394.076   -11994026.80049  -8987739.22949  23409394.9584   23409400.7024
  20851470.575    -9641656.72449  -7501172.95449  20851471.0634   20851476.5634
  21026960.895    -9463116.31849  -7358851.48749  21026960.9844   21026965.9444
  20268091.322   -26534057.02449 -20394682.88549  20268091.9644   20268097.0884
  22787005.550   -13721311.04849 -10200990.22649  22787006.4734   22787011.1914
 96  4 17 19 13 29.9990000  0  6 19 15 27  2  7 26
  23467146.696    13670786.29249  10656637.43249  23467147.4124   23467153.9384
  23413312.566   -11973435.42249  -8971694.01249  23413313.5984   23413319.4464
  20863294.218    -9579522.59249  -7452756.76249  20863294.6064   20863300.1824
  21028423.365    -9455432.45249  -7352864.06149  21028423.4024   21028428.3694
  20262952.560   -26561061.54649 -20415725.35949  20262953.2864   20262958.3334
  22785320.839   -13730166.70049 -10207890.74149  22785320.8054   22785325.7944
 96  4 17 19 13 59.9990000  0  7 19  4 15 27  2  7 26
  23485225.480    13765785.89649  10730663.01649  23485225.0044   23485232.0484
  24521349.529    -3653964.99659  -2583402.19259  24521350.5794   24521358.8584
  23417339.885   -11952277.88149  -8955207.62849  23417339.9544   23417345.0474
  20875197.920    -9516969.59849  -7404014.20449  20875198.6564   20875203.7034
  21029920.106    -9447567.86049  -7346735.81949  21029919.6894   21029924.6234
  20257900.103   -26587613.45249 -20436415.15049  20257900.4934   20257905.4124
  22783733.231   -13738506.80749 -10214389.52349  22783733.6894   22783739.3874
 96  4 17 19 14 29.9990000  0  7 19  4 15 27  2  7 26
  23503341.931    13860990.97549  10804848.72749  23503343.1374   23503348.7884
  24501395.202    -3758830.73649  -2665115.67549  24501395.3394   24501403.8854
  23421474.741   -11930552.86749  -8938279.05749  23421473.5334   23421479.1504
  20887184.339    -9453982.44849  -7354933.34049  20887184.7244   20887189.8474
  21031452.637    -9439514.31549  -7340460.33649  21031452.5244   21031457.1564
  20252935.371   -26613703.88449 -20456745.34649  20252935.5574   20252940.5674
  22782242.026   -13746347.67149 -10220499.29749  22782242.2854   22782247.2184
 96  4 17 19 14 59.9990000  0  7 19  4 15 27  2  7 26
  23521497.555    13956398.93849  10879192.52349  23521498.2864   23521504.0014
  24481422.004    -3863785.94549  -2746898.85549  24481423.0854   24481430.5254
  23425711.750   -11908278.39049  -8920922.35149  23425711.8854   23425717.1364
  20899251.924    -9390568.40649  -7305519.83349  20899252.1434   20899257.2644
  21033016.609    -9431295.98749  -7334056.45349  21033016.5694   21033021.4034
  20248055.069   -26639348.70449 -20476728.31349  20248055.7034   20248060.6384
  22780842.094   -13753701.65449 -10226229.67949  22780842.1674   22780847.5254
 96  4 17 19 15 29.9990000  0  7 19  4 15 27  2  7 26
  23539695.959    14052034.43349  10953713.62949  23539696.8024   23539702.5564
  24461435.431    -3968819.81149  -2828743.31549  24461435.8314   24461443.4064
  23430058.824   -11885437.59949  -8903124.34049  23430058.3064   23430064.2534
  20911404.445    -9326707.27949  -7255757.93949  20911404.6014   20911409.7104
  21034610.777    -9422919.00049  -7327528.93849  21034610.6124   21034615.5084
  20243262.131   -26664536.90249 -20496355.46849  20243262.3644   20243267.3874
  22779538.227   -13760554.82149 -10231569.81549  22779538.6734   22779543.2714
 96  4 17 19 15 59.9990000  0  7 19  4 15 27  2  7 26
  23557936.730    14147884.90049  11028402.21249  23557936.7994   23557942.3464
  24441430.670    -4073942.63849  -2910657.09949  24441431.5534   24441439.9414
  23434510.124   -11862042.69349  -8884894.55449  23434511.2944   23434516.3664
  20923640.614    -9262404.77249  -7205652.11649  20923640.9644   20923646.0854
  21036229.461    -9414411.54149  -7320899.75949  21036229.6054   21036234.4354
  20238553.459   -26689281.87649 -20515637.26149  20238553.4694   20238558.5674
  22778326.517   -13766921.57549 -10236530.93349  22778326.9544   22778332.0014
 96  4 17 19 16 29.9990000  0  7 19  4 15 27  2  7 26
  23576214.826    14243939.29949  11103249.73349  23576214.9204   23576222.4244
  24421410.061    -4179149.95149  -2992636.73349  24421411.5144   24421418.6324
  23439068.719   -11838089.68049  -8866229.88649  23439068.7154   23439075.0594
  20935961.668    -9197658.17849  -7155200.24949  20935961.9354   20935966.8424
  21037872.102    -9405780.12549  -7314173.98849  21037872.0814   21037876.9664
  20233931.248   -26713571.04649 -20534563.87749  20233931.5764   20233936.5404
  22777209.152   -13772797.44549 -10241109.53449  22777209.1134   22777214.0584
 96  4 17 19 16 59.9990000  0  7 19  4 15 27  2  7 26
  23594526.868    14340171.77549  11178235.99149  23594526.9884   23594533.5654
  24401373.360    -4284451.44049  -3074689.75749  24401372.9604   24401380.5794
  23443732.649   -11813585.63049  -8847135.83549  23443731.5514   23443738.0144
  20948365.384    -9132478.76649  -7104411.12649  20948365.1414   20948370.2234
  21039537.099    -9397033.36749  -7307358.33749  21039536.7014   21039541.3784
  20229395.379   -26737410.58149 -20553140.12649  20229395.0374   20229400.0974
  22776184.703   -13778179.36249 -10245303.24149  22776185.1434   22776189.4324
 96  4 17 19 17 29.9990000  0  7 19  4 15 27  2  7 26
  23612871.641    14436570.43749  11253351.77949  23612871.2784   23612878.5174
  24381317.236    -4389843.56549  -3156813.39949  24381317.6884   24381324.1754
  23448499.646   -11788531.26749  -8827612.98049  23448499.4114   23448505.7904
  20960848.937    -9066875.99049  -7053292.10749  20960848.8424   20960853.7714
  21041224.080    -9388167.56949  -7300449.92949  21041223.7364   21041228.7394
  20224944.898   -26760796.12449 -20571362.62049  20224944.8774   20224949.9084
  22775253.763   -13783072.03449 -10249115.71849  22775253.7594   22775258.7654
 96  4 17 19 17 59.9990000  0  7 19  4 15 27  2  7 26
  23631248.069    14533134.44849  11328596.41449  23631247.0494   23631252.9804
  24361246.076    -4495317.53849  -3239000.82249  24361246.0174   24361253.1424
  23453373.198   -11762928.00049  -8807662.39149  23453371.5504   23453378.4204
  20973414.215    -9000844.34049  -7001838.90549  20973414.1284   20973419.1224
  21042936.476    -9379168.64049  -7293437.78549  21042936.2074   21042941.1004
  20220580.243   -26783733.35749 -20589235.77749  20220580.2274   20220585.0144
  22774414.665   -13787480.40949 -10252550.82549  22774415.0964   22774420.3954
 96  4 17 19 18 29.9990000  0  7 19  4 15 27  2  7 26
  23649655.381    14629865.04549  11403970.84049  23649655.4264   23649660.3114
  24341157.859    -4600882.74249  -3321259.34749  24341158.3864   24341165.0864
  23458346.454   -11736787.02049  -8787292.81249  23458346.2854   23458352.9114
  20986060.498    -8934387.93149  -6950054.71749  20986059.9364   20986065.5464
  21044675.537    -9370030.96849  -7286317.52749  21044674.8194   21044679.8764
  20216298.859   -26806233.99449 -20606768.73449  20216298.5514   20216303.4204
  22773666.759   -13791411.61149 -10255614.10449  22773667.1974   22773671.9364
 96  4 17 19 18 59.9990000  0  7 19  4 15 27  2  7 26
  23668097.871    14726793.82749  11479499.69249  23668099.6744   23668106.4664
  24321057.111    -4706509.51649  -3403565.82249  24321057.5234   24321064.2974
  23463428.209   -11710085.30349  -8766486.28249  23463427.3094   23463434.1474
  20998793.036    -8867476.64049  -6897916.08249  20998792.8384   20998798.1254
  21046445.944    -9360725.36149  -7279066.40749  21046445.7384   21046450.8344
  20212103.318   -26828279.71749 -20623947.20949  20212103.4884   20212108.1064
  22773014.954   -13794836.07549 -10258282.52149  22773015.3634   22773020.3154
 96  4 17 19 19 29.9990000  0  7 19  4 15 27  2  7 26
  23686582.649    14823923.43949  11555185.03249  23686581.8574   23686589.1704
  24300949.881    -4812175.19749  -3485902.65149  24300950.5414   24300956.5614
  23468614.369   -11682824.18649  -8745243.85349  23468614.8044   23468621.5534
  21011611.441    -8800111.29849  -6845423.64649  21011612.2144   21011617.5934
  21048247.928    -9351253.75949  -7271685.94249  21048248.1354   21048253.0114
  20207991.425   -26849883.90549 -20640781.63049  20207991.8824   20207997.0854
  22772460.734   -13797744.59149 -10260548.90549  22772461.5474   22772466.5754
 96  4 17 19 19 59.9990000  0  7 19  4 15 27  2  7 26
  23705099.968    14921236.49249  11631013.32249  23705101.0244   23705106.6194
  24280833.639    -4917882.12549  -3568271.59049  24280834.9974   24280841.4814
  23473908.264   -11655010.47849  -8723570.83149  23473907.4654   23473914.0244
  21024515.342    -8732300.34649  -6792583.97449  21024515.9524   21024521.3534
  21050082.238    -9341612.63849  -7264173.38349  21050082.7254   21050087.7634
  20203962.096   -26871058.57949 -20657281.36849  20203962.7574   20203967.6114
  22772007.536   -13800123.02549 -10262402.23149  22772009.0284   22772014.1394
 96  4 17 19 20 29.9990000  0  7 19  4 15 27  2  7 26
  23723652.648    15018728.47149  11706981.01149  23723653.0634   23723659.0804
  24260714.199    -5023610.00149  -3650656.86349  24260715.6024   24260721.1534
  23479308.811   -11626625.19549  -8701452.43349  23479308.8124   23479315.6934
  21037506.416    -8664033.20149  -6739388.82649  21037507.2054   21037512.0214
  21051952.633    -9331785.70749  -7256516.03549  21051952.6064   21051957.7364
  20200018.620   -26891782.28149 -20673429.70149  20200019.0344   20200024.1264
  22771664.000   -13801931.39849 -10263811.35449  22771664.9964   22771670.2514
 96  4 17 19 20 59.9990000  0  7 19  4 15 27  2  7 26
  23742233.939    15116374.87849  11783069.04149  23742233.8234   23742241.5604
  24240589.585    -5129363.33349  -3733061.98749  24240590.9174   24240596.0064
  23484817.312   -11597675.99949  -8678894.62049  23484817.7934   23484824.9114
  21050582.317    -8595315.82249  -6685842.85549  21050583.3254   21050588.7764
  21053855.321    -9321782.09249  -7248721.01649  21053855.9804   21053861.0854
  20196159.437   -26912057.67449 -20689228.70349  20196160.3494   20196165.5304
  22771427.632   -13803169.87149 -10264776.40749  22771428.9264   22771434.1524
 96  4 17 19 21 29.9990000  0  7 19  4 15 27  2  7 26
  23760845.981    15214182.98949  11859283.08749  23760846.8954   23760853.5094
  24220462.669    -5235128.97449  -3815476.67249  24220464.7544   24220470.0604
  23490435.442   -11568146.06549  -8655884.28849  23490437.2244   23490443.8214
  21063745.746    -8526141.60949  -6631940.90549  21063747.0574   21063752.2464
  21055795.510    -9311584.40649  -7240774.77249  21055796.3994   21055801.4534
  20192390.564   -26931863.63449 -20704661.91349  20192391.4724   20192396.8844
  22771302.719   -13803827.68849 -10265288.99949  22771303.6174   22771309.1344
 96  4 17 19 21 59.9990000  0  7 19  4 15 27  2  7 26
  23779492.028    15312171.58749  11935637.74249  23779493.7584   23779498.8814
  24200334.830    -5340897.52049  -3897893.66049  24200335.6184   24200341.3174
  23496170.298   -11538014.35049  -8632405.03749  23496171.2434   23496176.9844
  21076996.506    -8456509.89749  -6577682.45449  21076997.2474   21077002.8074
  21057777.261    -9301173.06949  -7232662.04449  21057777.6234   21057782.8674
  20188717.690   -26951165.26249 -20719702.13549  20188718.8024   20188723.7184
  22771288.445   -13803900.89449 -10265346.04049  22771290.0414   22771295.7164
 96  4 17 19 22 29.9990000  0  7 19  4 15 27  2  7 26
  23798172.838    15410337.56449  12012130.61749  23798173.8514   23798181.2654
  24180203.917    -5446686.08249  -3980326.22049  24180204.3094   24180213.6634
  23502014.158   -11507308.56349  -8608478.45349  23502014.1654   23502020.9104
  21090328.218    -8386452.74349  -6523092.48849  21090329.3464   21090334.3564
  21059789.899    -9290595.85349  -7224420.06549  21059790.4364   21059795.7194
  20185137.494   -26969979.98049 -20734362.93949  20185138.6294   20185143.3904
  22771376.627   -13803438.03849 -10264985.38449  22771378.2484   22771383.7924
 96  4 17 19 22 59.9990000  0  7 19  4 15 27  2  7 26
  23816892.332    15508701.02149  12088777.37849  23816892.3214   23816898.9904
  24160070.343    -5552502.08949  -4062780.16949  24160069.7874   24160075.1004
  23507965.435   -11476029.48049  -8584105.14849  23507966.7174   23507972.8254
  21103741.565    -8315966.99849  -6468168.56249  21103742.2294   21103747.2654
  21061832.300    -9279866.28749  -7216059.37249  21061832.5954   21061837.2844
  20181650.613   -26988304.41949 -20748641.71349  20181651.2664   20181656.2384
  22771562.422   -13802466.25449 -10264228.15849  22771563.3544   22771568.1664
 96  4 17 19 23 29.9990000  0  7 19  4 15 27  2  7 26
  23835650.698    15607275.53749  12165588.58949  23835650.5744   23835657.2424
  24139927.088    -5658345.95749  -4145255.82249  24139928.2384   24139933.4704
  23514028.489   -11444170.71549  -8559280.15149  23514028.8644   23514035.6814
  21117236.182    -8245052.00449  -6412910.16249  21117236.9064   21117241.8554
  21063903.014    -9268984.04949  -7207579.70949  21063903.2794   21063908.3584
  20178258.014   -27006132.63149 -20762533.81949  20178258.7464   20178263.7094
  22771842.318   -13800993.78149 -10263080.78749  22771842.9824   22771848.4054
 96  4 17 19 23 59.9990000  0  7 19  4 15 27  2  7 26
  23854459.502    15706118.96649  12242609.32749  23854460.0624   23854466.1894
  24119790.672    -5764157.99749  -4227706.66249  24119792.6124   24119800.6664
  23520211.267   -11411680.16249  -8533962.85949  23520211.6694   23520217.1114
  21130825.491    -8173638.04449  -6357262.95549  21130826.5904   21130831.4074
  21066011.367    -9257902.83749  -7198945.00649  21066011.8314   21066017.1294
  20174969.239   -27023415.15549 -20776000.71549  20174970.2374   20174975.1664
  22772229.247   -13798960.08149 -10261496.09149  22772230.2074   22772235.5294
 96  4 17 19 24 29.9990000  0  7 19  4 15 27  2  7 26
  23873310.840    15805183.59449  12319802.44949  23873311.7334   23873318.7134
  24099652.230    -5869988.93749  -4310172.23549  24099653.4944   24099660.1194
  23526505.023   -11378607.80049  -8508192.18849  23526506.0204   23526511.2844
  21144505.527    -8101748.92749  -6301245.48949  21144506.5154   21144511.6374
  21068150.210    -9246664.42349  -7190187.79949  21068150.8164   21068155.6344
  20171774.432   -27040205.05749 -20789083.74049  20171775.1564   20171780.1234
  22772712.665   -13796417.14549 -10259514.58849  22772714.1944   22772719.3344
 96  4 17 19 24 59.9990000  0  8 19  4  9 15 27  2  7 26
  23892195.581    15904420.92949  12397130.14049  23892196.1054   23892203.3944
  24079503.542    -5975870.02749  -4392676.88949  24079504.8104   24079510.7734
  24587391.322     -808007.67459   -367280.97359  24587391.8554   24587398.5264
  23532903.878   -11344980.21949  -8481988.90549  23532905.4764   23532909.9614
  21158272.165    -8029408.23149  -6244876.15349  21158272.7694   21158277.5634
  21070318.489    -9235272.68949  -7181311.12149  21070318.5234   21070323.6654
  20168665.495   -27056542.90549 -20801814.52849  20168666.1714   20168671.2164
  22773290.638   -13793384.45949 -10257151.46649  22773291.5764   22773296.9374
 96  4 17 19 25 29.9990000  0  8 19  4  9 15 27  2  7 26
  23911112.565    16003836.78949  12474596.91349  23911114.2224   23911120.6134
  24059354.492    -6081754.44349  -4475184.12049  24059355.9394   24059362.2154
  24567966.149     -910092.18859   -446827.29649  24567967.3374   24567972.8544
  23539412.650   -11310780.71149  -8455339.93549  23539412.9634   23539418.2334
  21172125.156    -7956609.79249  -6188150.12449  21172125.4834   21172130.6834
  21072522.674    -9223689.10149  -7172284.94449  21072522.8094   21072527.6284
  20165644.337   -27072418.59649 -20814185.19049  20165645.1054   20165649.6094
  22773967.967   -13789824.07049 -10254377.13949  22773968.5944   22773973.7814
 96  4 17 19 25 59.9990000  0  8 19  4  9 15 27  2  7 26
  23930066.943    16103443.11749  12552212.10049  23930067.7044   23930075.6564
  24039209.902    -6187614.82049  -4557672.64049  24039211.0574   24039218.8194
  24548562.017    -1012062.41849   -526284.55849  24548562.1414   24548568.1384
  23546030.882   -11276000.49249  -8428238.46749  23546030.8324   23546037.0494
  21186065.727    -7883349.63949  -6131064.32049  21186066.2914   21186071.7654
  21074766.775    -9211896.86049  -7163096.18449  21074766.7414   21074771.7614
  20162712.700   -27087824.04949 -20826189.42949  20162713.1794   20162718.0314
  22774749.430   -13785720.80949 -10251179.80749  22774749.7164   22774755.0934
 96  4 17 19 26 29.9990000  0  8 19  4  9 15 27  2  7 26
  23949051.756    16203207.79949  12629950.71349  23949052.9244   23949060.9704
  24019066.335    -6293471.52649  -4640158.28849  24019066.6204   24019074.1764
  24529173.836    -1113946.45749   -605674.66549  24529174.0074   24529181.3884
  23552755.354   -11240668.04549  -8400706.69949  23552754.9544   23552761.2994
  21200086.605    -7809671.07549  -6073652.47949  21200087.3504   21200092.2804
  21077047.414    -9199912.82549  -7153757.97549  21077047.1994   21077052.2714
  20159865.909   -27102785.88549 -20837847.99549  20159866.1654   20159871.2404
  22775626.050   -13781110.58349 -10247587.43049  22775627.1354   22775632.5184
 96  4 17 19 26 59.9990000  0  8 19  4  9 15 27  2  7 26
  23968066.144    16303125.62349  12707808.64949  23968067.0384   23968074.3654
  23998925.229    -6399314.47049  -4722633.21849  23998925.5264   23998932.5514
  24509800.588    -1215750.80949   -685002.67349  24509802.0914   24509807.0244
  23559583.565   -11204779.60249  -8372741.67949  23559584.5024   23559589.9164
  21214185.773    -7735579.10349  -6015918.49949  21214186.3014   21214191.4304
  21079363.825    -9187738.80249  -7144271.72149  21079363.8024   21079368.8554
  20157102.824   -27117304.04049 -20849160.83049  20157103.4924   20157108.6444
  22776604.593   -13775971.27849 -10243582.78149  22776604.7134   22776610.2594
 96  4 17 19 27 29.9990000  0  8 19  4  9 15 27  2  7 26
  23987113.379    16403218.73449  12785803.18149  23987113.5234   23987122.3694
  23978788.802    -6505127.42549  -4805084.78249  23978789.9284   23978796.8804
  24490439.659    -1317494.26749   -764283.24049  24490440.0974   24490446.2664
  23566522.116   -11168321.36049  -8344332.68049  23566522.2914   23566528.7694
  21228366.692    -7661057.76049  -5957849.94549  21228367.3084   21228372.7174
  21081716.287    -9175376.27849  -7134638.58149  21081716.3194   21081721.1834
  20154429.199   -27131354.28849 -20860109.07349  20154429.6624   20154434.8304
  22777686.520   -13770288.39149 -10239154.56849  22777686.8174   22777691.2434
 96  4 17 19 27 59.9990000  0  8 19  4  9 15 27  2  7 26
  24006188.560    16503458.35749  12863911.86349  24006188.9324   24006197.1674
  23958650.484    -6610956.08949  -4887548.58549  23958651.5914   23958658.7304
  24471080.866    -1419226.74849   -843555.23049  24471080.7484   24471086.9014
  23573563.015   -11131321.74049  -8315501.81649  23573562.3134   23573568.8074
  21242625.220    -7586129.83049  -5899464.57749  21242625.6764   21242631.0724
  21084097.769    -9162863.28649  -7124888.19849  21084097.4084   21084102.5434
  20151840.328   -27144960.87349 -20870711.59849  20151840.6294   20151845.6714
  22778862.296   -13764105.32149 -10234336.59549  22778863.2004   22778868.3064
 96  4 17 19 28 29.9990000  0  8 19  4  9 15 27  2  7 26
  24025296.489    16603866.12149  12942151.54249  24025296.2954   24025303.5084
  23938515.085    -6716774.63149  -4970004.51949  23938515.1984   23938522.7854
  24451725.290    -1520934.78749   -922808.17649  24451724.9564   24451733.0484
  23580711.724   -11093753.73749  -8286228.04549  23580711.3754   23580718.2724
  21256966.758    -7510764.43449  -5840738.31649  21256967.2544   21256972.3654
  21086511.876    -9150175.39949  -7115001.52749  21086511.8674   21086517.0724
  20149341.298   -27158093.81349 -20880945.05249  20149341.3014   20149346.5394
  22780140.194   -13757390.94649 -10229104.62249  22780140.5034   22780145.6564
 96  4 17 19 28 59.9990000  0  8 19  4  9 15 27  2  7 26
  24044428.361    16704403.49349  13020492.22249  24044429.1074   24044436.8254
  23918369.518    -6822629.28049  -5052488.57549  23918371.5684   23918378.4704
  24432369.634    -1622655.08749  -1002070.71449  24432370.6514   24432375.4664
  23587960.234   -11055658.82349  -8256543.70849  23587960.5674   23587966.9174
  21271383.907    -7435003.12249  -5781703.55249  21271384.2714   21271389.6084
  21088951.635    -9137354.74749  -7105011.41049  21088951.5884   21088956.6784
  20146922.224   -27170808.12049 -20890852.29649  20146922.2314   20146927.0894
  22781511.683   -13750187.44349 -10223491.51149  22781511.3794   22781516.7984
 96  4 17 19 29 29.9990000  0  8 19  4  9 15 27  2  7 26
  24063588.520    16805090.45449  13098949.48049  24063587.6384   24063596.2734
  23898226.288    -6928490.54249  -5134977.78749  23898226.4444   23898234.1474
  24413016.998    -1724353.63149  -1081316.26949  24413017.0614   24413022.6554
  23595314.097   -11017021.42249  -8226436.65449  23595311.9654   23595318.9394
  21285877.391    -7358841.30949  -5722356.71549  21285877.8294   21285882.7554
  21091421.962    -9124374.22849  -7094896.71849  21091421.7264   21091426.6644
  20144585.122   -27183089.55449 -20900422.23449  20144584.9614   20144589.9964
  22782974.759   -13742495.66349 -10217497.92549  22782975.7434   22782980.4894
 96  4 17 19 29 59.9990000  0  8 19  4  9 15 27  2  7 26
  24082773.599    16905921.14449  13177518.72249  24082774.4134   24082784.1984
  23878081.824    -7034345.76649  -5217462.29849  23878082.2174   23878090.3864
  24393675.112    -1825996.32249  -1160518.31249  24393675.5644   24393681.1044
  23602768.949   -10977839.98549  -8195905.68649  23602769.7444   23602775.0654
  21300446.972    -7282277.45349  -5662696.59449  21300447.2244   21300452.3674
  21093924.386    -9111223.37649  -7084649.29949  21093924.1294   21093929.1684
  20142330.063   -27194939.14449 -20909655.67749  20142330.2694   20142335.1264
  22784531.492   -13734318.23749 -10211125.91349  22784531.7554   22784537.0154
 96  4 17 19 30 29.9990000  0  8 19  4  9 15 27  2  7 26
  24101989.038    17006885.28749  13256191.97449  24101988.4584   24101997.2034
  23857939.100    -7140200.30849  -5299946.25949  23857938.8174   23857946.9744
  24374344.750    -1927577.56149  -1239672.46249  24374344.4854   24374350.5114
  23610325.548   -10938128.59149  -8164961.75349  23610325.5804   23610331.7764
  21315090.219    -7205326.99949  -5602735.22649  21315090.2644   21315095.7814
  21096457.770    -9097911.04849  -7074276.06049  21096457.5394   21096462.6424
  20140154.435   -27206372.83549 -20918565.03449  20140154.5764   20140159.4124
  22786177.363   -13725667.96249 -10204385.45349  22786177.7934   22786182.5884
 96  4 17 19 30 59.9990000  0  8 19  4  9 15 27  2  7 26
  24121226.815    17107980.81749  13334967.60749  24121226.4574   24121233.7924
  23837797.063    -7246046.21749  -5382423.51549  23837797.4994   23837803.4414
  24355027.490    -2029088.61749  -1318771.93649  24355027.1794   24355033.6704
  23617984.281   -10897884.70349  -8133602.89349  23617983.5204   23617990.9894
  21329806.807    -7127993.91149  -5542475.70149  21329806.6734   21329811.3174
  21099023.235    -9084431.07749  -7063772.18649  21099022.7464   21099027.8544
  20138058.520   -27217388.24849 -20927148.46349  20138058.4614   20138063.0164
  22787912.088   -13716552.01949 -10197282.13949  22787912.6764   22787916.9934
 96  4 17 19 31 29.9990000  0  8 19  4  9 15 27  2  7 26
  24140490.261    17209210.02049  13413847.33249  24140491.5794   24140496.8334
  23817661.509    -7351860.00749  -5464875.73549  23817662.1654   23817669.1934
  24335727.139    -2130516.48649  -1397806.57349  24335726.9964   24335732.2004
  23625745.704   -10857099.91249  -8101822.53149  23625744.6554   23625751.1454
  21344597.874    -7050264.59349  -5481907.42949  21344598.0144   21344602.9594
  21101620.698    -9070779.45649  -7053134.55949  21101620.2834   21101625.2814
  20136048.063   -27227951.41949 -20935379.49449  20136048.3054   20136052.7644
  22789738.193   -13706952.21849 -10189801.77749  22789739.2234   22789744.3634
 96  4 17 19 31 59.9990000  0  8 19  4  9 15 27  2  7 26
  24159778.296    17310585.16249  13492840.88749  24159780.1154   24159789.1114
  23797532.953    -7457639.29849  -5547301.08549  23797532.9314   23797540.0154
  24316441.489    -2231855.88149  -1476772.29249  24316443.1854   24316448.1944
  23633610.381   -10815767.99249  -8069615.86549  23633609.9004   23633616.4494
  21359468.092    -6972119.61949  -5421015.27149  21359468.2234   21359473.3224
  21104251.611    -9056952.26949  -7042360.12449  21104251.7534   21104256.8804
  20134127.586   -27238044.15749 -20943243.95749  20134127.5474   20134132.0014
  22791661.958   -13696846.30949 -10181927.05549  22791662.2114   22791666.9904
